<?xml version="1.0" encoding="UTF-8" standalone="no" ?>
<gpx xmlns="http://www.topografix.com/GPX/1/1" xmlns:xsi="http://www.w3.org/2001/XMLSchema-instance" xsi:schemaLocation="http://www.topografix.com/GPX/1/1 http://www.topografix.com/GPX/1/1/gpx.xsd" version="1.1" creator="VisuGPX - https://www.visugpx.com">
  <metadata>
    <name>lundi 2016 09</name>
    <desc><![CDATA[cumul des lundi du mois de septembre 2016]]></desc>
  </metadata>
  <trk>
    <name><![CDATA[Rando Roller du lundi 12 qeptembre]]></name>
    <trkseg>
      <trkpt lat="48.85738" lon="2.34728">
        <ele>40.400001525879</ele>
        <time>2016-09-12T18:20:56.000Z</time>
      </trkpt>
      <trkpt lat="48.85737" lon="2.34722">
        <ele>40.400001525879</ele>
        <time>2016-09-12T18:21:15.000Z</time>
      </trkpt>
      <trkpt lat="48.85735" lon="2.34699">
        <ele>40</ele>
        <time>2016-09-12T18:22:12.000Z</time>
      </trkpt>
      <trkpt lat="48.85723" lon="2.34706">
        <ele>40.599998474121</ele>
        <time>2016-09-12T18:22:21.000Z</time>
      </trkpt>
      <trkpt lat="48.8572" lon="2.34715">
        <ele>40.599998474121</ele>
        <time>2016-09-12T18:22:37.000Z</time>
      </trkpt>
      <trkpt lat="48.85701" lon="2.34779">
        <ele>42.400001525879</ele>
        <time>2016-09-12T18:22:56.000Z</time>
      </trkpt>
      <trkpt lat="48.85681" lon="2.34845">
        <ele>46.400001525879</ele>
        <time>2016-09-12T18:23:07.000Z</time>
      </trkpt>
      <trkpt lat="48.85671" lon="2.34883">
        <ele>44</ele>
        <time>2016-09-12T18:23:13.000Z</time>
      </trkpt>
      <trkpt lat="48.85648" lon="2.34947">
        <ele>43.599998474121</ele>
        <time>2016-09-12T18:23:25.000Z</time>
      </trkpt>
      <trkpt lat="48.85627" lon="2.35014">
        <ele>35.599998474121</ele>
        <time>2016-09-12T18:23:37.000Z</time>
      </trkpt>
      <trkpt lat="48.85603" lon="2.35077">
        <ele>30.39999961853</ele>
        <time>2016-09-12T18:23:50.000Z</time>
      </trkpt>
      <trkpt lat="48.85592" lon="2.35105">
        <ele>31.200000762939</ele>
        <time>2016-09-12T18:23:54.000Z</time>
      </trkpt>
      <trkpt lat="48.85565" lon="2.35168">
        <ele>31.39999961853</ele>
        <time>2016-09-12T18:24:03.000Z</time>
      </trkpt>
      <trkpt lat="48.85539" lon="2.35232">
        <ele>31</ele>
        <time>2016-09-12T18:24:12.000Z</time>
      </trkpt>
      <trkpt lat="48.85516" lon="2.35293">
        <ele>32.599998474121</ele>
        <time>2016-09-12T18:24:22.000Z</time>
      </trkpt>
      <trkpt lat="48.85513" lon="2.35297">
        <ele>32.799999237061</ele>
        <time>2016-09-12T18:24:23.000Z</time>
      </trkpt>
      <trkpt lat="48.85509" lon="2.35299">
        <ele>33</ele>
        <time>2016-09-12T18:24:27.000Z</time>
      </trkpt>
      <trkpt lat="48.85477" lon="2.35329">
        <ele>30.39999961853</ele>
        <time>2016-09-12T18:24:52.000Z</time>
      </trkpt>
      <trkpt lat="48.85453" lon="2.3539">
        <ele>31</ele>
        <time>2016-09-12T18:25:11.000Z</time>
      </trkpt>
      <trkpt lat="48.85425" lon="2.35451">
        <ele>34.200000762939</ele>
        <time>2016-09-12T18:25:22.000Z</time>
      </trkpt>
      <trkpt lat="48.85397" lon="2.35506">
        <ele>39.400001525879</ele>
        <time>2016-09-12T18:25:34.000Z</time>
      </trkpt>
      <trkpt lat="48.85378" lon="2.35573">
        <ele>37.799999237061</ele>
        <time>2016-09-12T18:25:45.000Z</time>
      </trkpt>
      <trkpt lat="48.85372" lon="2.35585">
        <ele>37.400001525879</ele>
        <time>2016-09-12T18:25:46.000Z</time>
      </trkpt>
      <trkpt lat="48.85348" lon="2.3565">
        <ele>39</ele>
        <time>2016-09-12T18:25:59.000Z</time>
      </trkpt>
      <trkpt lat="48.85329" lon="2.35713">
        <ele>40.400001525879</ele>
        <time>2016-09-12T18:26:12.000Z</time>
      </trkpt>
      <trkpt lat="48.85319" lon="2.3575">
        <ele>38</ele>
        <time>2016-09-12T18:26:18.000Z</time>
      </trkpt>
      <trkpt lat="48.85308" lon="2.3578">
        <ele>37.599998474121</ele>
        <time>2016-09-12T18:26:23.000Z</time>
      </trkpt>
      <trkpt lat="48.85299" lon="2.35799">
        <ele>37</ele>
        <time>2016-09-12T18:26:26.000Z</time>
      </trkpt>
      <trkpt lat="48.85296" lon="2.3581">
        <ele>36.799999237061</ele>
        <time>2016-09-12T18:26:27.000Z</time>
      </trkpt>
      <trkpt lat="48.85281" lon="2.35844">
        <ele>36.200000762939</ele>
        <time>2016-09-12T18:26:34.000Z</time>
      </trkpt>
      <trkpt lat="48.85259" lon="2.35909">
        <ele>37.799999237061</ele>
        <time>2016-09-12T18:26:45.000Z</time>
      </trkpt>
      <trkpt lat="48.8524" lon="2.35973">
        <ele>39.799999237061</ele>
        <time>2016-09-12T18:26:55.000Z</time>
      </trkpt>
      <trkpt lat="48.85216" lon="2.36035">
        <ele>38.200000762939</ele>
        <time>2016-09-12T18:27:06.000Z</time>
      </trkpt>
      <trkpt lat="48.85183" lon="2.3609">
        <ele>40</ele>
        <time>2016-09-12T18:27:16.000Z</time>
      </trkpt>
      <trkpt lat="48.85141" lon="2.36109">
        <ele>39.200000762939</ele>
        <time>2016-09-12T18:27:28.000Z</time>
      </trkpt>
      <trkpt lat="48.85096" lon="2.36114">
        <ele>36.200000762939</ele>
        <time>2016-09-12T18:27:39.000Z</time>
      </trkpt>
      <trkpt lat="48.85076" lon="2.36115">
        <ele>36.200000762939</ele>
        <time>2016-09-12T18:27:43.000Z</time>
      </trkpt>
      <trkpt lat="48.85031" lon="2.36119">
        <ele>37.200000762939</ele>
        <time>2016-09-12T18:27:50.000Z</time>
      </trkpt>
      <trkpt lat="48.85022" lon="2.36121">
        <ele>37.400001525879</ele>
        <time>2016-09-12T18:27:52.000Z</time>
      </trkpt>
      <trkpt lat="48.84978" lon="2.3614">
        <ele>38</ele>
        <time>2016-09-12T18:27:59.000Z</time>
      </trkpt>
      <trkpt lat="48.84943" lon="2.36157">
        <ele>41.200000762939</ele>
        <time>2016-09-12T18:28:11.000Z</time>
      </trkpt>
      <trkpt lat="48.84944" lon="2.36158">
        <ele>41.200000762939</ele>
        <time>2016-09-12T18:28:14.000Z</time>
      </trkpt>
      <trkpt lat="48.84947" lon="2.36156">
        <ele>41</ele>
        <time>2016-09-12T18:28:16.000Z</time>
      </trkpt>
      <trkpt lat="48.84992" lon="2.36137">
        <ele>37.200000762939</ele>
        <time>2016-09-12T18:28:35.000Z</time>
      </trkpt>
      <trkpt lat="48.85033" lon="2.36136">
        <ele>37.200000762939</ele>
        <time>2016-09-12T18:28:46.000Z</time>
      </trkpt>
      <trkpt lat="48.85069" lon="2.36132">
        <ele>36</ele>
        <time>2016-09-12T18:29:04.000Z</time>
      </trkpt>
      <trkpt lat="48.85058" lon="2.3612">
        <ele>36.200000762939</ele>
        <time>2016-09-12T18:29:10.000Z</time>
      </trkpt>
      <trkpt lat="48.85054" lon="2.36108">
        <ele>36.400001525879</ele>
        <time>2016-09-12T18:29:28.000Z</time>
      </trkpt>
      <trkpt lat="48.85049" lon="2.36105">
        <ele>36.400001525879</ele>
        <time>2016-09-12T18:29:35.000Z</time>
      </trkpt>
      <trkpt lat="48.85002" lon="2.36107">
        <ele>36.799999237061</ele>
        <time>2016-09-12T18:29:52.000Z</time>
      </trkpt>
      <trkpt lat="48.8496" lon="2.36131">
        <ele>38.200000762939</ele>
        <time>2016-09-12T18:30:08.000Z</time>
      </trkpt>
      <trkpt lat="48.8492" lon="2.36168">
        <ele>39.400001525879</ele>
        <time>2016-09-12T18:30:25.000Z</time>
      </trkpt>
      <trkpt lat="48.84926" lon="2.36182">
        <ele>39.799999237061</ele>
        <time>2016-09-12T18:30:47.000Z</time>
      </trkpt>
      <trkpt lat="48.84928" lon="2.36174">
        <ele>40.200000762939</ele>
        <time>2016-09-12T18:30:54.000Z</time>
      </trkpt>
      <trkpt lat="48.84927" lon="2.36174">
        <ele>40.200000762939</ele>
        <time>2016-09-12T18:31:00.000Z</time>
      </trkpt>
      <trkpt lat="48.84925" lon="2.36183">
        <ele>39.599998474121</ele>
        <time>2016-09-12T18:31:04.000Z</time>
      </trkpt>
      <trkpt lat="48.84895" lon="2.36235">
        <ele>36.400001525879</ele>
        <time>2016-09-12T18:31:28.000Z</time>
      </trkpt>
      <trkpt lat="48.8486" lon="2.36279">
        <ele>35</ele>
        <time>2016-09-12T18:31:44.000Z</time>
      </trkpt>
      <trkpt lat="48.84856" lon="2.36285">
        <ele>34.799999237061</ele>
        <time>2016-09-12T18:31:45.000Z</time>
      </trkpt>
      <trkpt lat="48.84821" lon="2.36336">
        <ele>33</ele>
        <time>2016-09-12T18:32:01.000Z</time>
      </trkpt>
      <trkpt lat="48.8479" lon="2.36386">
        <ele>34.200000762939</ele>
        <time>2016-09-12T18:32:15.000Z</time>
      </trkpt>
      <trkpt lat="48.84768" lon="2.36442">
        <ele>37.400001525879</ele>
        <time>2016-09-12T18:32:31.000Z</time>
      </trkpt>
      <trkpt lat="48.84734" lon="2.36489">
        <ele>37.599998474121</ele>
        <time>2016-09-12T18:32:41.000Z</time>
      </trkpt>
      <trkpt lat="48.84704" lon="2.36498">
        <ele>35.200000762939</ele>
        <time>2016-09-12T18:33:40.000Z</time>
      </trkpt>
      <trkpt lat="48.84665" lon="2.36535">
        <ele>30.60000038147</ele>
        <time>2016-09-12T18:33:58.000Z</time>
      </trkpt>
      <trkpt lat="48.84624" lon="2.36572">
        <ele>30.60000038147</ele>
        <time>2016-09-12T18:34:10.000Z</time>
      </trkpt>
      <trkpt lat="48.84585" lon="2.36616">
        <ele>32.400001525879</ele>
        <time>2016-09-12T18:34:17.000Z</time>
      </trkpt>
      <trkpt lat="48.84547" lon="2.36665">
        <ele>35.400001525879</ele>
        <time>2016-09-12T18:34:24.000Z</time>
      </trkpt>
      <trkpt lat="48.84515" lon="2.36716">
        <ele>37.200000762939</ele>
        <time>2016-09-12T18:34:31.000Z</time>
      </trkpt>
      <trkpt lat="48.84502" lon="2.36736">
        <ele>37</ele>
        <time>2016-09-12T18:34:35.000Z</time>
      </trkpt>
      <trkpt lat="48.84497" lon="2.36745">
        <ele>36.200000762939</ele>
        <time>2016-09-12T18:34:37.000Z</time>
      </trkpt>
      <trkpt lat="48.84484" lon="2.36763">
        <ele>35.799999237061</ele>
        <time>2016-09-12T18:34:40.000Z</time>
      </trkpt>
      <trkpt lat="48.8445" lon="2.36812">
        <ele>32.400001525879</ele>
        <time>2016-09-12T18:34:48.000Z</time>
      </trkpt>
      <trkpt lat="48.84417" lon="2.36866">
        <ele>33</ele>
        <time>2016-09-12T18:34:57.000Z</time>
      </trkpt>
      <trkpt lat="48.84394" lon="2.36926">
        <ele>33.599998474121</ele>
        <time>2016-09-12T18:35:12.000Z</time>
      </trkpt>
      <trkpt lat="48.84389" lon="2.36931">
        <ele>33.599998474121</ele>
        <time>2016-09-12T18:35:18.000Z</time>
      </trkpt>
      <trkpt lat="48.84361" lon="2.36962">
        <ele>35.200000762939</ele>
        <time>2016-09-12T18:35:32.000Z</time>
      </trkpt>
      <trkpt lat="48.84344" lon="2.36972">
        <ele>35.200000762939</ele>
        <time>2016-09-12T18:35:36.000Z</time>
      </trkpt>
      <trkpt lat="48.84333" lon="2.36984">
        <ele>35</ele>
        <time>2016-09-12T18:35:39.000Z</time>
      </trkpt>
      <trkpt lat="48.84295" lon="2.37027">
        <ele>33.400001525879</ele>
        <time>2016-09-12T18:35:52.000Z</time>
      </trkpt>
      <trkpt lat="48.84263" lon="2.37078">
        <ele>30</ele>
        <time>2016-09-12T18:36:05.000Z</time>
      </trkpt>
      <trkpt lat="48.84229" lon="2.37128">
        <ele>35</ele>
        <time>2016-09-12T18:36:18.000Z</time>
      </trkpt>
      <trkpt lat="48.84199" lon="2.37181">
        <ele>32.599998474121</ele>
        <time>2016-09-12T18:36:35.000Z</time>
      </trkpt>
      <trkpt lat="48.84162" lon="2.37226">
        <ele>32</ele>
        <time>2016-09-12T18:36:47.000Z</time>
      </trkpt>
      <trkpt lat="48.84142" lon="2.37249">
        <ele>31.200000762939</ele>
        <time>2016-09-12T18:36:53.000Z</time>
      </trkpt>
      <trkpt lat="48.84134" lon="2.37258">
        <ele>31.200000762939</ele>
        <time>2016-09-12T18:36:55.000Z</time>
      </trkpt>
      <trkpt lat="48.84112" lon="2.37283">
        <ele>31.39999961853</ele>
        <time>2016-09-12T18:37:01.000Z</time>
      </trkpt>
      <trkpt lat="48.84087" lon="2.37312">
        <ele>33.799999237061</ele>
        <time>2016-09-12T18:37:08.000Z</time>
      </trkpt>
      <trkpt lat="48.84049" lon="2.37356">
        <ele>33.200000762939</ele>
        <time>2016-09-12T18:37:19.000Z</time>
      </trkpt>
      <trkpt lat="48.84009" lon="2.37398">
        <ele>33.799999237061</ele>
        <time>2016-09-12T18:37:30.000Z</time>
      </trkpt>
      <trkpt lat="48.84002" lon="2.37406">
        <ele>33.200000762939</ele>
        <time>2016-09-12T18:37:31.000Z</time>
      </trkpt>
      <trkpt lat="48.83964" lon="2.3745">
        <ele>32</ele>
        <time>2016-09-12T18:37:42.000Z</time>
      </trkpt>
      <trkpt lat="48.83955" lon="2.37461">
        <ele>31.39999961853</ele>
        <time>2016-09-12T18:37:45.000Z</time>
      </trkpt>
      <trkpt lat="48.83932" lon="2.37491">
        <ele>31</ele>
        <time>2016-09-12T18:37:56.000Z</time>
      </trkpt>
      <trkpt lat="48.83926" lon="2.37502">
        <ele>32.400001525879</ele>
        <time>2016-09-12T18:38:02.000Z</time>
      </trkpt>
      <trkpt lat="48.83922" lon="2.37511">
        <ele>33.799999237061</ele>
        <time>2016-09-12T18:38:05.000Z</time>
      </trkpt>
      <trkpt lat="48.83886" lon="2.37556">
        <ele>38.200000762939</ele>
        <time>2016-09-12T18:38:20.000Z</time>
      </trkpt>
      <trkpt lat="48.83873" lon="2.37571">
        <ele>37.200000762939</ele>
        <time>2016-09-12T18:39:06.000Z</time>
      </trkpt>
      <trkpt lat="48.83871" lon="2.37633">
        <ele>38.599998474121</ele>
        <time>2016-09-12T18:39:51.000Z</time>
      </trkpt>
      <trkpt lat="48.83872" lon="2.37636">
        <ele>38.799999237061</ele>
        <time>2016-09-12T18:39:52.000Z</time>
      </trkpt>
      <trkpt lat="48.83886" lon="2.37665">
        <ele>40.400001525879</ele>
        <time>2016-09-12T18:39:59.000Z</time>
      </trkpt>
      <trkpt lat="48.83897" lon="2.37687">
        <ele>40.200000762939</ele>
        <time>2016-09-12T18:40:03.000Z</time>
      </trkpt>
      <trkpt lat="48.83926" lon="2.37743">
        <ele>40.400001525879</ele>
        <time>2016-09-12T18:40:12.000Z</time>
      </trkpt>
      <trkpt lat="48.83957" lon="2.37799">
        <ele>43.799999237061</ele>
        <time>2016-09-12T18:40:21.000Z</time>
      </trkpt>
      <trkpt lat="48.8397" lon="2.37823">
        <ele>45.599998474121</ele>
        <time>2016-09-12T18:40:25.000Z</time>
      </trkpt>
      <trkpt lat="48.83977" lon="2.37834">
        <ele>46.200000762939</ele>
        <time>2016-09-12T18:40:27.000Z</time>
      </trkpt>
      <trkpt lat="48.84003" lon="2.37895">
        <ele>46.200000762939</ele>
        <time>2016-09-12T18:40:38.000Z</time>
      </trkpt>
      <trkpt lat="48.84028" lon="2.37954">
        <ele>44.799999237061</ele>
        <time>2016-09-12T18:40:53.000Z</time>
      </trkpt>
      <trkpt lat="48.84028" lon="2.38022">
        <ele>43.400001525879</ele>
        <time>2016-09-12T18:41:05.000Z</time>
      </trkpt>
      <trkpt lat="48.84019" lon="2.38089">
        <ele>42.799999237061</ele>
        <time>2016-09-12T18:41:15.000Z</time>
      </trkpt>
      <trkpt lat="48.84011" lon="2.38158">
        <ele>41.599998474121</ele>
        <time>2016-09-12T18:41:25.000Z</time>
      </trkpt>
      <trkpt lat="48.84003" lon="2.38204">
        <ele>39.799999237061</ele>
        <time>2016-09-12T18:41:34.000Z</time>
      </trkpt>
      <trkpt lat="48.83989" lon="2.38271">
        <ele>39.599998474121</ele>
        <time>2016-09-12T18:41:47.000Z</time>
      </trkpt>
      <trkpt lat="48.83974" lon="2.38338">
        <ele>40.799999237061</ele>
        <time>2016-09-12T18:41:59.000Z</time>
      </trkpt>
      <trkpt lat="48.83972" lon="2.3837">
        <ele>40.599998474121</ele>
        <time>2016-09-12T18:42:04.000Z</time>
      </trkpt>
      <trkpt lat="48.83963" lon="2.38415">
        <ele>39</ele>
        <time>2016-09-12T18:42:10.000Z</time>
      </trkpt>
      <trkpt lat="48.83949" lon="2.38494">
        <ele>40</ele>
        <time>2016-09-12T18:42:17.000Z</time>
      </trkpt>
      <trkpt lat="48.83936" lon="2.3856">
        <ele>40.200000762939</ele>
        <time>2016-09-12T18:42:23.000Z</time>
      </trkpt>
      <trkpt lat="48.83923" lon="2.38632">
        <ele>40.799999237061</ele>
        <time>2016-09-12T18:42:32.000Z</time>
      </trkpt>
      <trkpt lat="48.83921" lon="2.38666">
        <ele>40.599998474121</ele>
        <time>2016-09-12T18:42:36.000Z</time>
      </trkpt>
      <trkpt lat="48.83923" lon="2.38723">
        <ele>42</ele>
        <time>2016-09-12T18:42:40.000Z</time>
      </trkpt>
      <trkpt lat="48.83922" lon="2.38764">
        <ele>43.200000762939</ele>
        <time>2016-09-12T18:42:45.000Z</time>
      </trkpt>
      <trkpt lat="48.83904" lon="2.38828">
        <ele>44.200000762939</ele>
        <time>2016-09-12T18:42:56.000Z</time>
      </trkpt>
      <trkpt lat="48.83907" lon="2.38842">
        <ele>45</ele>
        <time>2016-09-12T18:43:41.000Z</time>
      </trkpt>
      <trkpt lat="48.83904" lon="2.38911">
        <ele>48.400001525879</ele>
        <time>2016-09-12T18:43:59.000Z</time>
      </trkpt>
      <trkpt lat="48.83905" lon="2.38917">
        <ele>48.400001525879</ele>
        <time>2016-09-12T18:44:02.000Z</time>
      </trkpt>
      <trkpt lat="48.8391" lon="2.38985">
        <ele>47.799999237061</ele>
        <time>2016-09-12T18:44:18.000Z</time>
      </trkpt>
      <trkpt lat="48.83915" lon="2.39056">
        <ele>47.400001525879</ele>
        <time>2016-09-12T18:44:31.000Z</time>
      </trkpt>
      <trkpt lat="48.83923" lon="2.39127">
        <ele>47.799999237061</ele>
        <time>2016-09-12T18:44:44.000Z</time>
      </trkpt>
      <trkpt lat="48.8393" lon="2.39198">
        <ele>48.799999237061</ele>
        <time>2016-09-12T18:44:57.000Z</time>
      </trkpt>
      <trkpt lat="48.83939" lon="2.39268">
        <ele>49.799999237061</ele>
        <time>2016-09-12T18:45:09.000Z</time>
      </trkpt>
      <trkpt lat="48.83942" lon="2.39341">
        <ele>52.400001525879</ele>
        <time>2016-09-12T18:45:22.000Z</time>
      </trkpt>
      <trkpt lat="48.83942" lon="2.39412">
        <ele>55.799999237061</ele>
        <time>2016-09-12T18:45:36.000Z</time>
      </trkpt>
      <trkpt lat="48.83943" lon="2.39424">
        <ele>56.200000762939</ele>
        <time>2016-09-12T18:45:41.000Z</time>
      </trkpt>
      <trkpt lat="48.83944" lon="2.39435">
        <ele>56.200000762939</ele>
        <time>2016-09-12T18:46:19.000Z</time>
      </trkpt>
      <trkpt lat="48.83949" lon="2.39504">
        <ele>57.200000762939</ele>
        <time>2016-09-12T18:46:40.000Z</time>
      </trkpt>
      <trkpt lat="48.8395" lon="2.39527">
        <ele>57.400001525879</ele>
        <time>2016-09-12T18:46:46.000Z</time>
      </trkpt>
      <trkpt lat="48.83938" lon="2.39594">
        <ele>58</ele>
        <time>2016-09-12T18:47:00.000Z</time>
      </trkpt>
      <trkpt lat="48.83927" lon="2.39664">
        <ele>58</ele>
        <time>2016-09-12T18:47:13.000Z</time>
      </trkpt>
      <trkpt lat="48.8392" lon="2.39687">
        <ele>57.799999237061</ele>
        <time>2016-09-12T18:47:17.000Z</time>
      </trkpt>
      <trkpt lat="48.83906" lon="2.39758">
        <ele>58.200000762939</ele>
        <time>2016-09-12T18:47:28.000Z</time>
      </trkpt>
      <trkpt lat="48.83885" lon="2.39821">
        <ele>60.400001525879</ele>
        <time>2016-09-12T18:47:36.000Z</time>
      </trkpt>
      <trkpt lat="48.83875" lon="2.3985">
        <ele>60.400001525879</ele>
        <time>2016-09-12T18:47:40.000Z</time>
      </trkpt>
      <trkpt lat="48.83854" lon="2.39915">
        <ele>58</ele>
        <time>2016-09-12T18:47:48.000Z</time>
      </trkpt>
      <trkpt lat="48.83832" lon="2.39975">
        <ele>56</ele>
        <time>2016-09-12T18:47:54.000Z</time>
      </trkpt>
      <trkpt lat="48.83808" lon="2.4004">
        <ele>51.200000762939</ele>
        <time>2016-09-12T18:48:00.000Z</time>
      </trkpt>
      <trkpt lat="48.83781" lon="2.40105">
        <ele>48</ele>
        <time>2016-09-12T18:48:06.000Z</time>
      </trkpt>
      <trkpt lat="48.83755" lon="2.40167">
        <ele>46.599998474121</ele>
        <time>2016-09-12T18:48:12.000Z</time>
      </trkpt>
      <trkpt lat="48.83731" lon="2.40229">
        <ele>45.200000762939</ele>
        <time>2016-09-12T18:48:21.000Z</time>
      </trkpt>
      <trkpt lat="48.83708" lon="2.40293">
        <ele>45.400001525879</ele>
        <time>2016-09-12T18:48:30.000Z</time>
      </trkpt>
      <trkpt lat="48.83684" lon="2.40352">
        <ele>43.200000762939</ele>
        <time>2016-09-12T18:48:38.000Z</time>
      </trkpt>
      <trkpt lat="48.83659" lon="2.40415">
        <ele>42</ele>
        <time>2016-09-12T18:48:45.000Z</time>
      </trkpt>
      <trkpt lat="48.83633" lon="2.4048">
        <ele>43</ele>
        <time>2016-09-12T18:48:51.000Z</time>
      </trkpt>
      <trkpt lat="48.83612" lon="2.40548">
        <ele>44.200000762939</ele>
        <time>2016-09-12T18:48:57.000Z</time>
      </trkpt>
      <trkpt lat="48.83591" lon="2.40617">
        <ele>46</ele>
        <time>2016-09-12T18:49:04.000Z</time>
      </trkpt>
      <trkpt lat="48.83558" lon="2.40649">
        <ele>48.400001525879</ele>
        <time>2016-09-12T18:49:41.000Z</time>
      </trkpt>
      <trkpt lat="48.83556" lon="2.40651">
        <ele>48.400001525879</ele>
        <time>2016-09-12T18:49:42.000Z</time>
      </trkpt>
      <trkpt lat="48.83529" lon="2.40704">
        <ele>50.599998474121</ele>
        <time>2016-09-12T18:50:02.000Z</time>
      </trkpt>
      <trkpt lat="48.83528" lon="2.4071">
        <ele>50.599998474121</ele>
        <time>2016-09-12T18:50:03.000Z</time>
      </trkpt>
      <trkpt lat="48.83522" lon="2.40729">
        <ele>50.799999237061</ele>
        <time>2016-09-12T18:50:06.000Z</time>
      </trkpt>
      <trkpt lat="48.83515" lon="2.4075">
        <ele>51.400001525879</ele>
        <time>2016-09-12T18:50:09.000Z</time>
      </trkpt>
      <trkpt lat="48.83507" lon="2.4078">
        <ele>52.400001525879</ele>
        <time>2016-09-12T18:50:13.000Z</time>
      </trkpt>
      <trkpt lat="48.83492" lon="2.40842">
        <ele>53.200000762939</ele>
        <time>2016-09-12T18:50:28.000Z</time>
      </trkpt>
      <trkpt lat="48.8347" lon="2.40906">
        <ele>51.200000762939</ele>
        <time>2016-09-12T18:50:43.000Z</time>
      </trkpt>
      <trkpt lat="48.83448" lon="2.4097">
        <ele>49.599998474121</ele>
        <time>2016-09-12T18:50:57.000Z</time>
      </trkpt>
      <trkpt lat="48.83421" lon="2.41032">
        <ele>48.200000762939</ele>
        <time>2016-09-12T18:51:10.000Z</time>
      </trkpt>
      <trkpt lat="48.83406" lon="2.41078">
        <ele>47.599998474121</ele>
        <time>2016-09-12T18:51:18.000Z</time>
      </trkpt>
      <trkpt lat="48.83395" lon="2.41145">
        <ele>49.200000762939</ele>
        <time>2016-09-12T18:51:32.000Z</time>
      </trkpt>
      <trkpt lat="48.83385" lon="2.41215">
        <ele>51</ele>
        <time>2016-09-12T18:51:46.000Z</time>
      </trkpt>
      <trkpt lat="48.83385" lon="2.41283">
        <ele>52.599998474121</ele>
        <time>2016-09-12T18:52:22.000Z</time>
      </trkpt>
      <trkpt lat="48.83386" lon="2.41283">
        <ele>52.599998474121</ele>
        <time>2016-09-12T18:52:51.000Z</time>
      </trkpt>
      <trkpt lat="48.83383" lon="2.41353">
        <ele>53.400001525879</ele>
        <time>2016-09-12T18:53:11.000Z</time>
      </trkpt>
      <trkpt lat="48.83381" lon="2.41423">
        <ele>51</ele>
        <time>2016-09-12T18:53:24.000Z</time>
      </trkpt>
      <trkpt lat="48.83381" lon="2.41448">
        <ele>50.599998474121</ele>
        <time>2016-09-12T18:53:28.000Z</time>
      </trkpt>
      <trkpt lat="48.83383" lon="2.41521">
        <ele>52.599998474121</ele>
        <time>2016-09-12T18:53:40.000Z</time>
      </trkpt>
      <trkpt lat="48.83384" lon="2.41535">
        <ele>52.599998474121</ele>
        <time>2016-09-12T18:53:42.000Z</time>
      </trkpt>
      <trkpt lat="48.83394" lon="2.41598">
        <ele>53</ele>
        <time>2016-09-12T18:53:52.000Z</time>
      </trkpt>
      <trkpt lat="48.83396" lon="2.41611">
        <ele>53.200000762939</ele>
        <time>2016-09-12T18:53:54.000Z</time>
      </trkpt>
      <trkpt lat="48.83411" lon="2.41678">
        <ele>53</ele>
        <time>2016-09-12T18:54:04.000Z</time>
      </trkpt>
      <trkpt lat="48.83425" lon="2.41744">
        <ele>52</ele>
        <time>2016-09-12T18:54:15.000Z</time>
      </trkpt>
      <trkpt lat="48.83435" lon="2.41782">
        <ele>51.599998474121</ele>
        <time>2016-09-12T18:54:22.000Z</time>
      </trkpt>
      <trkpt lat="48.83442" lon="2.41805">
        <ele>51.400001525879</ele>
        <time>2016-09-12T18:54:26.000Z</time>
      </trkpt>
      <trkpt lat="48.83462" lon="2.41872">
        <ele>52.400001525879</ele>
        <time>2016-09-12T18:54:38.000Z</time>
      </trkpt>
      <trkpt lat="48.83482" lon="2.41937">
        <ele>54.200000762939</ele>
        <time>2016-09-12T18:54:51.000Z</time>
      </trkpt>
      <trkpt lat="48.83495" lon="2.41971">
        <ele>54.599998474121</ele>
        <time>2016-09-12T18:55:17.000Z</time>
      </trkpt>
      <trkpt lat="48.83496" lon="2.4198">
        <ele>54.799999237061</ele>
        <time>2016-09-12T18:58:30.000Z</time>
      </trkpt>
      <trkpt lat="48.83517" lon="2.42043">
        <ele>54.400001525879</ele>
        <time>2016-09-12T18:58:47.000Z</time>
      </trkpt>
      <trkpt lat="48.83542" lon="2.42107">
        <ele>54.799999237061</ele>
        <time>2016-09-12T18:58:58.000Z</time>
      </trkpt>
      <trkpt lat="48.83565" lon="2.42171">
        <ele>56.400001525879</ele>
        <time>2016-09-12T18:59:07.000Z</time>
      </trkpt>
      <trkpt lat="48.8357" lon="2.42186">
        <ele>55.799999237061</ele>
        <time>2016-09-12T18:59:09.000Z</time>
      </trkpt>
      <trkpt lat="48.83598" lon="2.42248">
        <ele>54</ele>
        <time>2016-09-12T18:59:18.000Z</time>
      </trkpt>
      <trkpt lat="48.83607" lon="2.42268">
        <ele>53.400001525879</ele>
        <time>2016-09-12T18:59:21.000Z</time>
      </trkpt>
      <trkpt lat="48.83619" lon="2.42293">
        <ele>52.599998474121</ele>
        <time>2016-09-12T18:59:25.000Z</time>
      </trkpt>
      <trkpt lat="48.83633" lon="2.42318">
        <ele>51.799999237061</ele>
        <time>2016-09-12T18:59:29.000Z</time>
      </trkpt>
      <trkpt lat="48.83666" lon="2.42372">
        <ele>51.799999237061</ele>
        <time>2016-09-12T18:59:38.000Z</time>
      </trkpt>
      <trkpt lat="48.83698" lon="2.42432">
        <ele>52</ele>
        <time>2016-09-12T18:59:46.000Z</time>
      </trkpt>
      <trkpt lat="48.83716" lon="2.42464">
        <ele>52.200000762939</ele>
        <time>2016-09-12T18:59:50.000Z</time>
      </trkpt>
      <trkpt lat="48.83751" lon="2.42515">
        <ele>52.400001525879</ele>
        <time>2016-09-12T18:59:57.000Z</time>
      </trkpt>
      <trkpt lat="48.83784" lon="2.42567">
        <ele>52.200000762939</ele>
        <time>2016-09-12T19:00:03.000Z</time>
      </trkpt>
      <trkpt lat="48.83812" lon="2.42626">
        <ele>50.599998474121</ele>
        <time>2016-09-12T19:00:09.000Z</time>
      </trkpt>
      <trkpt lat="48.83836" lon="2.42687">
        <ele>48.400001525879</ele>
        <time>2016-09-12T19:00:15.000Z</time>
      </trkpt>
      <trkpt lat="48.83863" lon="2.4275">
        <ele>46</ele>
        <time>2016-09-12T19:00:21.000Z</time>
      </trkpt>
      <trkpt lat="48.83871" lon="2.42771">
        <ele>46.200000762939</ele>
        <time>2016-09-12T19:00:22.000Z</time>
      </trkpt>
      <trkpt lat="48.83875" lon="2.42782">
        <ele>46.400001525879</ele>
        <time>2016-09-12T19:00:24.000Z</time>
      </trkpt>
      <trkpt lat="48.83898" lon="2.42844">
        <ele>47</ele>
        <time>2016-09-12T19:00:30.000Z</time>
      </trkpt>
      <trkpt lat="48.83917" lon="2.42905">
        <ele>47.200000762939</ele>
        <time>2016-09-12T19:00:36.000Z</time>
      </trkpt>
      <trkpt lat="48.83936" lon="2.42976">
        <ele>47</ele>
        <time>2016-09-12T19:00:43.000Z</time>
      </trkpt>
      <trkpt lat="48.83955" lon="2.43045">
        <ele>46.400001525879</ele>
        <time>2016-09-12T19:00:50.000Z</time>
      </trkpt>
      <trkpt lat="48.83968" lon="2.43091">
        <ele>46.200000762939</ele>
        <time>2016-09-12T19:00:55.000Z</time>
      </trkpt>
      <trkpt lat="48.8397" lon="2.431">
        <ele>46.599998474121</ele>
        <time>2016-09-12T19:00:56.000Z</time>
      </trkpt>
      <trkpt lat="48.83972" lon="2.43109">
        <ele>46.799999237061</ele>
        <time>2016-09-12T19:00:57.000Z</time>
      </trkpt>
      <trkpt lat="48.83977" lon="2.43126">
        <ele>47</ele>
        <time>2016-09-12T19:00:59.000Z</time>
      </trkpt>
      <trkpt lat="48.83986" lon="2.4316">
        <ele>46.599998474121</ele>
        <time>2016-09-12T19:01:03.000Z</time>
      </trkpt>
      <trkpt lat="48.83991" lon="2.43176">
        <ele>46.799999237061</ele>
        <time>2016-09-12T19:01:05.000Z</time>
      </trkpt>
      <trkpt lat="48.84002" lon="2.43216">
        <ele>48</ele>
        <time>2016-09-12T19:01:10.000Z</time>
      </trkpt>
      <trkpt lat="48.84021" lon="2.43282">
        <ele>49.400001525879</ele>
        <time>2016-09-12T19:01:19.000Z</time>
      </trkpt>
      <trkpt lat="48.84032" lon="2.43324">
        <ele>50</ele>
        <time>2016-09-12T19:01:25.000Z</time>
      </trkpt>
      <trkpt lat="48.84039" lon="2.43352">
        <ele>50.200000762939</ele>
        <time>2016-09-12T19:01:29.000Z</time>
      </trkpt>
      <trkpt lat="48.84048" lon="2.43387">
        <ele>50.599998474121</ele>
        <time>2016-09-12T19:01:34.000Z</time>
      </trkpt>
      <trkpt lat="48.84047" lon="2.43456">
        <ele>51.599998474121</ele>
        <time>2016-09-12T19:01:45.000Z</time>
      </trkpt>
      <trkpt lat="48.84032" lon="2.4352">
        <ele>50.599998474121</ele>
        <time>2016-09-12T19:02:03.000Z</time>
      </trkpt>
      <trkpt lat="48.8403" lon="2.43524">
        <ele>50.400001525879</ele>
        <time>2016-09-12T19:03:48.000Z</time>
      </trkpt>
      <trkpt lat="48.8403" lon="2.43592">
        <ele>48.400001525879</ele>
        <time>2016-09-12T19:04:03.000Z</time>
      </trkpt>
      <trkpt lat="48.84046" lon="2.43661">
        <ele>50.400001525879</ele>
        <time>2016-09-12T19:04:16.000Z</time>
      </trkpt>
      <trkpt lat="48.84052" lon="2.43687">
        <ele>50.400001525879</ele>
        <time>2016-09-12T19:04:21.000Z</time>
      </trkpt>
      <trkpt lat="48.84047" lon="2.43758">
        <ele>51</ele>
        <time>2016-09-12T19:04:32.000Z</time>
      </trkpt>
      <trkpt lat="48.84044" lon="2.438">
        <ele>51.400001525879</ele>
        <time>2016-09-12T19:04:38.000Z</time>
      </trkpt>
      <trkpt lat="48.8405" lon="2.43865">
        <ele>51.599998474121</ele>
        <time>2016-09-12T19:04:49.000Z</time>
      </trkpt>
      <trkpt lat="48.84097" lon="2.43875">
        <ele>51.200000762939</ele>
        <time>2016-09-12T19:05:05.000Z</time>
      </trkpt>
      <trkpt lat="48.84142" lon="2.43885">
        <ele>51</ele>
        <time>2016-09-12T19:05:17.000Z</time>
      </trkpt>
      <trkpt lat="48.84189" lon="2.43894">
        <ele>51.200000762939</ele>
        <time>2016-09-12T19:05:29.000Z</time>
      </trkpt>
      <trkpt lat="48.84236" lon="2.43899">
        <ele>51.200000762939</ele>
        <time>2016-09-12T19:05:43.000Z</time>
      </trkpt>
      <trkpt lat="48.84283" lon="2.43911">
        <ele>51.200000762939</ele>
        <time>2016-09-12T19:05:57.000Z</time>
      </trkpt>
      <trkpt lat="48.84331" lon="2.43922">
        <ele>51.400001525879</ele>
        <time>2016-09-12T19:06:11.000Z</time>
      </trkpt>
      <trkpt lat="48.84379" lon="2.43932">
        <ele>51.599998474121</ele>
        <time>2016-09-12T19:06:24.000Z</time>
      </trkpt>
      <trkpt lat="48.844" lon="2.43938">
        <ele>51.799999237061</ele>
        <time>2016-09-12T19:06:29.000Z</time>
      </trkpt>
      <trkpt lat="48.84443" lon="2.43949">
        <ele>52</ele>
        <time>2016-09-12T19:07:47.000Z</time>
      </trkpt>
      <trkpt lat="48.84443" lon="2.4395">
        <ele>52</ele>
        <time>2016-09-12T19:08:08.000Z</time>
      </trkpt>
      <trkpt lat="48.84482" lon="2.43954">
        <ele>53.599998474121</ele>
        <time>2016-09-12T19:08:22.000Z</time>
      </trkpt>
      <trkpt lat="48.84529" lon="2.43968">
        <ele>54.200000762939</ele>
        <time>2016-09-12T19:08:32.000Z</time>
      </trkpt>
      <trkpt lat="48.84567" lon="2.43975">
        <ele>53.799999237061</ele>
        <time>2016-09-12T19:08:40.000Z</time>
      </trkpt>
      <trkpt lat="48.84602" lon="2.43983">
        <ele>53.200000762939</ele>
        <time>2016-09-12T19:08:49.000Z</time>
      </trkpt>
      <trkpt lat="48.84603" lon="2.43994">
        <ele>53</ele>
        <time>2016-09-12T19:08:51.000Z</time>
      </trkpt>
      <trkpt lat="48.84601" lon="2.44064">
        <ele>53</ele>
        <time>2016-09-12T19:09:00.000Z</time>
      </trkpt>
      <trkpt lat="48.84599" lon="2.44135">
        <ele>54.400001525879</ele>
        <time>2016-09-12T19:09:08.000Z</time>
      </trkpt>
      <trkpt lat="48.84599" lon="2.44205">
        <ele>54.799999237061</ele>
        <time>2016-09-12T19:09:15.000Z</time>
      </trkpt>
      <trkpt lat="48.84603" lon="2.44279">
        <ele>54.599998474121</ele>
        <time>2016-09-12T19:09:22.000Z</time>
      </trkpt>
      <trkpt lat="48.84604" lon="2.44351">
        <ele>54.200000762939</ele>
        <time>2016-09-12T19:09:29.000Z</time>
      </trkpt>
      <trkpt lat="48.84603" lon="2.44425">
        <ele>55.200000762939</ele>
        <time>2016-09-12T19:09:36.000Z</time>
      </trkpt>
      <trkpt lat="48.84605" lon="2.44455">
        <ele>56</ele>
        <time>2016-09-12T19:09:39.000Z</time>
      </trkpt>
      <trkpt lat="48.84605" lon="2.44528">
        <ele>56</ele>
        <time>2016-09-12T19:09:46.000Z</time>
      </trkpt>
      <trkpt lat="48.846" lon="2.44604">
        <ele>53.400001525879</ele>
        <time>2016-09-12T19:09:53.000Z</time>
      </trkpt>
      <trkpt lat="48.84596" lon="2.44677">
        <ele>52.400001525879</ele>
        <time>2016-09-12T19:10:00.000Z</time>
      </trkpt>
      <trkpt lat="48.84589" lon="2.44739">
        <ele>54</ele>
        <time>2016-09-12T19:10:07.000Z</time>
      </trkpt>
      <trkpt lat="48.84582" lon="2.44809">
        <ele>53.799999237061</ele>
        <time>2016-09-12T19:10:17.000Z</time>
      </trkpt>
      <trkpt lat="48.84578" lon="2.44838">
        <ele>54</ele>
        <time>2016-09-12T19:10:23.000Z</time>
      </trkpt>
      <trkpt lat="48.84577" lon="2.4484">
        <ele>54</ele>
        <time>2016-09-12T19:10:26.000Z</time>
      </trkpt>
      <trkpt lat="48.84579" lon="2.44767">
        <ele>53.599998474121</ele>
        <time>2016-09-12T19:10:39.000Z</time>
      </trkpt>
      <trkpt lat="48.84583" lon="2.44695">
        <ele>53.200000762939</ele>
        <time>2016-09-12T19:10:48.000Z</time>
      </trkpt>
      <trkpt lat="48.84583" lon="2.44687">
        <ele>53</ele>
        <time>2016-09-12T19:10:49.000Z</time>
      </trkpt>
      <trkpt lat="48.84581" lon="2.44673">
        <ele>52.799999237061</ele>
        <time>2016-09-12T19:10:51.000Z</time>
      </trkpt>
      <trkpt lat="48.84575" lon="2.44664">
        <ele>52.799999237061</ele>
        <time>2016-09-12T19:10:53.000Z</time>
      </trkpt>
      <trkpt lat="48.84565" lon="2.44659">
        <ele>53</ele>
        <time>2016-09-12T19:10:55.000Z</time>
      </trkpt>
      <trkpt lat="48.84512" lon="2.44652">
        <ele>53.799999237061</ele>
        <time>2016-09-12T19:11:02.000Z</time>
      </trkpt>
      <trkpt lat="48.84508" lon="2.44656">
        <ele>54</ele>
        <time>2016-09-12T19:11:04.000Z</time>
      </trkpt>
      <trkpt lat="48.84503" lon="2.44673">
        <ele>54.200000762939</ele>
        <time>2016-09-12T19:11:06.000Z</time>
      </trkpt>
      <trkpt lat="48.845" lon="2.44747">
        <ele>53.200000762939</ele>
        <time>2016-09-12T19:11:14.000Z</time>
      </trkpt>
      <trkpt lat="48.84496" lon="2.44817">
        <ele>54.200000762939</ele>
        <time>2016-09-12T19:11:22.000Z</time>
      </trkpt>
      <trkpt lat="48.84494" lon="2.44834">
        <ele>54.799999237061</ele>
        <time>2016-09-12T19:11:23.000Z</time>
      </trkpt>
      <trkpt lat="48.84484" lon="2.44904">
        <ele>55.599998474121</ele>
        <time>2016-09-12T19:11:32.000Z</time>
      </trkpt>
      <trkpt lat="48.84476" lon="2.44978">
        <ele>55.200000762939</ele>
        <time>2016-09-12T19:11:40.000Z</time>
      </trkpt>
      <trkpt lat="48.84468" lon="2.45049">
        <ele>54.599998474121</ele>
        <time>2016-09-12T19:11:50.000Z</time>
      </trkpt>
      <trkpt lat="48.84457" lon="2.45116">
        <ele>54.799999237061</ele>
        <time>2016-09-12T19:12:08.000Z</time>
      </trkpt>
      <trkpt lat="48.84447" lon="2.4518">
        <ele>55.200000762939</ele>
        <time>2016-09-12T19:12:21.000Z</time>
      </trkpt>
      <trkpt lat="48.84443" lon="2.45212">
        <ele>55</ele>
        <time>2016-09-12T19:12:26.000Z</time>
      </trkpt>
      <trkpt lat="48.84435" lon="2.45285">
        <ele>54.599998474121</ele>
        <time>2016-09-12T19:12:34.000Z</time>
      </trkpt>
      <trkpt lat="48.84424" lon="2.45356">
        <ele>54.200000762939</ele>
        <time>2016-09-12T19:12:40.000Z</time>
      </trkpt>
      <trkpt lat="48.84414" lon="2.45423">
        <ele>54.400001525879</ele>
        <time>2016-09-12T19:12:46.000Z</time>
      </trkpt>
      <trkpt lat="48.84413" lon="2.45444">
        <ele>54.599998474121</ele>
        <time>2016-09-12T19:12:47.000Z</time>
      </trkpt>
      <trkpt lat="48.84407" lon="2.45513">
        <ele>56</ele>
        <time>2016-09-12T19:12:55.000Z</time>
      </trkpt>
      <trkpt lat="48.84399" lon="2.45586">
        <ele>57.400001525879</ele>
        <time>2016-09-12T19:13:03.000Z</time>
      </trkpt>
      <trkpt lat="48.84391" lon="2.45654">
        <ele>57.200000762939</ele>
        <time>2016-09-12T19:13:11.000Z</time>
      </trkpt>
      <trkpt lat="48.8439" lon="2.45662">
        <ele>57.200000762939</ele>
        <time>2016-09-12T19:13:12.000Z</time>
      </trkpt>
      <trkpt lat="48.84383" lon="2.45689">
        <ele>57.400001525879</ele>
        <time>2016-09-12T19:13:15.000Z</time>
      </trkpt>
      <trkpt lat="48.84377" lon="2.45744">
        <ele>57.400001525879</ele>
        <time>2016-09-12T19:13:22.000Z</time>
      </trkpt>
      <trkpt lat="48.84366" lon="2.45798">
        <ele>57.599998474121</ele>
        <time>2016-09-12T19:13:29.000Z</time>
      </trkpt>
      <trkpt lat="48.84362" lon="2.45829">
        <ele>57.200000762939</ele>
        <time>2016-09-12T19:13:33.000Z</time>
      </trkpt>
      <trkpt lat="48.8436" lon="2.4585">
        <ele>57.200000762939</ele>
        <time>2016-09-12T19:13:36.000Z</time>
      </trkpt>
      <trkpt lat="48.84352" lon="2.45887">
        <ele>57.799999237061</ele>
        <time>2016-09-12T19:13:41.000Z</time>
      </trkpt>
      <trkpt lat="48.84332" lon="2.45945">
        <ele>57.599998474121</ele>
        <time>2016-09-12T19:13:50.000Z</time>
      </trkpt>
      <trkpt lat="48.84317" lon="2.46016">
        <ele>57.400001525879</ele>
        <time>2016-09-12T19:14:00.000Z</time>
      </trkpt>
      <trkpt lat="48.84303" lon="2.46089">
        <ele>59.799999237061</ele>
        <time>2016-09-12T19:14:09.000Z</time>
      </trkpt>
      <trkpt lat="48.84286" lon="2.46155">
        <ele>59.400001525879</ele>
        <time>2016-09-12T19:14:17.000Z</time>
      </trkpt>
      <trkpt lat="48.84278" lon="2.46189">
        <ele>59</ele>
        <time>2016-09-12T19:14:21.000Z</time>
      </trkpt>
      <trkpt lat="48.84272" lon="2.46212">
        <ele>58.400001525879</ele>
        <time>2016-09-12T19:14:24.000Z</time>
      </trkpt>
      <trkpt lat="48.84258" lon="2.4626">
        <ele>58.400001525879</ele>
        <time>2016-09-12T19:14:30.000Z</time>
      </trkpt>
      <trkpt lat="48.84231" lon="2.46312">
        <ele>61</ele>
        <time>2016-09-12T19:14:54.000Z</time>
      </trkpt>
      <trkpt lat="48.84229" lon="2.46316">
        <ele>61.200000762939</ele>
        <time>2016-09-12T19:15:39.000Z</time>
      </trkpt>
      <trkpt lat="48.84215" lon="2.46355">
        <ele>62.200000762939</ele>
        <time>2016-09-12T19:18:28.000Z</time>
      </trkpt>
      <trkpt lat="48.84196" lon="2.46402">
        <ele>63.599998474121</ele>
        <time>2016-09-12T19:18:40.000Z</time>
      </trkpt>
      <trkpt lat="48.84187" lon="2.46424">
        <ele>63.799999237061</ele>
        <time>2016-09-12T19:18:44.000Z</time>
      </trkpt>
      <trkpt lat="48.84156" lon="2.46479">
        <ele>62.799999237061</ele>
        <time>2016-09-12T19:18:55.000Z</time>
      </trkpt>
      <trkpt lat="48.84144" lon="2.46499">
        <ele>63</ele>
        <time>2016-09-12T19:18:59.000Z</time>
      </trkpt>
      <trkpt lat="48.84111" lon="2.46546">
        <ele>63</ele>
        <time>2016-09-12T19:19:09.000Z</time>
      </trkpt>
      <trkpt lat="48.84074" lon="2.46595">
        <ele>63</ele>
        <time>2016-09-12T19:19:21.000Z</time>
      </trkpt>
      <trkpt lat="48.8405" lon="2.46619">
        <ele>62.799999237061</ele>
        <time>2016-09-12T19:19:27.000Z</time>
      </trkpt>
      <trkpt lat="48.84034" lon="2.46635">
        <ele>62</ele>
        <time>2016-09-12T19:19:31.000Z</time>
      </trkpt>
      <trkpt lat="48.83993" lon="2.4667">
        <ele>60.400001525879</ele>
        <time>2016-09-12T19:19:40.000Z</time>
      </trkpt>
      <trkpt lat="48.83961" lon="2.46697">
        <ele>60</ele>
        <time>2016-09-12T19:19:47.000Z</time>
      </trkpt>
      <trkpt lat="48.83917" lon="2.46735">
        <ele>60.799999237061</ele>
        <time>2016-09-12T19:19:56.000Z</time>
      </trkpt>
      <trkpt lat="48.83907" lon="2.46743">
        <ele>61.200000762939</ele>
        <time>2016-09-12T19:19:57.000Z</time>
      </trkpt>
      <trkpt lat="48.83872" lon="2.46772">
        <ele>62.200000762939</ele>
        <time>2016-09-12T19:20:07.000Z</time>
      </trkpt>
      <trkpt lat="48.83834" lon="2.46813">
        <ele>61.400001525879</ele>
        <time>2016-09-12T19:20:17.000Z</time>
      </trkpt>
      <trkpt lat="48.83796" lon="2.46857">
        <ele>61.200000762939</ele>
        <time>2016-09-12T19:20:28.000Z</time>
      </trkpt>
      <trkpt lat="48.83759" lon="2.46902">
        <ele>62.599998474121</ele>
        <time>2016-09-12T19:20:38.000Z</time>
      </trkpt>
      <trkpt lat="48.83719" lon="2.46944">
        <ele>62.599998474121</ele>
        <time>2016-09-12T19:20:49.000Z</time>
      </trkpt>
      <trkpt lat="48.83678" lon="2.46971">
        <ele>62.400001525879</ele>
        <time>2016-09-12T19:20:59.000Z</time>
      </trkpt>
      <trkpt lat="48.83651" lon="2.4699">
        <ele>63.200000762939</ele>
        <time>2016-09-12T19:21:47.000Z</time>
      </trkpt>
      <trkpt lat="48.83603" lon="2.46987">
        <ele>64.800003051758</ele>
        <time>2016-09-12T19:22:04.000Z</time>
      </trkpt>
      <trkpt lat="48.83594" lon="2.46986">
        <ele>64.800003051758</ele>
        <time>2016-09-12T19:22:06.000Z</time>
      </trkpt>
      <trkpt lat="48.83568" lon="2.46983">
        <ele>64.800003051758</ele>
        <time>2016-09-12T19:22:11.000Z</time>
      </trkpt>
      <trkpt lat="48.83518" lon="2.46972">
        <ele>64.599998474121</ele>
        <time>2016-09-12T19:22:20.000Z</time>
      </trkpt>
      <trkpt lat="48.8347" lon="2.46954">
        <ele>62.599998474121</ele>
        <time>2016-09-12T19:22:29.000Z</time>
      </trkpt>
      <trkpt lat="48.83458" lon="2.46951">
        <ele>62.200000762939</ele>
        <time>2016-09-12T19:22:31.000Z</time>
      </trkpt>
      <trkpt lat="48.83413" lon="2.46915">
        <ele>61</ele>
        <time>2016-09-12T19:22:40.000Z</time>
      </trkpt>
      <trkpt lat="48.83398" lon="2.46902">
        <ele>61</ele>
        <time>2016-09-12T19:22:43.000Z</time>
      </trkpt>
      <trkpt lat="48.83375" lon="2.46878">
        <ele>61</ele>
        <time>2016-09-12T19:22:48.000Z</time>
      </trkpt>
      <trkpt lat="48.83343" lon="2.46823">
        <ele>61</ele>
        <time>2016-09-12T19:22:56.000Z</time>
      </trkpt>
      <trkpt lat="48.83314" lon="2.46763">
        <ele>61</ele>
        <time>2016-09-12T19:23:04.000Z</time>
      </trkpt>
      <trkpt lat="48.83286" lon="2.46708">
        <ele>60.400001525879</ele>
        <time>2016-09-12T19:23:12.000Z</time>
      </trkpt>
      <trkpt lat="48.83252" lon="2.46651">
        <ele>60.400001525879</ele>
        <time>2016-09-12T19:23:21.000Z</time>
      </trkpt>
      <trkpt lat="48.83213" lon="2.46612">
        <ele>60.799999237061</ele>
        <time>2016-09-12T19:23:29.000Z</time>
      </trkpt>
      <trkpt lat="48.83172" lon="2.4658">
        <ele>61.200000762939</ele>
        <time>2016-09-12T19:23:37.000Z</time>
      </trkpt>
      <trkpt lat="48.83149" lon="2.46567">
        <ele>61.400001525879</ele>
        <time>2016-09-12T19:23:41.000Z</time>
      </trkpt>
      <trkpt lat="48.83105" lon="2.46543">
        <ele>62</ele>
        <time>2016-09-12T19:23:48.000Z</time>
      </trkpt>
      <trkpt lat="48.83099" lon="2.46541">
        <ele>62</ele>
        <time>2016-09-12T19:23:49.000Z</time>
      </trkpt>
      <trkpt lat="48.83057" lon="2.46525">
        <ele>62</ele>
        <time>2016-09-12T19:23:56.000Z</time>
      </trkpt>
      <trkpt lat="48.83029" lon="2.46519">
        <ele>62.200000762939</ele>
        <time>2016-09-12T19:24:01.000Z</time>
      </trkpt>
      <trkpt lat="48.82981" lon="2.46507">
        <ele>61.200000762939</ele>
        <time>2016-09-12T19:24:09.000Z</time>
      </trkpt>
      <trkpt lat="48.82946" lon="2.46495">
        <ele>60</ele>
        <time>2016-09-12T19:24:14.000Z</time>
      </trkpt>
      <trkpt lat="48.829" lon="2.46488">
        <ele>60.400001525879</ele>
        <time>2016-09-12T19:24:21.000Z</time>
      </trkpt>
      <trkpt lat="48.82889" lon="2.4648">
        <ele>60.400001525879</ele>
        <time>2016-09-12T19:24:23.000Z</time>
      </trkpt>
      <trkpt lat="48.82841" lon="2.46478">
        <ele>60.799999237061</ele>
        <time>2016-09-12T19:24:30.000Z</time>
      </trkpt>
      <trkpt lat="48.82819" lon="2.46471">
        <ele>60.799999237061</ele>
        <time>2016-09-12T19:24:34.000Z</time>
      </trkpt>
      <trkpt lat="48.82801" lon="2.46471">
        <ele>61</ele>
        <time>2016-09-12T19:24:37.000Z</time>
      </trkpt>
      <trkpt lat="48.82777" lon="2.46473">
        <ele>61.400001525879</ele>
        <time>2016-09-12T19:24:41.000Z</time>
      </trkpt>
      <trkpt lat="48.82767" lon="2.46477">
        <ele>61.400001525879</ele>
        <time>2016-09-12T19:27:42.000Z</time>
      </trkpt>
      <trkpt lat="48.82761" lon="2.46475">
        <ele>61.200000762939</ele>
        <time>2016-09-12T19:28:22.000Z</time>
      </trkpt>
      <trkpt lat="48.82721" lon="2.46444">
        <ele>59.400001525879</ele>
        <time>2016-09-12T19:28:44.000Z</time>
      </trkpt>
      <trkpt lat="48.82716" lon="2.46446">
        <ele>59.200000762939</ele>
        <time>2016-09-12T19:28:45.000Z</time>
      </trkpt>
      <trkpt lat="48.82697" lon="2.46464">
        <ele>58</ele>
        <time>2016-09-12T19:28:52.000Z</time>
      </trkpt>
      <trkpt lat="48.82653" lon="2.46477">
        <ele>54.200000762939</ele>
        <time>2016-09-12T19:29:01.000Z</time>
      </trkpt>
      <trkpt lat="48.82604" lon="2.46487">
        <ele>50.200000762939</ele>
        <time>2016-09-12T19:29:08.000Z</time>
      </trkpt>
      <trkpt lat="48.82563" lon="2.46489">
        <ele>49.400001525879</ele>
        <time>2016-09-12T19:29:12.000Z</time>
      </trkpt>
      <trkpt lat="48.82539" lon="2.46491">
        <ele>49.200000762939</ele>
        <time>2016-09-12T19:29:14.000Z</time>
      </trkpt>
      <trkpt lat="48.82486" lon="2.46503">
        <ele>49.200000762939</ele>
        <time>2016-09-12T19:29:19.000Z</time>
      </trkpt>
      <trkpt lat="48.82432" lon="2.46514">
        <ele>49</ele>
        <time>2016-09-12T19:29:24.000Z</time>
      </trkpt>
      <trkpt lat="48.82384" lon="2.46528">
        <ele>49.599998474121</ele>
        <time>2016-09-12T19:29:29.000Z</time>
      </trkpt>
      <trkpt lat="48.8233" lon="2.46536">
        <ele>49.400001525879</ele>
        <time>2016-09-12T19:29:35.000Z</time>
      </trkpt>
      <trkpt lat="48.82285" lon="2.46536">
        <ele>49.599998474121</ele>
        <time>2016-09-12T19:29:41.000Z</time>
      </trkpt>
      <trkpt lat="48.82272" lon="2.46532">
        <ele>50.200000762939</ele>
        <time>2016-09-12T19:29:43.000Z</time>
      </trkpt>
      <trkpt lat="48.82231" lon="2.46502">
        <ele>52</ele>
        <time>2016-09-12T19:29:52.000Z</time>
      </trkpt>
      <trkpt lat="48.82213" lon="2.46489">
        <ele>52.799999237061</ele>
        <time>2016-09-12T19:29:57.000Z</time>
      </trkpt>
      <trkpt lat="48.82195" lon="2.46477">
        <ele>53.599998474121</ele>
        <time>2016-09-12T19:30:02.000Z</time>
      </trkpt>
      <trkpt lat="48.82153" lon="2.46459">
        <ele>54.400001525879</ele>
        <time>2016-09-12T19:30:11.000Z</time>
      </trkpt>
      <trkpt lat="48.82105" lon="2.46439">
        <ele>55.400001525879</ele>
        <time>2016-09-12T19:30:19.000Z</time>
      </trkpt>
      <trkpt lat="48.82059" lon="2.46424">
        <ele>54.799999237061</ele>
        <time>2016-09-12T19:30:27.000Z</time>
      </trkpt>
      <trkpt lat="48.82036" lon="2.46421">
        <ele>54.200000762939</ele>
        <time>2016-09-12T19:30:32.000Z</time>
      </trkpt>
      <trkpt lat="48.82028" lon="2.46424">
        <ele>54</ele>
        <time>2016-09-12T19:30:34.000Z</time>
      </trkpt>
      <trkpt lat="48.81987" lon="2.46461">
        <ele>54.599998474121</ele>
        <time>2016-09-12T19:30:49.000Z</time>
      </trkpt>
      <trkpt lat="48.8197" lon="2.46479">
        <ele>54.599998474121</ele>
        <time>2016-09-12T19:30:57.000Z</time>
      </trkpt>
      <trkpt lat="48.81967" lon="2.46475">
        <ele>54.400001525879</ele>
        <time>2016-09-12T19:31:18.000Z</time>
      </trkpt>
      <trkpt lat="48.81968" lon="2.46472">
        <ele>54.400001525879</ele>
        <time>2016-09-12T19:31:20.000Z</time>
      </trkpt>
      <trkpt lat="48.81995" lon="2.46431">
        <ele>54</ele>
        <time>2016-09-12T19:31:50.000Z</time>
      </trkpt>
      <trkpt lat="48.81984" lon="2.46413">
        <ele>53.599998474121</ele>
        <time>2016-09-12T19:31:56.000Z</time>
      </trkpt>
      <trkpt lat="48.81956" lon="2.46352">
        <ele>53.200000762939</ele>
        <time>2016-09-12T19:32:03.000Z</time>
      </trkpt>
      <trkpt lat="48.81939" lon="2.46308">
        <ele>53.400001525879</ele>
        <time>2016-09-12T19:32:08.000Z</time>
      </trkpt>
      <trkpt lat="48.81934" lon="2.46291">
        <ele>54</ele>
        <time>2016-09-12T19:32:10.000Z</time>
      </trkpt>
      <trkpt lat="48.81911" lon="2.46233">
        <ele>56.200000762939</ele>
        <time>2016-09-12T19:32:33.000Z</time>
      </trkpt>
      <trkpt lat="48.81954" lon="2.46198">
        <ele>54.799999237061</ele>
        <time>2016-09-12T19:32:48.000Z</time>
      </trkpt>
      <trkpt lat="48.81996" lon="2.46165">
        <ele>56</ele>
        <time>2016-09-12T19:32:59.000Z</time>
      </trkpt>
      <trkpt lat="48.82004" lon="2.46156">
        <ele>56.200000762939</ele>
        <time>2016-09-12T19:33:01.000Z</time>
      </trkpt>
      <trkpt lat="48.82014" lon="2.46137">
        <ele>56</ele>
        <time>2016-09-12T19:33:05.000Z</time>
      </trkpt>
      <trkpt lat="48.82046" lon="2.46088">
        <ele>54.400001525879</ele>
        <time>2016-09-12T19:33:14.000Z</time>
      </trkpt>
      <trkpt lat="48.8208" lon="2.46037">
        <ele>53</ele>
        <time>2016-09-12T19:33:22.000Z</time>
      </trkpt>
      <trkpt lat="48.82121" lon="2.45992">
        <ele>52.200000762939</ele>
        <time>2016-09-12T19:33:30.000Z</time>
      </trkpt>
      <trkpt lat="48.82142" lon="2.45973">
        <ele>53</ele>
        <time>2016-09-12T19:33:34.000Z</time>
      </trkpt>
      <trkpt lat="48.82182" lon="2.45937">
        <ele>53</ele>
        <time>2016-09-12T19:33:41.000Z</time>
      </trkpt>
      <trkpt lat="48.82225" lon="2.45903">
        <ele>51.799999237061</ele>
        <time>2016-09-12T19:33:48.000Z</time>
      </trkpt>
      <trkpt lat="48.82267" lon="2.45877">
        <ele>50.200000762939</ele>
        <time>2016-09-12T19:33:55.000Z</time>
      </trkpt>
      <trkpt lat="48.82291" lon="2.45858">
        <ele>50.799999237061</ele>
        <time>2016-09-12T19:33:59.000Z</time>
      </trkpt>
      <trkpt lat="48.8231" lon="2.45844">
        <ele>51.400001525879</ele>
        <time>2016-09-12T19:34:02.000Z</time>
      </trkpt>
      <trkpt lat="48.8235" lon="2.45812">
        <ele>52.400001525879</ele>
        <time>2016-09-12T19:34:09.000Z</time>
      </trkpt>
      <trkpt lat="48.82392" lon="2.45786">
        <ele>53.400001525879</ele>
        <time>2016-09-12T19:34:23.000Z</time>
      </trkpt>
      <trkpt lat="48.82393" lon="2.45779">
        <ele>53.200000762939</ele>
        <time>2016-09-12T19:34:45.000Z</time>
      </trkpt>
      <trkpt lat="48.82368" lon="2.45749">
        <ele>52.599998474121</ele>
        <time>2016-09-12T19:34:59.000Z</time>
      </trkpt>
      <trkpt lat="48.82361" lon="2.45736">
        <ele>52.799999237061</ele>
        <time>2016-09-12T19:35:02.000Z</time>
      </trkpt>
      <trkpt lat="48.82352" lon="2.45719">
        <ele>53.200000762939</ele>
        <time>2016-09-12T19:35:05.000Z</time>
      </trkpt>
      <trkpt lat="48.82318" lon="2.45667">
        <ele>55.200000762939</ele>
        <time>2016-09-12T19:35:14.000Z</time>
      </trkpt>
      <trkpt lat="48.82287" lon="2.4561">
        <ele>58.400001525879</ele>
        <time>2016-09-12T19:35:23.000Z</time>
      </trkpt>
      <trkpt lat="48.82259" lon="2.45556">
        <ele>60.400001525879</ele>
        <time>2016-09-12T19:35:32.000Z</time>
      </trkpt>
      <trkpt lat="48.82252" lon="2.45545">
        <ele>60.400001525879</ele>
        <time>2016-09-12T19:35:33.000Z</time>
      </trkpt>
      <trkpt lat="48.82222" lon="2.45487">
        <ele>61</ele>
        <time>2016-09-12T19:35:45.000Z</time>
      </trkpt>
      <trkpt lat="48.8219" lon="2.45431">
        <ele>61.200000762939</ele>
        <time>2016-09-12T19:35:56.000Z</time>
      </trkpt>
      <trkpt lat="48.8216" lon="2.45374">
        <ele>62.400001525879</ele>
        <time>2016-09-12T19:36:07.000Z</time>
      </trkpt>
      <trkpt lat="48.82138" lon="2.45318">
        <ele>64.199996948242</ele>
        <time>2016-09-12T19:36:18.000Z</time>
      </trkpt>
      <trkpt lat="48.8212" lon="2.45286">
        <ele>65.400001525879</ele>
        <time>2016-09-12T19:36:25.000Z</time>
      </trkpt>
      <trkpt lat="48.8211" lon="2.45265">
        <ele>66.400001525879</ele>
        <time>2016-09-12T19:36:29.000Z</time>
      </trkpt>
      <trkpt lat="48.82091" lon="2.45228">
        <ele>67</ele>
        <time>2016-09-12T19:36:36.000Z</time>
      </trkpt>
      <trkpt lat="48.8208" lon="2.45205">
        <ele>67.400001525879</ele>
        <time>2016-09-12T19:36:40.000Z</time>
      </trkpt>
      <trkpt lat="48.8206" lon="2.45164">
        <ele>68.199996948242</ele>
        <time>2016-09-12T19:36:47.000Z</time>
      </trkpt>
      <trkpt lat="48.82038" lon="2.45104">
        <ele>67.199996948242</ele>
        <time>2016-09-12T19:36:57.000Z</time>
      </trkpt>
      <trkpt lat="48.82018" lon="2.45037">
        <ele>67</ele>
        <time>2016-09-12T19:37:08.000Z</time>
      </trkpt>
      <trkpt lat="48.82016" lon="2.45019">
        <ele>67.400001525879</ele>
        <time>2016-09-12T19:37:10.000Z</time>
      </trkpt>
      <trkpt lat="48.82015" lon="2.44944">
        <ele>67</ele>
        <time>2016-09-12T19:37:21.000Z</time>
      </trkpt>
      <trkpt lat="48.82019" lon="2.44873">
        <ele>68</ele>
        <time>2016-09-12T19:37:30.000Z</time>
      </trkpt>
      <trkpt lat="48.82019" lon="2.44856">
        <ele>68.400001525879</ele>
        <time>2016-09-12T19:37:31.000Z</time>
      </trkpt>
      <trkpt lat="48.82021" lon="2.44801">
        <ele>69.400001525879</ele>
        <time>2016-09-12T19:37:38.000Z</time>
      </trkpt>
      <trkpt lat="48.8203" lon="2.44726">
        <ele>68.800003051758</ele>
        <time>2016-09-12T19:37:46.000Z</time>
      </trkpt>
      <trkpt lat="48.82037" lon="2.44655">
        <ele>67.599998474121</ele>
        <time>2016-09-12T19:37:52.000Z</time>
      </trkpt>
      <trkpt lat="48.82042" lon="2.44617">
        <ele>68.800003051758</ele>
        <time>2016-09-12T19:37:56.000Z</time>
      </trkpt>
      <trkpt lat="48.82042" lon="2.44554">
        <ele>69.599998474121</ele>
        <time>2016-09-12T19:38:05.000Z</time>
      </trkpt>
      <trkpt lat="48.82012" lon="2.44523">
        <ele>69.400001525879</ele>
        <time>2016-09-12T19:38:14.000Z</time>
      </trkpt>
      <trkpt lat="48.82" lon="2.44513">
        <ele>68.800003051758</ele>
        <time>2016-09-12T19:38:17.000Z</time>
      </trkpt>
      <trkpt lat="48.81989" lon="2.44502">
        <ele>68.199996948242</ele>
        <time>2016-09-12T19:38:20.000Z</time>
      </trkpt>
      <trkpt lat="48.8195" lon="2.44457">
        <ele>68.199996948242</ele>
        <time>2016-09-12T19:38:30.000Z</time>
      </trkpt>
      <trkpt lat="48.81913" lon="2.44417">
        <ele>63.400001525879</ele>
        <time>2016-09-12T19:38:39.000Z</time>
      </trkpt>
      <trkpt lat="48.8188" lon="2.44368">
        <ele>56.400001525879</ele>
        <time>2016-09-12T19:38:47.000Z</time>
      </trkpt>
      <trkpt lat="48.81873" lon="2.44353">
        <ele>54.799999237061</ele>
        <time>2016-09-12T19:38:48.000Z</time>
      </trkpt>
      <trkpt lat="48.81862" lon="2.44328">
        <ele>52.400001525879</ele>
        <time>2016-09-12T19:38:52.000Z</time>
      </trkpt>
      <trkpt lat="48.81857" lon="2.44288">
        <ele>50.799999237061</ele>
        <time>2016-09-12T19:38:56.000Z</time>
      </trkpt>
      <trkpt lat="48.81862" lon="2.44215">
        <ele>51.599998474121</ele>
        <time>2016-09-12T19:39:03.000Z</time>
      </trkpt>
      <trkpt lat="48.81865" lon="2.44187">
        <ele>52.200000762939</ele>
        <time>2016-09-12T19:39:06.000Z</time>
      </trkpt>
      <trkpt lat="48.81869" lon="2.44145">
        <ele>52.599998474121</ele>
        <time>2016-09-12T19:39:11.000Z</time>
      </trkpt>
      <trkpt lat="48.81872" lon="2.44083">
        <ele>52.599998474121</ele>
        <time>2016-09-12T19:39:18.000Z</time>
      </trkpt>
      <trkpt lat="48.81882" lon="2.4401">
        <ele>52.799999237061</ele>
        <time>2016-09-12T19:39:26.000Z</time>
      </trkpt>
      <trkpt lat="48.81888" lon="2.43974">
        <ele>53.400001525879</ele>
        <time>2016-09-12T19:39:30.000Z</time>
      </trkpt>
      <trkpt lat="48.81902" lon="2.43904">
        <ele>55.400001525879</ele>
        <time>2016-09-12T19:39:38.000Z</time>
      </trkpt>
      <trkpt lat="48.81919" lon="2.4384">
        <ele>58</ele>
        <time>2016-09-12T19:39:49.000Z</time>
      </trkpt>
      <trkpt lat="48.81919" lon="2.4385">
        <ele>58.200000762939</ele>
        <time>2016-09-12T19:40:01.000Z</time>
      </trkpt>
      <trkpt lat="48.81912" lon="2.43917">
        <ele>57.400001525879</ele>
        <time>2016-09-12T19:40:17.000Z</time>
      </trkpt>
      <trkpt lat="48.81907" lon="2.43947">
        <ele>57</ele>
        <time>2016-09-12T19:40:27.000Z</time>
      </trkpt>
      <trkpt lat="48.81905" lon="2.43941">
        <ele>56.400001525879</ele>
        <time>2016-09-12T19:40:35.000Z</time>
      </trkpt>
      <trkpt lat="48.81908" lon="2.43923">
        <ele>56.799999237061</ele>
        <time>2016-09-12T19:40:56.000Z</time>
      </trkpt>
      <trkpt lat="48.81921" lon="2.43856">
        <ele>58.599998474121</ele>
        <time>2016-09-12T19:41:11.000Z</time>
      </trkpt>
      <trkpt lat="48.8193" lon="2.43814">
        <ele>59.799999237061</ele>
        <time>2016-09-12T19:41:18.000Z</time>
      </trkpt>
      <trkpt lat="48.81941" lon="2.4377">
        <ele>61.400001525879</ele>
        <time>2016-09-12T19:41:25.000Z</time>
      </trkpt>
      <trkpt lat="48.81958" lon="2.43706">
        <ele>60.799999237061</ele>
        <time>2016-09-12T19:41:35.000Z</time>
      </trkpt>
      <trkpt lat="48.81962" lon="2.43693">
        <ele>60.599998474121</ele>
        <time>2016-09-12T19:41:36.000Z</time>
      </trkpt>
      <trkpt lat="48.81975" lon="2.43655">
        <ele>61.400001525879</ele>
        <time>2016-09-12T19:41:44.000Z</time>
      </trkpt>
      <trkpt lat="48.81984" lon="2.43628">
        <ele>62.400001525879</ele>
        <time>2016-09-12T19:41:49.000Z</time>
      </trkpt>
      <trkpt lat="48.8199" lon="2.43608">
        <ele>62.599998474121</ele>
        <time>2016-09-12T19:41:52.000Z</time>
      </trkpt>
      <trkpt lat="48.81995" lon="2.43593">
        <ele>62.799999237061</ele>
        <time>2016-09-12T19:41:54.000Z</time>
      </trkpt>
      <trkpt lat="48.82006" lon="2.43565">
        <ele>63.599998474121</ele>
        <time>2016-09-12T19:41:58.000Z</time>
      </trkpt>
      <trkpt lat="48.82035" lon="2.43502">
        <ele>66</ele>
        <time>2016-09-12T19:42:07.000Z</time>
      </trkpt>
      <trkpt lat="48.82067" lon="2.43444">
        <ele>67</ele>
        <time>2016-09-12T19:42:15.000Z</time>
      </trkpt>
      <trkpt lat="48.8209" lon="2.43411">
        <ele>66.400001525879</ele>
        <time>2016-09-12T19:42:20.000Z</time>
      </trkpt>
      <trkpt lat="48.82112" lon="2.43379">
        <ele>66</ele>
        <time>2016-09-12T19:42:25.000Z</time>
      </trkpt>
      <trkpt lat="48.82148" lon="2.43332">
        <ele>65.400001525879</ele>
        <time>2016-09-12T19:42:32.000Z</time>
      </trkpt>
      <trkpt lat="48.8217" lon="2.43306">
        <ele>65.400001525879</ele>
        <time>2016-09-12T19:42:36.000Z</time>
      </trkpt>
      <trkpt lat="48.82208" lon="2.43255">
        <ele>66.400001525879</ele>
        <time>2016-09-12T19:42:43.000Z</time>
      </trkpt>
      <trkpt lat="48.8224" lon="2.43205">
        <ele>65.400001525879</ele>
        <time>2016-09-12T19:42:49.000Z</time>
      </trkpt>
      <trkpt lat="48.8227" lon="2.43153">
        <ele>65.800003051758</ele>
        <time>2016-09-12T19:42:55.000Z</time>
      </trkpt>
      <trkpt lat="48.82294" lon="2.43108">
        <ele>63.799999237061</ele>
        <time>2016-09-12T19:43:00.000Z</time>
      </trkpt>
      <trkpt lat="48.82321" lon="2.43045">
        <ele>63.200000762939</ele>
        <time>2016-09-12T19:43:07.000Z</time>
      </trkpt>
      <trkpt lat="48.82341" lon="2.42976">
        <ele>63.400001525879</ele>
        <time>2016-09-12T19:43:15.000Z</time>
      </trkpt>
      <trkpt lat="48.82361" lon="2.42914">
        <ele>61</ele>
        <time>2016-09-12T19:43:24.000Z</time>
      </trkpt>
      <trkpt lat="48.82375" lon="2.42849">
        <ele>61.799999237061</ele>
        <time>2016-09-12T19:43:38.000Z</time>
      </trkpt>
      <trkpt lat="48.8239" lon="2.42784">
        <ele>59.799999237061</ele>
        <time>2016-09-12T19:43:49.000Z</time>
      </trkpt>
      <trkpt lat="48.82402" lon="2.42725">
        <ele>57.599998474121</ele>
        <time>2016-09-12T19:43:57.000Z</time>
      </trkpt>
      <trkpt lat="48.82407" lon="2.42692">
        <ele>56.599998474121</ele>
        <time>2016-09-12T19:44:01.000Z</time>
      </trkpt>
      <trkpt lat="48.82414" lon="2.42621">
        <ele>55.799999237061</ele>
        <time>2016-09-12T19:44:09.000Z</time>
      </trkpt>
      <trkpt lat="48.8242" lon="2.42547">
        <ele>55.400001525879</ele>
        <time>2016-09-12T19:44:17.000Z</time>
      </trkpt>
      <trkpt lat="48.82421" lon="2.42528">
        <ele>55.200000762939</ele>
        <time>2016-09-12T19:44:19.000Z</time>
      </trkpt>
      <trkpt lat="48.82419" lon="2.42452">
        <ele>55</ele>
        <time>2016-09-12T19:44:27.000Z</time>
      </trkpt>
      <trkpt lat="48.82415" lon="2.4238">
        <ele>56.400001525879</ele>
        <time>2016-09-12T19:44:35.000Z</time>
      </trkpt>
      <trkpt lat="48.82411" lon="2.42311">
        <ele>57</ele>
        <time>2016-09-12T19:44:43.000Z</time>
      </trkpt>
      <trkpt lat="48.82406" lon="2.42235">
        <ele>56.400001525879</ele>
        <time>2016-09-12T19:44:52.000Z</time>
      </trkpt>
      <trkpt lat="48.82403" lon="2.42163">
        <ele>55.400001525879</ele>
        <time>2016-09-12T19:45:00.000Z</time>
      </trkpt>
      <trkpt lat="48.82401" lon="2.42137">
        <ele>55.799999237061</ele>
        <time>2016-09-12T19:45:03.000Z</time>
      </trkpt>
      <trkpt lat="48.82397" lon="2.42068">
        <ele>57.200000762939</ele>
        <time>2016-09-12T19:45:11.000Z</time>
      </trkpt>
      <trkpt lat="48.82407" lon="2.42011">
        <ele>57.200000762939</ele>
        <time>2016-09-12T19:46:18.000Z</time>
      </trkpt>
      <trkpt lat="48.82448" lon="2.4201">
        <ele>55.599998474121</ele>
        <time>2016-09-12T19:46:30.000Z</time>
      </trkpt>
      <trkpt lat="48.82495" lon="2.41996">
        <ele>54.599998474121</ele>
        <time>2016-09-12T19:46:39.000Z</time>
      </trkpt>
      <trkpt lat="48.82529" lon="2.41984">
        <ele>54</ele>
        <time>2016-09-12T19:46:45.000Z</time>
      </trkpt>
      <trkpt lat="48.82563" lon="2.41974">
        <ele>53.799999237061</ele>
        <time>2016-09-12T19:46:51.000Z</time>
      </trkpt>
      <trkpt lat="48.82609" lon="2.41964">
        <ele>52.599998474121</ele>
        <time>2016-09-12T19:46:58.000Z</time>
      </trkpt>
      <trkpt lat="48.82658" lon="2.41954">
        <ele>51.599998474121</ele>
        <time>2016-09-12T19:47:05.000Z</time>
      </trkpt>
      <trkpt lat="48.82707" lon="2.41938">
        <ele>51.200000762939</ele>
        <time>2016-09-12T19:47:12.000Z</time>
      </trkpt>
      <trkpt lat="48.82742" lon="2.41928">
        <ele>52.200000762939</ele>
        <time>2016-09-12T19:47:17.000Z</time>
      </trkpt>
      <trkpt lat="48.82755" lon="2.41926">
        <ele>52.599998474121</ele>
        <time>2016-09-12T19:47:19.000Z</time>
      </trkpt>
      <trkpt lat="48.82803" lon="2.41927">
        <ele>53</ele>
        <time>2016-09-12T19:47:27.000Z</time>
      </trkpt>
      <trkpt lat="48.82831" lon="2.41923">
        <ele>52.400001525879</ele>
        <time>2016-09-12T19:47:44.000Z</time>
      </trkpt>
      <trkpt lat="48.82848" lon="2.41938">
        <ele>52.599998474121</ele>
        <time>2016-09-12T19:47:51.000Z</time>
      </trkpt>
      <trkpt lat="48.82892" lon="2.41971">
        <ele>53</ele>
        <time>2016-09-12T19:48:00.000Z</time>
      </trkpt>
      <trkpt lat="48.82936" lon="2.42003">
        <ele>53</ele>
        <time>2016-09-12T19:48:08.000Z</time>
      </trkpt>
      <trkpt lat="48.82964" lon="2.42018">
        <ele>53.200000762939</ele>
        <time>2016-09-12T19:48:13.000Z</time>
      </trkpt>
      <trkpt lat="48.83009" lon="2.42028">
        <ele>53.400001525879</ele>
        <time>2016-09-12T19:48:21.000Z</time>
      </trkpt>
      <trkpt lat="48.83056" lon="2.42033">
        <ele>53.799999237061</ele>
        <time>2016-09-12T19:48:29.000Z</time>
      </trkpt>
      <trkpt lat="48.83074" lon="2.42033">
        <ele>53.799999237061</ele>
        <time>2016-09-12T19:48:32.000Z</time>
      </trkpt>
      <trkpt lat="48.83108" lon="2.4203">
        <ele>53.799999237061</ele>
        <time>2016-09-12T19:48:38.000Z</time>
      </trkpt>
      <trkpt lat="48.83132" lon="2.42027">
        <ele>54</ele>
        <time>2016-09-12T19:48:42.000Z</time>
      </trkpt>
      <trkpt lat="48.83158" lon="2.42025">
        <ele>54</ele>
        <time>2016-09-12T19:48:46.000Z</time>
      </trkpt>
      <trkpt lat="48.83204" lon="2.42023">
        <ele>53.200000762939</ele>
        <time>2016-09-12T19:48:53.000Z</time>
      </trkpt>
      <trkpt lat="48.83251" lon="2.42018">
        <ele>52.200000762939</ele>
        <time>2016-09-12T19:49:00.000Z</time>
      </trkpt>
      <trkpt lat="48.83285" lon="2.42015">
        <ele>52.200000762939</ele>
        <time>2016-09-12T19:49:05.000Z</time>
      </trkpt>
      <trkpt lat="48.83333" lon="2.42018">
        <ele>53.200000762939</ele>
        <time>2016-09-12T19:49:12.000Z</time>
      </trkpt>
      <trkpt lat="48.8338" lon="2.4202">
        <ele>53.599998474121</ele>
        <time>2016-09-12T19:49:19.000Z</time>
      </trkpt>
      <trkpt lat="48.83407" lon="2.42019">
        <ele>53.799999237061</ele>
        <time>2016-09-12T19:49:23.000Z</time>
      </trkpt>
      <trkpt lat="48.83426" lon="2.42012">
        <ele>54.400001525879</ele>
        <time>2016-09-12T19:49:26.000Z</time>
      </trkpt>
      <trkpt lat="48.83472" lon="2.41989">
        <ele>54.799999237061</ele>
        <time>2016-09-12T19:49:35.000Z</time>
      </trkpt>
      <trkpt lat="48.83492" lon="2.41972">
        <ele>54.599998474121</ele>
        <time>2016-09-12T19:50:39.000Z</time>
      </trkpt>
      <trkpt lat="48.83528" lon="2.41953">
        <ele>54.599998474121</ele>
        <time>2016-09-12T19:50:52.000Z</time>
      </trkpt>
      <trkpt lat="48.83574" lon="2.41926">
        <ele>55.799999237061</ele>
        <time>2016-09-12T19:51:03.000Z</time>
      </trkpt>
      <trkpt lat="48.83617" lon="2.41898">
        <ele>57.200000762939</ele>
        <time>2016-09-12T19:51:13.000Z</time>
      </trkpt>
      <trkpt lat="48.83661" lon="2.41871">
        <ele>57.599998474121</ele>
        <time>2016-09-12T19:51:24.000Z</time>
      </trkpt>
      <trkpt lat="48.83705" lon="2.4185">
        <ele>57.799999237061</ele>
        <time>2016-09-12T19:51:37.000Z</time>
      </trkpt>
      <trkpt lat="48.83713" lon="2.41849">
        <ele>57.799999237061</ele>
        <time>2016-09-12T19:51:38.000Z</time>
      </trkpt>
      <trkpt lat="48.83722" lon="2.41842">
        <ele>57.599998474121</ele>
        <time>2016-09-12T19:51:42.000Z</time>
      </trkpt>
      <trkpt lat="48.83759" lon="2.41816">
        <ele>56.799999237061</ele>
        <time>2016-09-12T19:51:51.000Z</time>
      </trkpt>
      <trkpt lat="48.83781" lon="2.41801">
        <ele>56.599998474121</ele>
        <time>2016-09-12T19:51:56.000Z</time>
      </trkpt>
      <trkpt lat="48.8379" lon="2.41797">
        <ele>56.599998474121</ele>
        <time>2016-09-12T19:51:58.000Z</time>
      </trkpt>
      <trkpt lat="48.8384" lon="2.41784">
        <ele>56.799999237061</ele>
        <time>2016-09-12T19:52:07.000Z</time>
      </trkpt>
      <trkpt lat="48.83886" lon="2.41761">
        <ele>56.200000762939</ele>
        <time>2016-09-12T19:52:16.000Z</time>
      </trkpt>
      <trkpt lat="48.83896" lon="2.41767">
        <ele>56</ele>
        <time>2016-09-12T19:52:20.000Z</time>
      </trkpt>
      <trkpt lat="48.83905" lon="2.41761">
        <ele>55.799999237061</ele>
        <time>2016-09-12T19:52:30.000Z</time>
      </trkpt>
      <trkpt lat="48.83952" lon="2.41754">
        <ele>55</ele>
        <time>2016-09-12T19:52:43.000Z</time>
      </trkpt>
      <trkpt lat="48.84001" lon="2.41753">
        <ele>54.400001525879</ele>
        <time>2016-09-12T19:52:52.000Z</time>
      </trkpt>
      <trkpt lat="48.84051" lon="2.4176">
        <ele>53.799999237061</ele>
        <time>2016-09-12T19:53:00.000Z</time>
      </trkpt>
      <trkpt lat="48.84086" lon="2.41759">
        <ele>53.799999237061</ele>
        <time>2016-09-12T19:53:05.000Z</time>
      </trkpt>
      <trkpt lat="48.84133" lon="2.41753">
        <ele>52.799999237061</ele>
        <time>2016-09-12T19:53:11.000Z</time>
      </trkpt>
      <trkpt lat="48.84185" lon="2.41753">
        <ele>50.200000762939</ele>
        <time>2016-09-12T19:53:18.000Z</time>
      </trkpt>
      <trkpt lat="48.84231" lon="2.41754">
        <ele>51</ele>
        <time>2016-09-12T19:53:24.000Z</time>
      </trkpt>
      <trkpt lat="48.84276" lon="2.41759">
        <ele>52.200000762939</ele>
        <time>2016-09-12T19:53:31.000Z</time>
      </trkpt>
      <trkpt lat="48.84323" lon="2.41773">
        <ele>52</ele>
        <time>2016-09-12T19:53:38.000Z</time>
      </trkpt>
      <trkpt lat="48.84369" lon="2.4177">
        <ele>52</ele>
        <time>2016-09-12T19:54:08.000Z</time>
      </trkpt>
      <trkpt lat="48.84415" lon="2.41769">
        <ele>53.599998474121</ele>
        <time>2016-09-12T19:54:21.000Z</time>
      </trkpt>
      <trkpt lat="48.84461" lon="2.41766">
        <ele>55.400001525879</ele>
        <time>2016-09-12T19:54:29.000Z</time>
      </trkpt>
      <trkpt lat="48.84506" lon="2.41766">
        <ele>57.599998474121</ele>
        <time>2016-09-12T19:54:37.000Z</time>
      </trkpt>
      <trkpt lat="48.84555" lon="2.41767">
        <ele>58.200000762939</ele>
        <time>2016-09-12T19:54:46.000Z</time>
      </trkpt>
      <trkpt lat="48.84603" lon="2.41759">
        <ele>58.200000762939</ele>
        <time>2016-09-12T19:54:57.000Z</time>
      </trkpt>
      <trkpt lat="48.84649" lon="2.41769">
        <ele>57</ele>
        <time>2016-09-12T19:55:10.000Z</time>
      </trkpt>
      <trkpt lat="48.84655" lon="2.41766">
        <ele>56.400001525879</ele>
        <time>2016-09-12T19:55:11.000Z</time>
      </trkpt>
      <trkpt lat="48.84674" lon="2.41757">
        <ele>55.200000762939</ele>
        <time>2016-09-12T19:55:23.000Z</time>
      </trkpt>
      <trkpt lat="48.84661" lon="2.41698">
        <ele>55.799999237061</ele>
        <time>2016-09-12T19:55:36.000Z</time>
      </trkpt>
      <trkpt lat="48.84661" lon="2.41678">
        <ele>55</ele>
        <time>2016-09-12T19:55:39.000Z</time>
      </trkpt>
      <trkpt lat="48.84672" lon="2.41609">
        <ele>54.200000762939</ele>
        <time>2016-09-12T19:55:49.000Z</time>
      </trkpt>
      <trkpt lat="48.84676" lon="2.41583">
        <ele>54.599998474121</ele>
        <time>2016-09-12T19:55:53.000Z</time>
      </trkpt>
      <trkpt lat="48.84691" lon="2.41517">
        <ele>50.599998474121</ele>
        <time>2016-09-12T19:56:06.000Z</time>
      </trkpt>
      <trkpt lat="48.84712" lon="2.41457">
        <ele>48.400001525879</ele>
        <time>2016-09-12T19:56:20.000Z</time>
      </trkpt>
      <trkpt lat="48.84708" lon="2.41424">
        <ele>47.599998474121</ele>
        <time>2016-09-12T19:56:50.000Z</time>
      </trkpt>
      <trkpt lat="48.84697" lon="2.41386">
        <ele>49</ele>
        <time>2016-09-12T19:57:13.000Z</time>
      </trkpt>
      <trkpt lat="48.84697" lon="2.41373">
        <ele>49.799999237061</ele>
        <time>2016-09-12T19:59:03.000Z</time>
      </trkpt>
      <trkpt lat="48.84702" lon="2.41306">
        <ele>53</ele>
        <time>2016-09-12T19:59:18.000Z</time>
      </trkpt>
      <trkpt lat="48.84704" lon="2.41284">
        <ele>53.599998474121</ele>
        <time>2016-09-12T19:59:21.000Z</time>
      </trkpt>
      <trkpt lat="48.8471" lon="2.4121">
        <ele>54.200000762939</ele>
        <time>2016-09-12T19:59:31.000Z</time>
      </trkpt>
      <trkpt lat="48.84717" lon="2.41137">
        <ele>55</ele>
        <time>2016-09-12T19:59:44.000Z</time>
      </trkpt>
      <trkpt lat="48.84717" lon="2.41078">
        <ele>54.400001525879</ele>
        <time>2016-09-12T19:59:54.000Z</time>
      </trkpt>
      <trkpt lat="48.8472" lon="2.41045">
        <ele>54.799999237061</ele>
        <time>2016-09-12T19:59:59.000Z</time>
      </trkpt>
      <trkpt lat="48.84726" lon="2.4099">
        <ele>54.400001525879</ele>
        <time>2016-09-12T20:00:07.000Z</time>
      </trkpt>
      <trkpt lat="48.84728" lon="2.4097">
        <ele>54.799999237061</ele>
        <time>2016-09-12T20:00:10.000Z</time>
      </trkpt>
      <trkpt lat="48.8473" lon="2.40944">
        <ele>55.400001525879</ele>
        <time>2016-09-12T20:00:14.000Z</time>
      </trkpt>
      <trkpt lat="48.8473" lon="2.40926">
        <ele>56.200000762939</ele>
        <time>2016-09-12T20:00:17.000Z</time>
      </trkpt>
      <trkpt lat="48.84736" lon="2.40856">
        <ele>53.400001525879</ele>
        <time>2016-09-12T20:00:27.000Z</time>
      </trkpt>
      <trkpt lat="48.84739" lon="2.40823">
        <ele>52.799999237061</ele>
        <time>2016-09-12T20:00:31.000Z</time>
      </trkpt>
      <trkpt lat="48.84746" lon="2.4075">
        <ele>53</ele>
        <time>2016-09-12T20:00:40.000Z</time>
      </trkpt>
      <trkpt lat="48.84749" lon="2.40726">
        <ele>53.599998474121</ele>
        <time>2016-09-12T20:00:43.000Z</time>
      </trkpt>
      <trkpt lat="48.8475" lon="2.4071">
        <ele>53.400001525879</ele>
        <time>2016-09-12T20:00:45.000Z</time>
      </trkpt>
      <trkpt lat="48.84756" lon="2.40646">
        <ele>52.799999237061</ele>
        <time>2016-09-12T20:00:55.000Z</time>
      </trkpt>
      <trkpt lat="48.84761" lon="2.40578">
        <ele>54.400001525879</ele>
        <time>2016-09-12T20:01:05.000Z</time>
      </trkpt>
      <trkpt lat="48.84763" lon="2.40561">
        <ele>54.200000762939</ele>
        <time>2016-09-12T20:01:06.000Z</time>
      </trkpt>
      <trkpt lat="48.84764" lon="2.40553">
        <ele>54</ele>
        <time>2016-09-12T20:01:08.000Z</time>
      </trkpt>
      <trkpt lat="48.84765" lon="2.40537">
        <ele>53.799999237061</ele>
        <time>2016-09-12T20:01:09.000Z</time>
      </trkpt>
      <trkpt lat="48.84765" lon="2.40529">
        <ele>53.799999237061</ele>
        <time>2016-09-12T20:01:11.000Z</time>
      </trkpt>
      <trkpt lat="48.84773" lon="2.40456">
        <ele>55.599998474121</ele>
        <time>2016-09-12T20:01:20.000Z</time>
      </trkpt>
      <trkpt lat="48.84781" lon="2.40382">
        <ele>59</ele>
        <time>2016-09-12T20:01:28.000Z</time>
      </trkpt>
      <trkpt lat="48.84784" lon="2.40351">
        <ele>60</ele>
        <time>2016-09-12T20:01:31.000Z</time>
      </trkpt>
      <trkpt lat="48.84789" lon="2.40278">
        <ele>58.400001525879</ele>
        <time>2016-09-12T20:01:38.000Z</time>
      </trkpt>
      <trkpt lat="48.84795" lon="2.40203">
        <ele>57.200000762939</ele>
        <time>2016-09-12T20:01:45.000Z</time>
      </trkpt>
      <trkpt lat="48.848" lon="2.40135">
        <ele>58</ele>
        <time>2016-09-12T20:01:51.000Z</time>
      </trkpt>
      <trkpt lat="48.84805" lon="2.40058">
        <ele>57</ele>
        <time>2016-09-12T20:01:58.000Z</time>
      </trkpt>
      <trkpt lat="48.84808" lon="2.39984">
        <ele>54.599998474121</ele>
        <time>2016-09-12T20:02:05.000Z</time>
      </trkpt>
      <trkpt lat="48.84819" lon="2.39916">
        <ele>53.599998474121</ele>
        <time>2016-09-12T20:02:16.000Z</time>
      </trkpt>
      <trkpt lat="48.84822" lon="2.39869">
        <ele>57</ele>
        <time>2016-09-12T20:02:25.000Z</time>
      </trkpt>
      <trkpt lat="48.84829" lon="2.39796">
        <ele>57.799999237061</ele>
        <time>2016-09-12T20:02:36.000Z</time>
      </trkpt>
      <trkpt lat="48.8483" lon="2.3979">
        <ele>57.599998474121</ele>
        <time>2016-09-12T20:02:37.000Z</time>
      </trkpt>
      <trkpt lat="48.84831" lon="2.39756">
        <ele>56.799999237061</ele>
        <time>2016-09-12T20:02:43.000Z</time>
      </trkpt>
      <trkpt lat="48.84839" lon="2.397">
        <ele>54.400001525879</ele>
        <time>2016-09-12T20:02:53.000Z</time>
      </trkpt>
      <trkpt lat="48.84849" lon="2.39681">
        <ele>53</ele>
        <time>2016-09-12T20:02:56.000Z</time>
      </trkpt>
      <trkpt lat="48.84875" lon="2.39648">
        <ele>53.200000762939</ele>
        <time>2016-09-12T20:03:02.000Z</time>
      </trkpt>
      <trkpt lat="48.84894" lon="2.39595">
        <ele>53</ele>
        <time>2016-09-12T20:03:10.000Z</time>
      </trkpt>
      <trkpt lat="48.84895" lon="2.39582">
        <ele>52.400001525879</ele>
        <time>2016-09-12T20:03:12.000Z</time>
      </trkpt>
      <trkpt lat="48.84869" lon="2.39524">
        <ele>51.400001525879</ele>
        <time>2016-09-12T20:03:26.000Z</time>
      </trkpt>
      <trkpt lat="48.8486" lon="2.39465">
        <ele>53.200000762939</ele>
        <time>2016-09-12T20:03:43.000Z</time>
      </trkpt>
      <trkpt lat="48.84866" lon="2.39439">
        <ele>54.799999237061</ele>
        <time>2016-09-12T20:03:48.000Z</time>
      </trkpt>
      <trkpt lat="48.84874" lon="2.39371">
        <ele>56.400001525879</ele>
        <time>2016-09-12T20:03:57.000Z</time>
      </trkpt>
      <trkpt lat="48.84881" lon="2.39329">
        <ele>56.200000762939</ele>
        <time>2016-09-12T20:04:02.000Z</time>
      </trkpt>
      <trkpt lat="48.84888" lon="2.39255">
        <ele>53.400001525879</ele>
        <time>2016-09-12T20:04:10.000Z</time>
      </trkpt>
      <trkpt lat="48.84889" lon="2.39245">
        <ele>52.599998474121</ele>
        <time>2016-09-12T20:04:11.000Z</time>
      </trkpt>
      <trkpt lat="48.84899" lon="2.39174">
        <ele>50.200000762939</ele>
        <time>2016-09-12T20:04:17.000Z</time>
      </trkpt>
      <trkpt lat="48.84911" lon="2.39098">
        <ele>48</ele>
        <time>2016-09-12T20:04:23.000Z</time>
      </trkpt>
      <trkpt lat="48.84923" lon="2.39022">
        <ele>47.799999237061</ele>
        <time>2016-09-12T20:04:29.000Z</time>
      </trkpt>
      <trkpt lat="48.84936" lon="2.38952">
        <ele>48</ele>
        <time>2016-09-12T20:04:35.000Z</time>
      </trkpt>
      <trkpt lat="48.84955" lon="2.38879">
        <ele>46.599998474121</ele>
        <time>2016-09-12T20:04:42.000Z</time>
      </trkpt>
      <trkpt lat="48.8497" lon="2.3881">
        <ele>45</ele>
        <time>2016-09-12T20:04:48.000Z</time>
      </trkpt>
      <trkpt lat="48.8498" lon="2.38739">
        <ele>45.200000762939</ele>
        <time>2016-09-12T20:04:54.000Z</time>
      </trkpt>
      <trkpt lat="48.8499" lon="2.38669">
        <ele>44.400001525879</ele>
        <time>2016-09-12T20:05:00.000Z</time>
      </trkpt>
      <trkpt lat="48.84998" lon="2.38592">
        <ele>45.200000762939</ele>
        <time>2016-09-12T20:05:06.000Z</time>
      </trkpt>
      <trkpt lat="48.85007" lon="2.38523">
        <ele>45</ele>
        <time>2016-09-12T20:05:12.000Z</time>
      </trkpt>
      <trkpt lat="48.85019" lon="2.38451">
        <ele>43.400001525879</ele>
        <time>2016-09-12T20:05:22.000Z</time>
      </trkpt>
      <trkpt lat="48.85024" lon="2.38377">
        <ele>39.799999237061</ele>
        <time>2016-09-12T20:05:35.000Z</time>
      </trkpt>
      <trkpt lat="48.85024" lon="2.38364">
        <ele>39</ele>
        <time>2016-09-12T20:05:37.000Z</time>
      </trkpt>
      <trkpt lat="48.85031" lon="2.38292">
        <ele>39.599998474121</ele>
        <time>2016-09-12T20:05:47.000Z</time>
      </trkpt>
      <trkpt lat="48.85036" lon="2.38218">
        <ele>42.200000762939</ele>
        <time>2016-09-12T20:06:00.000Z</time>
      </trkpt>
      <trkpt lat="48.85044" lon="2.38157">
        <ele>42.799999237061</ele>
        <time>2016-09-12T20:06:08.000Z</time>
      </trkpt>
      <trkpt lat="48.85049" lon="2.38095">
        <ele>43.400001525879</ele>
        <time>2016-09-12T20:06:15.000Z</time>
      </trkpt>
      <trkpt lat="48.85046" lon="2.38033">
        <ele>41.599998474121</ele>
        <time>2016-09-12T20:06:22.000Z</time>
      </trkpt>
      <trkpt lat="48.85047" lon="2.38016">
        <ele>41.200000762939</ele>
        <time>2016-09-12T20:06:24.000Z</time>
      </trkpt>
      <trkpt lat="48.85052" lon="2.37973">
        <ele>40.599998474121</ele>
        <time>2016-09-12T20:06:30.000Z</time>
      </trkpt>
      <trkpt lat="48.85053" lon="2.37937">
        <ele>40.799999237061</ele>
        <time>2016-09-12T20:06:36.000Z</time>
      </trkpt>
      <trkpt lat="48.85053" lon="2.37923">
        <ele>40.799999237061</ele>
        <time>2016-09-12T20:06:38.000Z</time>
      </trkpt>
      <trkpt lat="48.85053" lon="2.37917">
        <ele>41</ele>
        <time>2016-09-12T20:06:39.000Z</time>
      </trkpt>
      <trkpt lat="48.85056" lon="2.379">
        <ele>41.200000762939</ele>
        <time>2016-09-12T20:06:41.000Z</time>
      </trkpt>
      <trkpt lat="48.8506" lon="2.37866">
        <ele>41.599998474121</ele>
        <time>2016-09-12T20:06:46.000Z</time>
      </trkpt>
      <trkpt lat="48.85076" lon="2.37817">
        <ele>42.200000762939</ele>
        <time>2016-09-12T20:06:52.000Z</time>
      </trkpt>
      <trkpt lat="48.85102" lon="2.37759">
        <ele>42.799999237061</ele>
        <time>2016-09-12T20:07:01.000Z</time>
      </trkpt>
      <trkpt lat="48.85107" lon="2.37744">
        <ele>43.200000762939</ele>
        <time>2016-09-12T20:07:56.000Z</time>
      </trkpt>
      <trkpt lat="48.85127" lon="2.37681">
        <ele>46</ele>
        <time>2016-09-12T20:08:11.000Z</time>
      </trkpt>
      <trkpt lat="48.8514" lon="2.37612">
        <ele>45</ele>
        <time>2016-09-12T20:08:31.000Z</time>
      </trkpt>
      <trkpt lat="48.85143" lon="2.37601">
        <ele>45</ele>
        <time>2016-09-12T20:08:33.000Z</time>
      </trkpt>
      <trkpt lat="48.85164" lon="2.37533">
        <ele>44.200000762939</ele>
        <time>2016-09-12T20:08:43.000Z</time>
      </trkpt>
      <trkpt lat="48.85181" lon="2.37469">
        <ele>44</ele>
        <time>2016-09-12T20:08:51.000Z</time>
      </trkpt>
      <trkpt lat="48.85197" lon="2.374">
        <ele>44</ele>
        <time>2016-09-12T20:08:59.000Z</time>
      </trkpt>
      <trkpt lat="48.85211" lon="2.37334">
        <ele>43.799999237061</ele>
        <time>2016-09-12T20:09:07.000Z</time>
      </trkpt>
      <trkpt lat="48.85226" lon="2.37269">
        <ele>42.799999237061</ele>
        <time>2016-09-12T20:09:15.000Z</time>
      </trkpt>
      <trkpt lat="48.85244" lon="2.37206">
        <ele>44.799999237061</ele>
        <time>2016-09-12T20:09:23.000Z</time>
      </trkpt>
      <trkpt lat="48.85247" lon="2.37199">
        <ele>44.400001525879</ele>
        <time>2016-09-12T20:09:24.000Z</time>
      </trkpt>
      <trkpt lat="48.85251" lon="2.37183">
        <ele>44</ele>
        <time>2016-09-12T20:09:26.000Z</time>
      </trkpt>
      <trkpt lat="48.85276" lon="2.37119">
        <ele>45.200000762939</ele>
        <time>2016-09-12T20:09:35.000Z</time>
      </trkpt>
      <trkpt lat="48.85303" lon="2.37062">
        <ele>46.200000762939</ele>
        <time>2016-09-12T20:09:44.000Z</time>
      </trkpt>
      <trkpt lat="48.85337" lon="2.37014">
        <ele>43.799999237061</ele>
        <time>2016-09-12T20:09:55.000Z</time>
      </trkpt>
      <trkpt lat="48.85339" lon="2.36989">
        <ele>43</ele>
        <time>2016-09-12T20:10:02.000Z</time>
      </trkpt>
      <trkpt lat="48.8535" lon="2.36983">
        <ele>42.200000762939</ele>
        <time>2016-09-12T20:10:11.000Z</time>
      </trkpt>
      <trkpt lat="48.85359" lon="2.36976">
        <ele>42.200000762939</ele>
        <time>2016-09-12T20:11:11.000Z</time>
      </trkpt>
      <trkpt lat="48.85369" lon="2.36959">
        <ele>42.400001525879</ele>
        <time>2016-09-12T20:11:18.000Z</time>
      </trkpt>
      <trkpt lat="48.85368" lon="2.36955">
        <ele>42.400001525879</ele>
        <time>2016-09-12T20:11:20.000Z</time>
      </trkpt>
      <trkpt lat="48.85369" lon="2.36946">
        <ele>42.400001525879</ele>
        <time>2016-09-12T20:11:23.000Z</time>
      </trkpt>
      <trkpt lat="48.85376" lon="2.36923">
        <ele>42.200000762939</ele>
        <time>2016-09-12T20:11:50.000Z</time>
      </trkpt>
      <trkpt lat="48.85376" lon="2.36914">
        <ele>42</ele>
        <time>2016-09-12T20:11:53.000Z</time>
      </trkpt>
      <trkpt lat="48.8538" lon="2.36898">
        <ele>42.799999237061</ele>
        <time>2016-09-12T20:11:59.000Z</time>
      </trkpt>
      <trkpt lat="48.8537" lon="2.36894">
        <ele>43.599998474121</ele>
        <time>2016-09-12T20:12:27.000Z</time>
      </trkpt>
      <trkpt lat="48.85386" lon="2.36826">
        <ele>47.599998474121</ele>
        <time>2016-09-12T20:12:42.000Z</time>
      </trkpt>
      <trkpt lat="48.85387" lon="2.36813">
        <ele>47.400001525879</ele>
        <time>2016-09-12T20:12:43.000Z</time>
      </trkpt>
      <trkpt lat="48.85385" lon="2.36752">
        <ele>47.599998474121</ele>
        <time>2016-09-12T20:12:54.000Z</time>
      </trkpt>
      <trkpt lat="48.85361" lon="2.36734">
        <ele>46.200000762939</ele>
        <time>2016-09-12T20:13:02.000Z</time>
      </trkpt>
      <trkpt lat="48.85357" lon="2.36728">
        <ele>45.799999237061</ele>
        <time>2016-09-12T20:13:04.000Z</time>
      </trkpt>
      <trkpt lat="48.85359" lon="2.36654">
        <ele>42.400001525879</ele>
        <time>2016-09-12T20:13:16.000Z</time>
      </trkpt>
      <trkpt lat="48.85376" lon="2.36589">
        <ele>43.799999237061</ele>
        <time>2016-09-12T20:13:25.000Z</time>
      </trkpt>
      <trkpt lat="48.85385" lon="2.36557">
        <ele>43.200000762939</ele>
        <time>2016-09-12T20:13:29.000Z</time>
      </trkpt>
      <trkpt lat="48.8539" lon="2.36534">
        <ele>43.200000762939</ele>
        <time>2016-09-12T20:13:32.000Z</time>
      </trkpt>
      <trkpt lat="48.85406" lon="2.36468">
        <ele>45</ele>
        <time>2016-09-12T20:13:40.000Z</time>
      </trkpt>
      <trkpt lat="48.85427" lon="2.36399">
        <ele>45.599998474121</ele>
        <time>2016-09-12T20:13:48.000Z</time>
      </trkpt>
      <trkpt lat="48.85451" lon="2.36331">
        <ele>44.799999237061</ele>
        <time>2016-09-12T20:13:56.000Z</time>
      </trkpt>
      <trkpt lat="48.85467" lon="2.36278">
        <ele>42.400001525879</ele>
        <time>2016-09-12T20:14:02.000Z</time>
      </trkpt>
      <trkpt lat="48.85489" lon="2.36214">
        <ele>42.200000762939</ele>
        <time>2016-09-12T20:14:10.000Z</time>
      </trkpt>
      <trkpt lat="48.85509" lon="2.36152">
        <ele>44.400001525879</ele>
        <time>2016-09-12T20:14:18.000Z</time>
      </trkpt>
      <trkpt lat="48.85514" lon="2.36136">
        <ele>44.400001525879</ele>
        <time>2016-09-12T20:14:19.000Z</time>
      </trkpt>
      <trkpt lat="48.85516" lon="2.36128">
        <ele>44.400001525879</ele>
        <time>2016-09-12T20:14:21.000Z</time>
      </trkpt>
      <trkpt lat="48.85534" lon="2.36061">
        <ele>44.400001525879</ele>
        <time>2016-09-12T20:14:29.000Z</time>
      </trkpt>
      <trkpt lat="48.85536" lon="2.36053">
        <ele>44.599998474121</ele>
        <time>2016-09-12T20:14:30.000Z</time>
      </trkpt>
      <trkpt lat="48.85554" lon="2.35989">
        <ele>45.200000762939</ele>
        <time>2016-09-12T20:14:38.000Z</time>
      </trkpt>
      <trkpt lat="48.8557" lon="2.35921">
        <ele>45.200000762939</ele>
        <time>2016-09-12T20:14:46.000Z</time>
      </trkpt>
      <trkpt lat="48.8558" lon="2.35876">
        <ele>44.400001525879</ele>
        <time>2016-09-12T20:14:51.000Z</time>
      </trkpt>
      <trkpt lat="48.85595" lon="2.35811">
        <ele>45</ele>
        <time>2016-09-12T20:14:58.000Z</time>
      </trkpt>
      <trkpt lat="48.85611" lon="2.35741">
        <ele>45</ele>
        <time>2016-09-12T20:15:06.000Z</time>
      </trkpt>
      <trkpt lat="48.85628" lon="2.35672">
        <ele>44.799999237061</ele>
        <time>2016-09-12T20:15:14.000Z</time>
      </trkpt>
      <trkpt lat="48.85647" lon="2.35601">
        <ele>44.400001525879</ele>
        <time>2016-09-12T20:15:22.000Z</time>
      </trkpt>
      <trkpt lat="48.85664" lon="2.35534">
        <ele>44.200000762939</ele>
        <time>2016-09-12T20:15:29.000Z</time>
      </trkpt>
      <trkpt lat="48.85682" lon="2.35466">
        <ele>46</ele>
        <time>2016-09-12T20:15:36.000Z</time>
      </trkpt>
      <trkpt lat="48.85694" lon="2.35419">
        <ele>45</ele>
        <time>2016-09-12T20:15:42.000Z</time>
      </trkpt>
      <trkpt lat="48.85698" lon="2.35393">
        <ele>46.400001525879</ele>
        <time>2016-09-12T20:15:46.000Z</time>
      </trkpt>
      <trkpt lat="48.85706" lon="2.35373">
        <ele>47.599998474121</ele>
        <time>2016-09-12T20:15:49.000Z</time>
      </trkpt>
      <trkpt lat="48.85714" lon="2.35351">
        <ele>49</ele>
        <time>2016-09-12T20:15:52.000Z</time>
      </trkpt>
      <trkpt lat="48.85734" lon="2.35284">
        <ele>49</ele>
        <time>2016-09-12T20:16:00.000Z</time>
      </trkpt>
      <trkpt lat="48.85743" lon="2.3522">
        <ele>43.799999237061</ele>
        <time>2016-09-12T20:16:08.000Z</time>
      </trkpt>
      <trkpt lat="48.85749" lon="2.35169">
        <ele>40.799999237061</ele>
        <time>2016-09-12T20:16:14.000Z</time>
      </trkpt>
      <trkpt lat="48.85754" lon="2.35152">
        <ele>40.200000762939</ele>
        <time>2016-09-12T20:16:16.000Z</time>
      </trkpt>
      <trkpt lat="48.85773" lon="2.35087">
        <ele>44.799999237061</ele>
        <time>2016-09-12T20:16:24.000Z</time>
      </trkpt>
      <trkpt lat="48.85795" lon="2.35019">
        <ele>48.200000762939</ele>
        <time>2016-09-12T20:16:32.000Z</time>
      </trkpt>
      <trkpt lat="48.85805" lon="2.34986">
        <ele>46.599998474121</ele>
        <time>2016-09-12T20:16:36.000Z</time>
      </trkpt>
      <trkpt lat="48.85824" lon="2.34925">
        <ele>45.200000762939</ele>
        <time>2016-09-12T20:16:43.000Z</time>
      </trkpt>
      <trkpt lat="48.85845" lon="2.34861">
        <ele>46.599998474121</ele>
        <time>2016-09-12T20:16:50.000Z</time>
      </trkpt>
      <trkpt lat="48.85868" lon="2.34799">
        <ele>47.599998474121</ele>
        <time>2016-09-12T20:16:57.000Z</time>
      </trkpt>
      <trkpt lat="48.85885" lon="2.34749">
        <ele>46</ele>
        <time>2016-09-12T20:17:03.000Z</time>
      </trkpt>
      <trkpt lat="48.85925" lon="2.34716">
        <ele>45.400001525879</ele>
        <time>2016-09-12T20:17:12.000Z</time>
      </trkpt>
      <trkpt lat="48.85956" lon="2.34716">
        <ele>45.400001525879</ele>
        <time>2016-09-12T20:17:25.000Z</time>
      </trkpt>
    </trkseg>
  </trk>
  <trk>
    <name><![CDATA[Rando Roller du lundi 19 septembre]]></name>
    <trkseg>
      <trkpt lat="48.85747" lon="2.34729">
        <ele>40.400001525879</ele>
        <time>2016-09-19T18:20:37.000Z</time>
      </trkpt>
      <trkpt lat="48.85738" lon="2.34724">
        <ele>40.400001525879</ele>
        <time>2016-09-19T18:20:52.000Z</time>
      </trkpt>
      <trkpt lat="48.85737" lon="2.34718">
        <ele>40.400001525879</ele>
        <time>2016-09-19T18:20:55.000Z</time>
      </trkpt>
      <trkpt lat="48.85737" lon="2.34705">
        <ele>40.200000762939</ele>
        <time>2016-09-19T18:21:00.000Z</time>
      </trkpt>
      <trkpt lat="48.85703" lon="2.34685">
        <ele>40.799999237061</ele>
        <time>2016-09-19T18:21:18.000Z</time>
      </trkpt>
      <trkpt lat="48.85661" lon="2.34658">
        <ele>43.400001525879</ele>
        <time>2016-09-19T18:21:57.000Z</time>
      </trkpt>
      <trkpt lat="48.85636" lon="2.34638">
        <ele>45.599998474121</ele>
        <time>2016-09-19T18:22:51.000Z</time>
      </trkpt>
      <trkpt lat="48.8559" lon="2.34614">
        <ele>47.799999237061</ele>
        <time>2016-09-19T18:23:08.000Z</time>
      </trkpt>
      <trkpt lat="48.85548" lon="2.34587">
        <ele>47.400001525879</ele>
        <time>2016-09-19T18:23:19.000Z</time>
      </trkpt>
      <trkpt lat="48.85506" lon="2.34554">
        <ele>45.400001525879</ele>
        <time>2016-09-19T18:23:30.000Z</time>
      </trkpt>
      <trkpt lat="48.85462" lon="2.34526">
        <ele>42.599998474121</ele>
        <time>2016-09-19T18:23:40.000Z</time>
      </trkpt>
      <trkpt lat="48.85442" lon="2.34501">
        <ele>41.200000762939</ele>
        <time>2016-09-19T18:23:45.000Z</time>
      </trkpt>
      <trkpt lat="48.85408" lon="2.34453">
        <ele>41.599998474121</ele>
        <time>2016-09-19T18:23:57.000Z</time>
      </trkpt>
      <trkpt lat="48.8539" lon="2.3443">
        <ele>42</ele>
        <time>2016-09-19T18:24:22.000Z</time>
      </trkpt>
      <trkpt lat="48.85357" lon="2.34379">
        <ele>45.200000762939</ele>
        <time>2016-09-19T18:24:36.000Z</time>
      </trkpt>
      <trkpt lat="48.85324" lon="2.34332">
        <ele>47.799999237061</ele>
        <time>2016-09-19T18:24:49.000Z</time>
      </trkpt>
      <trkpt lat="48.85308" lon="2.34324">
        <ele>48.200000762939</ele>
        <time>2016-09-19T18:25:00.000Z</time>
      </trkpt>
      <trkpt lat="48.85263" lon="2.34313">
        <ele>49</ele>
        <time>2016-09-19T18:25:17.000Z</time>
      </trkpt>
      <trkpt lat="48.85224" lon="2.34279">
        <ele>49</ele>
        <time>2016-09-19T18:25:34.000Z</time>
      </trkpt>
      <trkpt lat="48.85189" lon="2.34234">
        <ele>48.599998474121</ele>
        <time>2016-09-19T18:25:51.000Z</time>
      </trkpt>
      <trkpt lat="48.85184" lon="2.3422">
        <ele>48</ele>
        <time>2016-09-19T18:26:15.000Z</time>
      </trkpt>
      <trkpt lat="48.85183" lon="2.34218">
        <ele>48</ele>
        <time>2016-09-19T18:26:17.000Z</time>
      </trkpt>
      <trkpt lat="48.85146" lon="2.34181">
        <ele>46.599998474121</ele>
        <time>2016-09-19T18:26:30.000Z</time>
      </trkpt>
      <trkpt lat="48.85101" lon="2.34156">
        <ele>46.200000762939</ele>
        <time>2016-09-19T18:26:42.000Z</time>
      </trkpt>
      <trkpt lat="48.85097" lon="2.3415">
        <ele>46.400001525879</ele>
        <time>2016-09-19T18:26:45.000Z</time>
      </trkpt>
      <trkpt lat="48.85072" lon="2.34207">
        <ele>48.799999237061</ele>
        <time>2016-09-19T18:27:07.000Z</time>
      </trkpt>
      <trkpt lat="48.85047" lon="2.34248">
        <ele>51.799999237061</ele>
        <time>2016-09-19T18:27:26.000Z</time>
      </trkpt>
      <trkpt lat="48.8503" lon="2.34197">
        <ele>50.200000762939</ele>
        <time>2016-09-19T18:27:39.000Z</time>
      </trkpt>
      <trkpt lat="48.85017" lon="2.3413">
        <ele>49.799999237061</ele>
        <time>2016-09-19T18:27:51.000Z</time>
      </trkpt>
      <trkpt lat="48.85005" lon="2.3406">
        <ele>52.400001525879</ele>
        <time>2016-09-19T18:28:03.000Z</time>
      </trkpt>
      <trkpt lat="48.84993" lon="2.34008">
        <ele>55.400001525879</ele>
        <time>2016-09-19T18:28:16.000Z</time>
      </trkpt>
      <trkpt lat="48.84982" lon="2.34007">
        <ele>56.599998474121</ele>
        <time>2016-09-19T18:28:21.000Z</time>
      </trkpt>
      <trkpt lat="48.84937" lon="2.34027">
        <ele>59.200000762939</ele>
        <time>2016-09-19T18:28:34.000Z</time>
      </trkpt>
      <trkpt lat="48.84898" lon="2.34039">
        <ele>59.599998474121</ele>
        <time>2016-09-19T18:28:50.000Z</time>
      </trkpt>
      <trkpt lat="48.84854" lon="2.34059">
        <ele>60.599998474121</ele>
        <time>2016-09-19T18:29:06.000Z</time>
      </trkpt>
      <trkpt lat="48.84809" lon="2.34071">
        <ele>58.599998474121</ele>
        <time>2016-09-19T18:29:21.000Z</time>
      </trkpt>
      <trkpt lat="48.8476" lon="2.34079">
        <ele>58.200000762939</ele>
        <time>2016-09-19T18:29:44.000Z</time>
      </trkpt>
      <trkpt lat="48.84753" lon="2.34074">
        <ele>58</ele>
        <time>2016-09-19T18:29:57.000Z</time>
      </trkpt>
      <trkpt lat="48.84714" lon="2.34054">
        <ele>57.200000762939</ele>
        <time>2016-09-19T18:30:15.000Z</time>
      </trkpt>
      <trkpt lat="48.84671" lon="2.34038">
        <ele>58.599998474121</ele>
        <time>2016-09-19T18:30:30.000Z</time>
      </trkpt>
      <trkpt lat="48.84627" lon="2.34012">
        <ele>61</ele>
        <time>2016-09-19T18:30:40.000Z</time>
      </trkpt>
      <trkpt lat="48.84584" lon="2.33991">
        <ele>62.599998474121</ele>
        <time>2016-09-19T18:30:49.000Z</time>
      </trkpt>
      <trkpt lat="48.84541" lon="2.3397">
        <ele>62.799999237061</ele>
        <time>2016-09-19T18:30:58.000Z</time>
      </trkpt>
      <trkpt lat="48.84517" lon="2.33957">
        <ele>62.799999237061</ele>
        <time>2016-09-19T18:31:03.000Z</time>
      </trkpt>
      <trkpt lat="48.8447" lon="2.33937">
        <ele>62.799999237061</ele>
        <time>2016-09-19T18:31:11.000Z</time>
      </trkpt>
      <trkpt lat="48.84426" lon="2.33915">
        <ele>61.400001525879</ele>
        <time>2016-09-19T18:31:19.000Z</time>
      </trkpt>
      <trkpt lat="48.84381" lon="2.33888">
        <ele>61.200000762939</ele>
        <time>2016-09-19T18:31:30.000Z</time>
      </trkpt>
      <trkpt lat="48.84338" lon="2.3386">
        <ele>61.200000762939</ele>
        <time>2016-09-19T18:31:40.000Z</time>
      </trkpt>
      <trkpt lat="48.84295" lon="2.33837">
        <ele>61.400001525879</ele>
        <time>2016-09-19T18:31:49.000Z</time>
      </trkpt>
      <trkpt lat="48.84268" lon="2.3382">
        <ele>61.200000762939</ele>
        <time>2016-09-19T18:31:55.000Z</time>
      </trkpt>
      <trkpt lat="48.84258" lon="2.33815">
        <ele>61.599998474121</ele>
        <time>2016-09-19T18:31:57.000Z</time>
      </trkpt>
      <trkpt lat="48.84212" lon="2.33792">
        <ele>63.799999237061</ele>
        <time>2016-09-19T18:32:05.000Z</time>
      </trkpt>
      <trkpt lat="48.84167" lon="2.33771">
        <ele>63.799999237061</ele>
        <time>2016-09-19T18:32:12.000Z</time>
      </trkpt>
      <trkpt lat="48.84121" lon="2.33748">
        <ele>61.599998474121</ele>
        <time>2016-09-19T18:32:19.000Z</time>
      </trkpt>
      <trkpt lat="48.84073" lon="2.33733">
        <ele>61.799999237061</ele>
        <time>2016-09-19T18:32:27.000Z</time>
      </trkpt>
      <trkpt lat="48.84067" lon="2.33731">
        <ele>62</ele>
        <time>2016-09-19T18:32:28.000Z</time>
      </trkpt>
      <trkpt lat="48.84025" lon="2.33705">
        <ele>63</ele>
        <time>2016-09-19T18:32:40.000Z</time>
      </trkpt>
      <trkpt lat="48.84006" lon="2.33679">
        <ele>62.200000762939</ele>
        <time>2016-09-19T18:33:08.000Z</time>
      </trkpt>
      <trkpt lat="48.83989" lon="2.33663">
        <ele>61.599998474121</ele>
        <time>2016-09-19T18:34:05.000Z</time>
      </trkpt>
      <trkpt lat="48.83944" lon="2.33666">
        <ele>61</ele>
        <time>2016-09-19T18:34:21.000Z</time>
      </trkpt>
      <trkpt lat="48.83895" lon="2.33675">
        <ele>60.799999237061</ele>
        <time>2016-09-19T18:34:34.000Z</time>
      </trkpt>
      <trkpt lat="48.83849" lon="2.33681">
        <ele>60.400001525879</ele>
        <time>2016-09-19T18:34:46.000Z</time>
      </trkpt>
      <trkpt lat="48.83803" lon="2.33677">
        <ele>62.599998474121</ele>
        <time>2016-09-19T18:34:59.000Z</time>
      </trkpt>
      <trkpt lat="48.83786" lon="2.33677">
        <ele>63.400001525879</ele>
        <time>2016-09-19T18:35:03.000Z</time>
      </trkpt>
      <trkpt lat="48.83741" lon="2.33666">
        <ele>64</ele>
        <time>2016-09-19T18:35:14.000Z</time>
      </trkpt>
      <trkpt lat="48.83731" lon="2.33665">
        <ele>64</ele>
        <time>2016-09-19T18:35:28.000Z</time>
      </trkpt>
      <trkpt lat="48.83732" lon="2.3367">
        <ele>64</ele>
        <time>2016-09-19T18:36:02.000Z</time>
      </trkpt>
      <trkpt lat="48.83712" lon="2.33731">
        <ele>62.599998474121</ele>
        <time>2016-09-19T18:36:19.000Z</time>
      </trkpt>
      <trkpt lat="48.83692" lon="2.33796">
        <ele>60.400001525879</ele>
        <time>2016-09-19T18:36:32.000Z</time>
      </trkpt>
      <trkpt lat="48.83681" lon="2.33818">
        <ele>59.400001525879</ele>
        <time>2016-09-19T18:36:40.000Z</time>
      </trkpt>
      <trkpt lat="48.83636" lon="2.3379">
        <ele>60.599998474121</ele>
        <time>2016-09-19T18:36:53.000Z</time>
      </trkpt>
      <trkpt lat="48.83591" lon="2.33766">
        <ele>60.799999237061</ele>
        <time>2016-09-19T18:37:02.000Z</time>
      </trkpt>
      <trkpt lat="48.83544" lon="2.33744">
        <ele>59.200000762939</ele>
        <time>2016-09-19T18:37:11.000Z</time>
      </trkpt>
      <trkpt lat="48.83535" lon="2.33737">
        <ele>59</ele>
        <time>2016-09-19T18:37:13.000Z</time>
      </trkpt>
      <trkpt lat="48.83491" lon="2.33712">
        <ele>59.599998474121</ele>
        <time>2016-09-19T18:37:22.000Z</time>
      </trkpt>
      <trkpt lat="48.83477" lon="2.33704">
        <ele>60.200000762939</ele>
        <time>2016-09-19T18:37:28.000Z</time>
      </trkpt>
      <trkpt lat="48.83474" lon="2.33702">
        <ele>60.200000762939</ele>
        <time>2016-09-19T18:37:31.000Z</time>
      </trkpt>
      <trkpt lat="48.83459" lon="2.33684">
        <ele>61</ele>
        <time>2016-09-19T18:37:48.000Z</time>
      </trkpt>
      <trkpt lat="48.83416" lon="2.33663">
        <ele>62.200000762939</ele>
        <time>2016-09-19T18:38:02.000Z</time>
      </trkpt>
      <trkpt lat="48.83373" lon="2.3364">
        <ele>62.599998474121</ele>
        <time>2016-09-19T18:38:14.000Z</time>
      </trkpt>
      <trkpt lat="48.83331" lon="2.33615">
        <ele>63.599998474121</ele>
        <time>2016-09-19T18:38:24.000Z</time>
      </trkpt>
      <trkpt lat="48.83318" lon="2.33606">
        <ele>64.199996948242</ele>
        <time>2016-09-19T18:38:27.000Z</time>
      </trkpt>
      <trkpt lat="48.83275" lon="2.3358">
        <ele>65.800003051758</ele>
        <time>2016-09-19T18:38:37.000Z</time>
      </trkpt>
      <trkpt lat="48.83232" lon="2.33554">
        <ele>65.199996948242</ele>
        <time>2016-09-19T18:38:46.000Z</time>
      </trkpt>
      <trkpt lat="48.83185" lon="2.33526">
        <ele>64.199996948242</ele>
        <time>2016-09-19T18:38:54.000Z</time>
      </trkpt>
      <trkpt lat="48.83142" lon="2.33497">
        <ele>62.400001525879</ele>
        <time>2016-09-19T18:39:03.000Z</time>
      </trkpt>
      <trkpt lat="48.83101" lon="2.33462">
        <ele>61.200000762939</ele>
        <time>2016-09-19T18:39:15.000Z</time>
      </trkpt>
      <trkpt lat="48.83057" lon="2.33431">
        <ele>62.200000762939</ele>
        <time>2016-09-19T18:39:26.000Z</time>
      </trkpt>
      <trkpt lat="48.83019" lon="2.33404">
        <ele>63.200000762939</ele>
        <time>2016-09-19T18:39:43.000Z</time>
      </trkpt>
      <trkpt lat="48.82974" lon="2.33403">
        <ele>64.199996948242</ele>
        <time>2016-09-19T18:40:01.000Z</time>
      </trkpt>
      <trkpt lat="48.82934" lon="2.33367">
        <ele>65.199996948242</ele>
        <time>2016-09-19T18:40:16.000Z</time>
      </trkpt>
      <trkpt lat="48.82891" lon="2.3334">
        <ele>66.800003051758</ele>
        <time>2016-09-19T18:40:28.000Z</time>
      </trkpt>
      <trkpt lat="48.82883" lon="2.33336">
        <ele>67</ele>
        <time>2016-09-19T18:40:30.000Z</time>
      </trkpt>
      <trkpt lat="48.82838" lon="2.33306">
        <ele>69</ele>
        <time>2016-09-19T18:40:41.000Z</time>
      </trkpt>
      <trkpt lat="48.82796" lon="2.33274">
        <ele>71.400001525879</ele>
        <time>2016-09-19T18:40:53.000Z</time>
      </trkpt>
      <trkpt lat="48.82788" lon="2.33265">
        <ele>72</ele>
        <time>2016-09-19T18:41:12.000Z</time>
      </trkpt>
      <trkpt lat="48.82745" lon="2.33239">
        <ele>73.599998474121</ele>
        <time>2016-09-19T18:41:32.000Z</time>
      </trkpt>
      <trkpt lat="48.82713" lon="2.33222">
        <ele>74.599998474121</ele>
        <time>2016-09-19T18:41:46.000Z</time>
      </trkpt>
      <trkpt lat="48.82667" lon="2.33198">
        <ele>75.599998474121</ele>
        <time>2016-09-19T18:41:59.000Z</time>
      </trkpt>
      <trkpt lat="48.82654" lon="2.33195">
        <ele>75.400001525879</ele>
        <time>2016-09-19T18:42:02.000Z</time>
      </trkpt>
      <trkpt lat="48.8261" lon="2.33171">
        <ele>76</ele>
        <time>2016-09-19T18:42:18.000Z</time>
      </trkpt>
      <trkpt lat="48.8256" lon="2.33163">
        <ele>78.199996948242</ele>
        <time>2016-09-19T18:42:30.000Z</time>
      </trkpt>
      <trkpt lat="48.82524" lon="2.33141">
        <ele>79.400001525879</ele>
        <time>2016-09-19T18:42:37.000Z</time>
      </trkpt>
      <trkpt lat="48.82481" lon="2.33122">
        <ele>78.400001525879</ele>
        <time>2016-09-19T18:42:47.000Z</time>
      </trkpt>
      <trkpt lat="48.82432" lon="2.33114">
        <ele>76.400001525879</ele>
        <time>2016-09-19T18:42:58.000Z</time>
      </trkpt>
      <trkpt lat="48.8239" lon="2.33091">
        <ele>75.599998474121</ele>
        <time>2016-09-19T18:43:13.000Z</time>
      </trkpt>
      <trkpt lat="48.82369" lon="2.33088">
        <ele>75.199996948242</ele>
        <time>2016-09-19T18:43:24.000Z</time>
      </trkpt>
      <trkpt lat="48.82325" lon="2.33079">
        <ele>76.199996948242</ele>
        <time>2016-09-19T18:43:42.000Z</time>
      </trkpt>
      <trkpt lat="48.8228" lon="2.33062">
        <ele>78</ele>
        <time>2016-09-19T18:43:54.000Z</time>
      </trkpt>
      <trkpt lat="48.82235" lon="2.33062">
        <ele>79.599998474121</ele>
        <time>2016-09-19T18:44:11.000Z</time>
      </trkpt>
      <trkpt lat="48.8223" lon="2.33044">
        <ele>80.400001525879</ele>
        <time>2016-09-19T18:44:55.000Z</time>
      </trkpt>
      <trkpt lat="48.82186" lon="2.33019">
        <ele>82</ele>
        <time>2016-09-19T18:45:12.000Z</time>
      </trkpt>
      <trkpt lat="48.8214" lon="2.33005">
        <ele>79.199996948242</ele>
        <time>2016-09-19T18:45:22.000Z</time>
      </trkpt>
      <trkpt lat="48.82096" lon="2.32988">
        <ele>76.400001525879</ele>
        <time>2016-09-19T18:45:41.000Z</time>
      </trkpt>
      <trkpt lat="48.82101" lon="2.32997">
        <ele>77</ele>
        <time>2016-09-19T18:46:23.000Z</time>
      </trkpt>
      <trkpt lat="48.82095" lon="2.33025">
        <ele>77.599998474121</ele>
        <time>2016-09-19T18:47:05.000Z</time>
      </trkpt>
      <trkpt lat="48.82087" lon="2.33092">
        <ele>79.199996948242</ele>
        <time>2016-09-19T18:47:22.000Z</time>
      </trkpt>
      <trkpt lat="48.82073" lon="2.33148">
        <ele>80.400001525879</ele>
        <time>2016-09-19T18:47:41.000Z</time>
      </trkpt>
      <trkpt lat="48.82071" lon="2.33153">
        <ele>80.400001525879</ele>
        <time>2016-09-19T18:47:44.000Z</time>
      </trkpt>
      <trkpt lat="48.82062" lon="2.33187">
        <ele>80</ele>
        <time>2016-09-19T18:48:01.000Z</time>
      </trkpt>
      <trkpt lat="48.82049" lon="2.33256">
        <ele>80.800003051758</ele>
        <time>2016-09-19T18:48:31.000Z</time>
      </trkpt>
      <trkpt lat="48.82045" lon="2.33266">
        <ele>80.800003051758</ele>
        <time>2016-09-19T18:48:34.000Z</time>
      </trkpt>
      <trkpt lat="48.82035" lon="2.33302">
        <ele>82</ele>
        <time>2016-09-19T18:48:49.000Z</time>
      </trkpt>
      <trkpt lat="48.8203" lon="2.33319">
        <ele>82.599998474121</ele>
        <time>2016-09-19T18:49:13.000Z</time>
      </trkpt>
      <trkpt lat="48.82012" lon="2.33371">
        <ele>82.599998474121</ele>
        <time>2016-09-19T18:50:06.000Z</time>
      </trkpt>
      <trkpt lat="48.82003" lon="2.33382">
        <ele>82.599998474121</ele>
        <time>2016-09-19T18:50:16.000Z</time>
      </trkpt>
      <trkpt lat="48.81988" lon="2.33368">
        <ele>83</ele>
        <time>2016-09-19T18:50:31.000Z</time>
      </trkpt>
      <trkpt lat="48.81943" lon="2.33343">
        <ele>83.599998474121</ele>
        <time>2016-09-19T18:50:50.000Z</time>
      </trkpt>
      <trkpt lat="48.81899" lon="2.33317">
        <ele>82.400001525879</ele>
        <time>2016-09-19T18:51:01.000Z</time>
      </trkpt>
      <trkpt lat="48.81876" lon="2.33305">
        <ele>81.599998474121</ele>
        <time>2016-09-19T18:51:06.000Z</time>
      </trkpt>
      <trkpt lat="48.81837" lon="2.33287">
        <ele>81.599998474121</ele>
        <time>2016-09-19T18:51:14.000Z</time>
      </trkpt>
      <trkpt lat="48.81811" lon="2.33279">
        <ele>82.800003051758</ele>
        <time>2016-09-19T18:51:19.000Z</time>
      </trkpt>
      <trkpt lat="48.81766" lon="2.33257">
        <ele>84.400001525879</ele>
        <time>2016-09-19T18:51:30.000Z</time>
      </trkpt>
      <trkpt lat="48.81723" lon="2.33229">
        <ele>82.800003051758</ele>
        <time>2016-09-19T18:51:45.000Z</time>
      </trkpt>
      <trkpt lat="48.8171" lon="2.33207">
        <ele>81.800003051758</ele>
        <time>2016-09-19T18:52:38.000Z</time>
      </trkpt>
      <trkpt lat="48.81668" lon="2.33183">
        <ele>80</ele>
        <time>2016-09-19T18:53:10.000Z</time>
      </trkpt>
      <trkpt lat="48.81653" lon="2.33173">
        <ele>79.400001525879</ele>
        <time>2016-09-19T18:53:13.000Z</time>
      </trkpt>
      <trkpt lat="48.81608" lon="2.33139">
        <ele>77.800003051758</ele>
        <time>2016-09-19T18:53:21.000Z</time>
      </trkpt>
      <trkpt lat="48.81566" lon="2.33109">
        <ele>80.199996948242</ele>
        <time>2016-09-19T18:53:28.000Z</time>
      </trkpt>
      <trkpt lat="48.81525" lon="2.33078">
        <ele>82.800003051758</ele>
        <time>2016-09-19T18:53:35.000Z</time>
      </trkpt>
      <trkpt lat="48.8148" lon="2.33042">
        <ele>82.599998474121</ele>
        <time>2016-09-19T18:53:43.000Z</time>
      </trkpt>
      <trkpt lat="48.81441" lon="2.33004">
        <ele>82.199996948242</ele>
        <time>2016-09-19T18:53:52.000Z</time>
      </trkpt>
      <trkpt lat="48.81403" lon="2.32962">
        <ele>82</ele>
        <time>2016-09-19T18:54:02.000Z</time>
      </trkpt>
      <trkpt lat="48.81396" lon="2.32955">
        <ele>82</ele>
        <time>2016-09-19T18:54:04.000Z</time>
      </trkpt>
      <trkpt lat="48.81387" lon="2.32947">
        <ele>82</ele>
        <time>2016-09-19T18:54:06.000Z</time>
      </trkpt>
      <trkpt lat="48.81346" lon="2.32912">
        <ele>81.800003051758</ele>
        <time>2016-09-19T18:54:15.000Z</time>
      </trkpt>
      <trkpt lat="48.81332" lon="2.32901">
        <ele>81.800003051758</ele>
        <time>2016-09-19T18:54:18.000Z</time>
      </trkpt>
      <trkpt lat="48.8129" lon="2.32873">
        <ele>81.199996948242</ele>
        <time>2016-09-19T18:54:29.000Z</time>
      </trkpt>
      <trkpt lat="48.81257" lon="2.32826">
        <ele>80.599998474121</ele>
        <time>2016-09-19T18:54:42.000Z</time>
      </trkpt>
      <trkpt lat="48.81213" lon="2.32805">
        <ele>79.199996948242</ele>
        <time>2016-09-19T18:54:53.000Z</time>
      </trkpt>
      <trkpt lat="48.81189" lon="2.32795">
        <ele>78.400001525879</ele>
        <time>2016-09-19T18:54:59.000Z</time>
      </trkpt>
      <trkpt lat="48.81185" lon="2.32793">
        <ele>78.400001525879</ele>
        <time>2016-09-19T18:55:00.000Z</time>
      </trkpt>
      <trkpt lat="48.8117" lon="2.32785">
        <ele>78.800003051758</ele>
        <time>2016-09-19T18:55:03.000Z</time>
      </trkpt>
      <trkpt lat="48.81135" lon="2.32753">
        <ele>79.599998474121</ele>
        <time>2016-09-19T18:55:11.000Z</time>
      </trkpt>
      <trkpt lat="48.81097" lon="2.32717">
        <ele>80.199996948242</ele>
        <time>2016-09-19T18:55:26.000Z</time>
      </trkpt>
      <trkpt lat="48.81096" lon="2.32715">
        <ele>80.199996948242</ele>
        <time>2016-09-19T18:55:27.000Z</time>
      </trkpt>
      <trkpt lat="48.81094" lon="2.32711">
        <ele>80.199996948242</ele>
        <time>2016-09-19T18:55:29.000Z</time>
      </trkpt>
      <trkpt lat="48.81096" lon="2.32707">
        <ele>80.400001525879</ele>
        <time>2016-09-19T18:55:31.000Z</time>
      </trkpt>
      <trkpt lat="48.8109" lon="2.32705">
        <ele>80.400001525879</ele>
        <time>2016-09-19T18:57:57.000Z</time>
      </trkpt>
      <trkpt lat="48.81047" lon="2.3271">
        <ele>79.800003051758</ele>
        <time>2016-09-19T18:58:19.000Z</time>
      </trkpt>
      <trkpt lat="48.81008" lon="2.32733">
        <ele>78.800003051758</ele>
        <time>2016-09-19T18:58:46.000Z</time>
      </trkpt>
      <trkpt lat="48.80983" lon="2.32791">
        <ele>78</ele>
        <time>2016-09-19T18:59:00.000Z</time>
      </trkpt>
      <trkpt lat="48.80962" lon="2.32855">
        <ele>75.199996948242</ele>
        <time>2016-09-19T18:59:11.000Z</time>
      </trkpt>
      <trkpt lat="48.80945" lon="2.32909">
        <ele>75</ele>
        <time>2016-09-19T18:59:19.000Z</time>
      </trkpt>
      <trkpt lat="48.80923" lon="2.32974">
        <ele>74</ele>
        <time>2016-09-19T18:59:29.000Z</time>
      </trkpt>
      <trkpt lat="48.80918" lon="2.32987">
        <ele>73.400001525879</ele>
        <time>2016-09-19T18:59:31.000Z</time>
      </trkpt>
      <trkpt lat="48.80898" lon="2.33042">
        <ele>72</ele>
        <time>2016-09-19T18:59:39.000Z</time>
      </trkpt>
      <trkpt lat="48.80873" lon="2.33099">
        <ele>71.199996948242</ele>
        <time>2016-09-19T18:59:48.000Z</time>
      </trkpt>
      <trkpt lat="48.80869" lon="2.33113">
        <ele>70.599998474121</ele>
        <time>2016-09-19T18:59:50.000Z</time>
      </trkpt>
      <trkpt lat="48.80856" lon="2.33149">
        <ele>69.400001525879</ele>
        <time>2016-09-19T18:59:55.000Z</time>
      </trkpt>
      <trkpt lat="48.80838" lon="2.33212">
        <ele>68.800003051758</ele>
        <time>2016-09-19T19:00:03.000Z</time>
      </trkpt>
      <trkpt lat="48.80811" lon="2.33276">
        <ele>69</ele>
        <time>2016-09-19T19:00:11.000Z</time>
      </trkpt>
      <trkpt lat="48.80787" lon="2.33342">
        <ele>66.199996948242</ele>
        <time>2016-09-19T19:00:19.000Z</time>
      </trkpt>
      <trkpt lat="48.80775" lon="2.33378">
        <ele>64.400001525879</ele>
        <time>2016-09-19T19:00:23.000Z</time>
      </trkpt>
      <trkpt lat="48.80768" lon="2.33395">
        <ele>63.799999237061</ele>
        <time>2016-09-19T19:00:25.000Z</time>
      </trkpt>
      <trkpt lat="48.80747" lon="2.33461">
        <ele>63</ele>
        <time>2016-09-19T19:00:32.000Z</time>
      </trkpt>
      <trkpt lat="48.80724" lon="2.33526">
        <ele>61</ele>
        <time>2016-09-19T19:00:39.000Z</time>
      </trkpt>
      <trkpt lat="48.80706" lon="2.33585">
        <ele>58</ele>
        <time>2016-09-19T19:00:48.000Z</time>
      </trkpt>
      <trkpt lat="48.80698" lon="2.33623">
        <ele>55.200000762939</ele>
        <time>2016-09-19T19:00:53.000Z</time>
      </trkpt>
      <trkpt lat="48.80688" lon="2.33649">
        <ele>53</ele>
        <time>2016-09-19T19:00:56.000Z</time>
      </trkpt>
      <trkpt lat="48.80674" lon="2.33686">
        <ele>50.599998474121</ele>
        <time>2016-09-19T19:01:00.000Z</time>
      </trkpt>
      <trkpt lat="48.80639" lon="2.33743">
        <ele>47.400001525879</ele>
        <time>2016-09-19T19:01:07.000Z</time>
      </trkpt>
      <trkpt lat="48.80612" lon="2.33773">
        <ele>44.200000762939</ele>
        <time>2016-09-19T19:01:11.000Z</time>
      </trkpt>
      <trkpt lat="48.80595" lon="2.33785">
        <ele>43</ele>
        <time>2016-09-19T19:01:13.000Z</time>
      </trkpt>
      <trkpt lat="48.80576" lon="2.33792">
        <ele>42.200000762939</ele>
        <time>2016-09-19T19:01:15.000Z</time>
      </trkpt>
      <trkpt lat="48.80528" lon="2.338">
        <ele>43.400001525879</ele>
        <time>2016-09-19T19:01:20.000Z</time>
      </trkpt>
      <trkpt lat="48.80481" lon="2.33805">
        <ele>44.799999237061</ele>
        <time>2016-09-19T19:01:26.000Z</time>
      </trkpt>
      <trkpt lat="48.80435" lon="2.33802">
        <ele>46.799999237061</ele>
        <time>2016-09-19T19:01:37.000Z</time>
      </trkpt>
      <trkpt lat="48.80427" lon="2.33805">
        <ele>47.599998474121</ele>
        <time>2016-09-19T19:02:30.000Z</time>
      </trkpt>
      <trkpt lat="48.80379" lon="2.33813">
        <ele>52</ele>
        <time>2016-09-19T19:02:46.000Z</time>
      </trkpt>
      <trkpt lat="48.80332" lon="2.33817">
        <ele>56</ele>
        <time>2016-09-19T19:02:58.000Z</time>
      </trkpt>
      <trkpt lat="48.80308" lon="2.33824">
        <ele>57.599998474121</ele>
        <time>2016-09-19T19:03:04.000Z</time>
      </trkpt>
      <trkpt lat="48.80262" lon="2.33835">
        <ele>61</ele>
        <time>2016-09-19T19:03:15.000Z</time>
      </trkpt>
      <trkpt lat="48.80252" lon="2.33837">
        <ele>62</ele>
        <time>2016-09-19T19:03:17.000Z</time>
      </trkpt>
      <trkpt lat="48.80243" lon="2.33844">
        <ele>63.200000762939</ele>
        <time>2016-09-19T19:03:20.000Z</time>
      </trkpt>
      <trkpt lat="48.80214" lon="2.33895">
        <ele>65</ele>
        <time>2016-09-19T19:03:35.000Z</time>
      </trkpt>
      <trkpt lat="48.8022" lon="2.33962">
        <ele>66.199996948242</ele>
        <time>2016-09-19T19:03:49.000Z</time>
      </trkpt>
      <trkpt lat="48.8025" lon="2.34017">
        <ele>68.400001525879</ele>
        <time>2016-09-19T19:04:04.000Z</time>
      </trkpt>
      <trkpt lat="48.80286" lon="2.34063">
        <ele>70.599998474121</ele>
        <time>2016-09-19T19:04:21.000Z</time>
      </trkpt>
      <trkpt lat="48.80316" lon="2.34105">
        <ele>72</ele>
        <time>2016-09-19T19:04:38.000Z</time>
      </trkpt>
      <trkpt lat="48.80346" lon="2.34158">
        <ele>74</ele>
        <time>2016-09-19T19:04:59.000Z</time>
      </trkpt>
      <trkpt lat="48.80376" lon="2.34212">
        <ele>76.199996948242</ele>
        <time>2016-09-19T19:05:15.000Z</time>
      </trkpt>
      <trkpt lat="48.80407" lon="2.34264">
        <ele>78.199996948242</ele>
        <time>2016-09-19T19:05:29.000Z</time>
      </trkpt>
      <trkpt lat="48.8043" lon="2.34312">
        <ele>80.199996948242</ele>
        <time>2016-09-19T19:05:39.000Z</time>
      </trkpt>
      <trkpt lat="48.80445" lon="2.34344">
        <ele>81.400001525879</ele>
        <time>2016-09-19T19:05:45.000Z</time>
      </trkpt>
      <trkpt lat="48.80451" lon="2.34354">
        <ele>81.599998474121</ele>
        <time>2016-09-19T19:05:47.000Z</time>
      </trkpt>
      <trkpt lat="48.8048" lon="2.34408">
        <ele>82.800003051758</ele>
        <time>2016-09-19T19:05:59.000Z</time>
      </trkpt>
      <trkpt lat="48.80492" lon="2.34436">
        <ele>83</ele>
        <time>2016-09-19T19:07:48.000Z</time>
      </trkpt>
      <trkpt lat="48.80491" lon="2.34458">
        <ele>83</ele>
        <time>2016-09-19T19:07:56.000Z</time>
      </trkpt>
      <trkpt lat="48.80485" lon="2.3452">
        <ele>84.400001525879</ele>
        <time>2016-09-19T19:08:14.000Z</time>
      </trkpt>
      <trkpt lat="48.80498" lon="2.34566">
        <ele>85.400001525879</ele>
        <time>2016-09-19T19:08:25.000Z</time>
      </trkpt>
      <trkpt lat="48.80517" lon="2.34635">
        <ele>87.800003051758</ele>
        <time>2016-09-19T19:08:36.000Z</time>
      </trkpt>
      <trkpt lat="48.80535" lon="2.34704">
        <ele>89.400001525879</ele>
        <time>2016-09-19T19:08:46.000Z</time>
      </trkpt>
      <trkpt lat="48.8055" lon="2.34756">
        <ele>90.199996948242</ele>
        <time>2016-09-19T19:08:53.000Z</time>
      </trkpt>
      <trkpt lat="48.80558" lon="2.34808">
        <ele>91.800003051758</ele>
        <time>2016-09-19T19:09:00.000Z</time>
      </trkpt>
      <trkpt lat="48.8056" lon="2.34829">
        <ele>92.199996948242</ele>
        <time>2016-09-19T19:09:03.000Z</time>
      </trkpt>
      <trkpt lat="48.80565" lon="2.34855">
        <ele>92.400001525879</ele>
        <time>2016-09-19T19:09:07.000Z</time>
      </trkpt>
      <trkpt lat="48.80589" lon="2.34916">
        <ele>92.800003051758</ele>
        <time>2016-09-19T19:09:18.000Z</time>
      </trkpt>
      <trkpt lat="48.80614" lon="2.34975">
        <ele>94</ele>
        <time>2016-09-19T19:09:33.000Z</time>
      </trkpt>
      <trkpt lat="48.80636" lon="2.35035">
        <ele>95</ele>
        <time>2016-09-19T19:09:48.000Z</time>
      </trkpt>
      <trkpt lat="48.80648" lon="2.3507">
        <ele>96</ele>
        <time>2016-09-19T19:09:54.000Z</time>
      </trkpt>
      <trkpt lat="48.80671" lon="2.35135">
        <ele>96.400001525879</ele>
        <time>2016-09-19T19:10:05.000Z</time>
      </trkpt>
      <trkpt lat="48.80693" lon="2.35199">
        <ele>97.800003051758</ele>
        <time>2016-09-19T19:10:17.000Z</time>
      </trkpt>
      <trkpt lat="48.80714" lon="2.35261">
        <ele>100</ele>
        <time>2016-09-19T19:10:30.000Z</time>
      </trkpt>
      <trkpt lat="48.80721" lon="2.35298">
        <ele>100.40000152588</ele>
        <time>2016-09-19T19:10:35.000Z</time>
      </trkpt>
      <trkpt lat="48.80725" lon="2.35324">
        <ele>101.19999694824</ele>
        <time>2016-09-19T19:10:38.000Z</time>
      </trkpt>
      <trkpt lat="48.80731" lon="2.35393">
        <ele>99.199996948242</ele>
        <time>2016-09-19T19:10:47.000Z</time>
      </trkpt>
      <trkpt lat="48.80738" lon="2.35426">
        <ele>98.400001525879</ele>
        <time>2016-09-19T19:10:58.000Z</time>
      </trkpt>
      <trkpt lat="48.80722" lon="2.35367">
        <ele>100.40000152588</ele>
        <time>2016-09-19T19:11:12.000Z</time>
      </trkpt>
      <trkpt lat="48.80727" lon="2.35415">
        <ele>99.400001525879</ele>
        <time>2016-09-19T19:11:24.000Z</time>
      </trkpt>
      <trkpt lat="48.80741" lon="2.35481">
        <ele>99</ele>
        <time>2016-09-19T19:11:36.000Z</time>
      </trkpt>
      <trkpt lat="48.80752" lon="2.3555">
        <ele>98.800003051758</ele>
        <time>2016-09-19T19:12:05.000Z</time>
      </trkpt>
      <trkpt lat="48.80767" lon="2.35617">
        <ele>96</ele>
        <time>2016-09-19T19:12:17.000Z</time>
      </trkpt>
      <trkpt lat="48.80794" lon="2.35678">
        <ele>91.599998474121</ele>
        <time>2016-09-19T19:12:28.000Z</time>
      </trkpt>
      <trkpt lat="48.8083" lon="2.35726">
        <ele>87.599998474121</ele>
        <time>2016-09-19T19:12:37.000Z</time>
      </trkpt>
      <trkpt lat="48.80871" lon="2.3577">
        <ele>84.199996948242</ele>
        <time>2016-09-19T19:12:44.000Z</time>
      </trkpt>
      <trkpt lat="48.80911" lon="2.35808">
        <ele>81.599998474121</ele>
        <time>2016-09-19T19:12:50.000Z</time>
      </trkpt>
      <trkpt lat="48.8095" lon="2.35849">
        <ele>79.599998474121</ele>
        <time>2016-09-19T19:12:56.000Z</time>
      </trkpt>
      <trkpt lat="48.8097" lon="2.35874">
        <ele>79</ele>
        <time>2016-09-19T19:13:00.000Z</time>
      </trkpt>
      <trkpt lat="48.80977" lon="2.35889">
        <ele>78.599998474121</ele>
        <time>2016-09-19T19:13:02.000Z</time>
      </trkpt>
      <trkpt lat="48.80982" lon="2.35909">
        <ele>78.199996948242</ele>
        <time>2016-09-19T19:13:04.000Z</time>
      </trkpt>
      <trkpt lat="48.80981" lon="2.35941">
        <ele>75.800003051758</ele>
        <time>2016-09-19T19:13:07.000Z</time>
      </trkpt>
      <trkpt lat="48.80973" lon="2.36012">
        <ele>73.199996948242</ele>
        <time>2016-09-19T19:13:14.000Z</time>
      </trkpt>
      <trkpt lat="48.80972" lon="2.36028">
        <ele>73</ele>
        <time>2016-09-19T19:13:16.000Z</time>
      </trkpt>
      <trkpt lat="48.80971" lon="2.36059">
        <ele>73</ele>
        <time>2016-09-19T19:13:20.000Z</time>
      </trkpt>
      <trkpt lat="48.80965" lon="2.36126">
        <ele>73.800003051758</ele>
        <time>2016-09-19T19:13:28.000Z</time>
      </trkpt>
      <trkpt lat="48.80958" lon="2.36195">
        <ele>73</ele>
        <time>2016-09-19T19:13:40.000Z</time>
      </trkpt>
      <trkpt lat="48.8095" lon="2.36207">
        <ele>72.599998474121</ele>
        <time>2016-09-19T19:16:33.000Z</time>
      </trkpt>
      <trkpt lat="48.80951" lon="2.36212">
        <ele>72.400001525879</ele>
        <time>2016-09-19T19:16:36.000Z</time>
      </trkpt>
      <trkpt lat="48.80983" lon="2.36254">
        <ele>69.800003051758</ele>
        <time>2016-09-19T19:16:57.000Z</time>
      </trkpt>
      <trkpt lat="48.81021" lon="2.36294">
        <ele>67.400001525879</ele>
        <time>2016-09-19T19:17:10.000Z</time>
      </trkpt>
      <trkpt lat="48.81055" lon="2.3634">
        <ele>66.199996948242</ele>
        <time>2016-09-19T19:17:19.000Z</time>
      </trkpt>
      <trkpt lat="48.8109" lon="2.36387">
        <ele>64.199996948242</ele>
        <time>2016-09-19T19:17:27.000Z</time>
      </trkpt>
      <trkpt lat="48.81124" lon="2.36432">
        <ele>62.400001525879</ele>
        <time>2016-09-19T19:17:35.000Z</time>
      </trkpt>
      <trkpt lat="48.81144" lon="2.36463">
        <ele>61.400001525879</ele>
        <time>2016-09-19T19:17:40.000Z</time>
      </trkpt>
      <trkpt lat="48.81148" lon="2.36469">
        <ele>61.200000762939</ele>
        <time>2016-09-19T19:17:41.000Z</time>
      </trkpt>
      <trkpt lat="48.81171" lon="2.3653">
        <ele>60.599998474121</ele>
        <time>2016-09-19T19:17:49.000Z</time>
      </trkpt>
      <trkpt lat="48.81191" lon="2.36598">
        <ele>61.200000762939</ele>
        <time>2016-09-19T19:17:57.000Z</time>
      </trkpt>
      <trkpt lat="48.81197" lon="2.36624">
        <ele>61.400001525879</ele>
        <time>2016-09-19T19:18:00.000Z</time>
      </trkpt>
      <trkpt lat="48.81215" lon="2.36692">
        <ele>61.799999237061</ele>
        <time>2016-09-19T19:18:08.000Z</time>
      </trkpt>
      <trkpt lat="48.81235" lon="2.36761">
        <ele>63.200000762939</ele>
        <time>2016-09-19T19:18:17.000Z</time>
      </trkpt>
      <trkpt lat="48.81254" lon="2.36825">
        <ele>64.199996948242</ele>
        <time>2016-09-19T19:18:26.000Z</time>
      </trkpt>
      <trkpt lat="48.81273" lon="2.36892">
        <ele>64.800003051758</ele>
        <time>2016-09-19T19:18:36.000Z</time>
      </trkpt>
      <trkpt lat="48.81279" lon="2.36917">
        <ele>64.800003051758</ele>
        <time>2016-09-19T19:18:40.000Z</time>
      </trkpt>
      <trkpt lat="48.81287" lon="2.36941">
        <ele>64.599998474121</ele>
        <time>2016-09-19T19:18:44.000Z</time>
      </trkpt>
      <trkpt lat="48.81305" lon="2.37004">
        <ele>64.199996948242</ele>
        <time>2016-09-19T19:19:01.000Z</time>
      </trkpt>
      <trkpt lat="48.81306" lon="2.37006">
        <ele>64.199996948242</ele>
        <time>2016-09-19T19:19:12.000Z</time>
      </trkpt>
      <trkpt lat="48.81313" lon="2.37079">
        <ele>63</ele>
        <time>2016-09-19T19:19:27.000Z</time>
      </trkpt>
      <trkpt lat="48.8134" lon="2.37142">
        <ele>63</ele>
        <time>2016-09-19T19:19:39.000Z</time>
      </trkpt>
      <trkpt lat="48.81351" lon="2.37171">
        <ele>63.200000762939</ele>
        <time>2016-09-19T19:19:44.000Z</time>
      </trkpt>
      <trkpt lat="48.81368" lon="2.37212">
        <ele>64</ele>
        <time>2016-09-19T19:19:51.000Z</time>
      </trkpt>
      <trkpt lat="48.81374" lon="2.3723">
        <ele>64.400001525879</ele>
        <time>2016-09-19T19:19:54.000Z</time>
      </trkpt>
      <trkpt lat="48.8138" lon="2.37241">
        <ele>64.599998474121</ele>
        <time>2016-09-19T19:19:56.000Z</time>
      </trkpt>
      <trkpt lat="48.81408" lon="2.37304">
        <ele>65</ele>
        <time>2016-09-19T19:20:04.000Z</time>
      </trkpt>
      <trkpt lat="48.81416" lon="2.37319">
        <ele>65</ele>
        <time>2016-09-19T19:20:06.000Z</time>
      </trkpt>
      <trkpt lat="48.81423" lon="2.37335">
        <ele>65</ele>
        <time>2016-09-19T19:20:08.000Z</time>
      </trkpt>
      <trkpt lat="48.81447" lon="2.37392">
        <ele>64.599998474121</ele>
        <time>2016-09-19T19:20:15.000Z</time>
      </trkpt>
      <trkpt lat="48.81479" lon="2.37454">
        <ele>63.599998474121</ele>
        <time>2016-09-19T19:20:22.000Z</time>
      </trkpt>
      <trkpt lat="48.81509" lon="2.37511">
        <ele>62.400001525879</ele>
        <time>2016-09-19T19:20:29.000Z</time>
      </trkpt>
      <trkpt lat="48.81529" lon="2.37563">
        <ele>61.200000762939</ele>
        <time>2016-09-19T19:21:20.000Z</time>
      </trkpt>
      <trkpt lat="48.81558" lon="2.3762">
        <ele>60.200000762939</ele>
        <time>2016-09-19T19:21:34.000Z</time>
      </trkpt>
      <trkpt lat="48.81572" lon="2.3765">
        <ele>59.599998474121</ele>
        <time>2016-09-19T19:21:40.000Z</time>
      </trkpt>
      <trkpt lat="48.81599" lon="2.37707">
        <ele>57.599998474121</ele>
        <time>2016-09-19T19:21:51.000Z</time>
      </trkpt>
      <trkpt lat="48.81599" lon="2.37718">
        <ele>57.200000762939</ele>
        <time>2016-09-19T19:21:56.000Z</time>
      </trkpt>
      <trkpt lat="48.81593" lon="2.37723">
        <ele>57</ele>
        <time>2016-09-19T19:21:59.000Z</time>
      </trkpt>
      <trkpt lat="48.81552" lon="2.37756">
        <ele>57</ele>
        <time>2016-09-19T19:22:19.000Z</time>
      </trkpt>
      <trkpt lat="48.81536" lon="2.37778">
        <ele>56.400001525879</ele>
        <time>2016-09-19T19:22:29.000Z</time>
      </trkpt>
      <trkpt lat="48.81502" lon="2.3783">
        <ele>55</ele>
        <time>2016-09-19T19:22:47.000Z</time>
      </trkpt>
      <trkpt lat="48.8147" lon="2.37864">
        <ele>54.200000762939</ele>
        <time>2016-09-19T19:22:57.000Z</time>
      </trkpt>
      <trkpt lat="48.81433" lon="2.37909">
        <ele>55.400001525879</ele>
        <time>2016-09-19T19:23:08.000Z</time>
      </trkpt>
      <trkpt lat="48.81402" lon="2.37958">
        <ele>51.599998474121</ele>
        <time>2016-09-19T19:23:20.000Z</time>
      </trkpt>
      <trkpt lat="48.81365" lon="2.38002">
        <ele>51</ele>
        <time>2016-09-19T19:23:31.000Z</time>
      </trkpt>
      <trkpt lat="48.81332" lon="2.38047">
        <ele>49.200000762939</ele>
        <time>2016-09-19T19:23:41.000Z</time>
      </trkpt>
      <trkpt lat="48.81298" lon="2.38094">
        <ele>48</ele>
        <time>2016-09-19T19:24:16.000Z</time>
      </trkpt>
      <trkpt lat="48.81304" lon="2.38136">
        <ele>45.200000762939</ele>
        <time>2016-09-19T19:26:25.000Z</time>
      </trkpt>
      <trkpt lat="48.81322" lon="2.38176">
        <ele>41.599998474121</ele>
        <time>2016-09-19T19:26:34.000Z</time>
      </trkpt>
      <trkpt lat="48.8133" lon="2.3819">
        <ele>40.400001525879</ele>
        <time>2016-09-19T19:26:36.000Z</time>
      </trkpt>
      <trkpt lat="48.81359" lon="2.38246">
        <ele>36</ele>
        <time>2016-09-19T19:26:44.000Z</time>
      </trkpt>
      <trkpt lat="48.81373" lon="2.38285">
        <ele>36.599998474121</ele>
        <time>2016-09-19T19:27:25.000Z</time>
      </trkpt>
      <trkpt lat="48.81331" lon="2.38321">
        <ele>38</ele>
        <time>2016-09-19T19:27:39.000Z</time>
      </trkpt>
      <trkpt lat="48.81304" lon="2.38352">
        <ele>37.400001525879</ele>
        <time>2016-09-19T19:27:47.000Z</time>
      </trkpt>
      <trkpt lat="48.8129" lon="2.38368">
        <ele>37.599998474121</ele>
        <time>2016-09-19T19:27:51.000Z</time>
      </trkpt>
      <trkpt lat="48.81284" lon="2.38376">
        <ele>38</ele>
        <time>2016-09-19T19:27:53.000Z</time>
      </trkpt>
      <trkpt lat="48.8126" lon="2.38396">
        <ele>38.799999237061</ele>
        <time>2016-09-19T19:27:59.000Z</time>
      </trkpt>
      <trkpt lat="48.81219" lon="2.38438">
        <ele>38.799999237061</ele>
        <time>2016-09-19T19:28:10.000Z</time>
      </trkpt>
      <trkpt lat="48.81184" lon="2.38479">
        <ele>40.799999237061</ele>
        <time>2016-09-19T19:28:32.000Z</time>
      </trkpt>
      <trkpt lat="48.81199" lon="2.38542">
        <ele>40.799999237061</ele>
        <time>2016-09-19T19:28:45.000Z</time>
      </trkpt>
      <trkpt lat="48.81208" lon="2.38553">
        <ele>40.200000762939</ele>
        <time>2016-09-19T19:28:48.000Z</time>
      </trkpt>
      <trkpt lat="48.81217" lon="2.38559">
        <ele>39.599998474121</ele>
        <time>2016-09-19T19:28:50.000Z</time>
      </trkpt>
      <trkpt lat="48.81223" lon="2.38567">
        <ele>39.400001525879</ele>
        <time>2016-09-19T19:28:52.000Z</time>
      </trkpt>
      <trkpt lat="48.81238" lon="2.38608">
        <ele>38.400001525879</ele>
        <time>2016-09-19T19:28:59.000Z</time>
      </trkpt>
      <trkpt lat="48.81253" lon="2.38656">
        <ele>37.200000762939</ele>
        <time>2016-09-19T19:29:06.000Z</time>
      </trkpt>
      <trkpt lat="48.81263" lon="2.38681">
        <ele>36.400001525879</ele>
        <time>2016-09-19T19:29:10.000Z</time>
      </trkpt>
      <trkpt lat="48.81292" lon="2.38734">
        <ele>35.400001525879</ele>
        <time>2016-09-19T19:29:19.000Z</time>
      </trkpt>
      <trkpt lat="48.81318" lon="2.38798">
        <ele>34.400001525879</ele>
        <time>2016-09-19T19:29:30.000Z</time>
      </trkpt>
      <trkpt lat="48.81333" lon="2.38837">
        <ele>34</ele>
        <time>2016-09-19T19:29:38.000Z</time>
      </trkpt>
      <trkpt lat="48.81345" lon="2.38862">
        <ele>34</ele>
        <time>2016-09-19T19:29:43.000Z</time>
      </trkpt>
      <trkpt lat="48.81361" lon="2.38899">
        <ele>34</ele>
        <time>2016-09-19T19:29:50.000Z</time>
      </trkpt>
      <trkpt lat="48.81366" lon="2.38911">
        <ele>33.799999237061</ele>
        <time>2016-09-19T19:29:52.000Z</time>
      </trkpt>
      <trkpt lat="48.81376" lon="2.38926">
        <ele>34</ele>
        <time>2016-09-19T19:29:55.000Z</time>
      </trkpt>
      <trkpt lat="48.8139" lon="2.38947">
        <ele>34.400001525879</ele>
        <time>2016-09-19T19:29:59.000Z</time>
      </trkpt>
      <trkpt lat="48.814" lon="2.38959">
        <ele>34.599998474121</ele>
        <time>2016-09-19T19:30:02.000Z</time>
      </trkpt>
      <trkpt lat="48.81415" lon="2.38978">
        <ele>34.799999237061</ele>
        <time>2016-09-19T19:30:06.000Z</time>
      </trkpt>
      <trkpt lat="48.81431" lon="2.39001">
        <ele>35</ele>
        <time>2016-09-19T19:30:10.000Z</time>
      </trkpt>
      <trkpt lat="48.81446" lon="2.39019">
        <ele>34.799999237061</ele>
        <time>2016-09-19T19:30:14.000Z</time>
      </trkpt>
      <trkpt lat="48.81455" lon="2.39027">
        <ele>34.599998474121</ele>
        <time>2016-09-19T19:30:16.000Z</time>
      </trkpt>
      <trkpt lat="48.81463" lon="2.39039">
        <ele>34.400001525879</ele>
        <time>2016-09-19T19:30:18.000Z</time>
      </trkpt>
      <trkpt lat="48.8148" lon="2.39074">
        <ele>34</ele>
        <time>2016-09-19T19:30:23.000Z</time>
      </trkpt>
      <trkpt lat="48.8149" lon="2.39095">
        <ele>34.200000762939</ele>
        <time>2016-09-19T19:30:26.000Z</time>
      </trkpt>
      <trkpt lat="48.81516" lon="2.39155">
        <ele>35</ele>
        <time>2016-09-19T19:30:34.000Z</time>
      </trkpt>
      <trkpt lat="48.81536" lon="2.39223">
        <ele>34.400001525879</ele>
        <time>2016-09-19T19:30:41.000Z</time>
      </trkpt>
      <trkpt lat="48.81554" lon="2.39286">
        <ele>33.799999237061</ele>
        <time>2016-09-19T19:30:50.000Z</time>
      </trkpt>
      <trkpt lat="48.81558" lon="2.39303">
        <ele>33.599998474121</ele>
        <time>2016-09-19T19:30:53.000Z</time>
      </trkpt>
      <trkpt lat="48.81572" lon="2.39351">
        <ele>33.599998474121</ele>
        <time>2016-09-19T19:31:01.000Z</time>
      </trkpt>
      <trkpt lat="48.81603" lon="2.39407">
        <ele>34</ele>
        <time>2016-09-19T19:31:12.000Z</time>
      </trkpt>
      <trkpt lat="48.81632" lon="2.39464">
        <ele>33.400001525879</ele>
        <time>2016-09-19T19:31:23.000Z</time>
      </trkpt>
      <trkpt lat="48.81658" lon="2.3951">
        <ele>33.200000762939</ele>
        <time>2016-09-19T19:33:53.000Z</time>
      </trkpt>
      <trkpt lat="48.81661" lon="2.39512">
        <ele>33.200000762939</ele>
        <time>2016-09-19T19:33:56.000Z</time>
      </trkpt>
      <trkpt lat="48.81692" lon="2.39565">
        <ele>33.799999237061</ele>
        <time>2016-09-19T19:34:14.000Z</time>
      </trkpt>
      <trkpt lat="48.81722" lon="2.39621">
        <ele>34.799999237061</ele>
        <time>2016-09-19T19:34:28.000Z</time>
      </trkpt>
      <trkpt lat="48.81733" lon="2.39644">
        <ele>35</ele>
        <time>2016-09-19T19:34:33.000Z</time>
      </trkpt>
      <trkpt lat="48.81765" lon="2.39695">
        <ele>35.400001525879</ele>
        <time>2016-09-19T19:34:44.000Z</time>
      </trkpt>
      <trkpt lat="48.81795" lon="2.39747">
        <ele>35</ele>
        <time>2016-09-19T19:34:54.000Z</time>
      </trkpt>
      <trkpt lat="48.81823" lon="2.39805">
        <ele>35</ele>
        <time>2016-09-19T19:35:06.000Z</time>
      </trkpt>
      <trkpt lat="48.81853" lon="2.39857">
        <ele>35.400001525879</ele>
        <time>2016-09-19T19:35:17.000Z</time>
      </trkpt>
      <trkpt lat="48.81886" lon="2.39904">
        <ele>33.599998474121</ele>
        <time>2016-09-19T19:35:27.000Z</time>
      </trkpt>
      <trkpt lat="48.81902" lon="2.39923">
        <ele>32.599998474121</ele>
        <time>2016-09-19T19:35:46.000Z</time>
      </trkpt>
      <trkpt lat="48.81911" lon="2.39944">
        <ele>32</ele>
        <time>2016-09-19T19:35:50.000Z</time>
      </trkpt>
      <trkpt lat="48.81936" lon="2.39959">
        <ele>30.200000762939</ele>
        <time>2016-09-19T19:35:58.000Z</time>
      </trkpt>
      <trkpt lat="48.81952" lon="2.39971">
        <ele>30</ele>
        <time>2016-09-19T19:36:02.000Z</time>
      </trkpt>
      <trkpt lat="48.8196" lon="2.39982">
        <ele>30</ele>
        <time>2016-09-19T19:36:04.000Z</time>
      </trkpt>
      <trkpt lat="48.81978" lon="2.40007">
        <ele>30.200000762939</ele>
        <time>2016-09-19T19:36:08.000Z</time>
      </trkpt>
      <trkpt lat="48.81997" lon="2.40027">
        <ele>30.60000038147</ele>
        <time>2016-09-19T19:36:12.000Z</time>
      </trkpt>
      <trkpt lat="48.82011" lon="2.40042">
        <ele>31</ele>
        <time>2016-09-19T19:36:15.000Z</time>
      </trkpt>
      <trkpt lat="48.82051" lon="2.40079">
        <ele>32</ele>
        <time>2016-09-19T19:36:24.000Z</time>
      </trkpt>
      <trkpt lat="48.82069" lon="2.40092">
        <ele>32.599998474121</ele>
        <time>2016-09-19T19:36:28.000Z</time>
      </trkpt>
      <trkpt lat="48.82088" lon="2.40108">
        <ele>33.200000762939</ele>
        <time>2016-09-19T19:36:32.000Z</time>
      </trkpt>
      <trkpt lat="48.82126" lon="2.4015">
        <ele>35.599998474121</ele>
        <time>2016-09-19T19:36:40.000Z</time>
      </trkpt>
      <trkpt lat="48.82131" lon="2.40157">
        <ele>36</ele>
        <time>2016-09-19T19:36:41.000Z</time>
      </trkpt>
      <trkpt lat="48.82168" lon="2.40202">
        <ele>40.400001525879</ele>
        <time>2016-09-19T19:36:48.000Z</time>
      </trkpt>
      <trkpt lat="48.82176" lon="2.40213">
        <ele>41.400001525879</ele>
        <time>2016-09-19T19:36:50.000Z</time>
      </trkpt>
      <trkpt lat="48.82184" lon="2.40224">
        <ele>42.599998474121</ele>
        <time>2016-09-19T19:36:52.000Z</time>
      </trkpt>
      <trkpt lat="48.82221" lon="2.4027">
        <ele>46.799999237061</ele>
        <time>2016-09-19T19:37:02.000Z</time>
      </trkpt>
      <trkpt lat="48.82259" lon="2.40312">
        <ele>49.200000762939</ele>
        <time>2016-09-19T19:37:13.000Z</time>
      </trkpt>
      <trkpt lat="48.82275" lon="2.40332">
        <ele>49.799999237061</ele>
        <time>2016-09-19T19:38:42.000Z</time>
      </trkpt>
      <trkpt lat="48.82314" lon="2.40376">
        <ele>50.200000762939</ele>
        <time>2016-09-19T19:38:55.000Z</time>
      </trkpt>
      <trkpt lat="48.82354" lon="2.40418">
        <ele>50</ele>
        <time>2016-09-19T19:39:06.000Z</time>
      </trkpt>
      <trkpt lat="48.82376" lon="2.40454">
        <ele>48</ele>
        <time>2016-09-19T19:39:12.000Z</time>
      </trkpt>
      <trkpt lat="48.82386" lon="2.40471">
        <ele>47.200000762939</ele>
        <time>2016-09-19T19:39:15.000Z</time>
      </trkpt>
      <trkpt lat="48.82396" lon="2.40483">
        <ele>46.200000762939</ele>
        <time>2016-09-19T19:39:18.000Z</time>
      </trkpt>
      <trkpt lat="48.82418" lon="2.40509">
        <ele>44.799999237061</ele>
        <time>2016-09-19T19:39:26.000Z</time>
      </trkpt>
      <trkpt lat="48.82457" lon="2.40548">
        <ele>46</ele>
        <time>2016-09-19T19:39:42.000Z</time>
      </trkpt>
      <trkpt lat="48.82497" lon="2.40583">
        <ele>50.599998474121</ele>
        <time>2016-09-19T19:40:03.000Z</time>
      </trkpt>
      <trkpt lat="48.8252" lon="2.40611">
        <ele>52.799999237061</ele>
        <time>2016-09-19T19:40:11.000Z</time>
      </trkpt>
      <trkpt lat="48.82556" lon="2.40655">
        <ele>54.200000762939</ele>
        <time>2016-09-19T19:40:20.000Z</time>
      </trkpt>
      <trkpt lat="48.82596" lon="2.40691">
        <ele>54.799999237061</ele>
        <time>2016-09-19T19:40:35.000Z</time>
      </trkpt>
      <trkpt lat="48.82634" lon="2.40731">
        <ele>53.400001525879</ele>
        <time>2016-09-19T19:40:49.000Z</time>
      </trkpt>
      <trkpt lat="48.82652" lon="2.40745">
        <ele>52.599998474121</ele>
        <time>2016-09-19T19:40:58.000Z</time>
      </trkpt>
      <trkpt lat="48.82687" lon="2.40701">
        <ele>53.799999237061</ele>
        <time>2016-09-19T19:41:17.000Z</time>
      </trkpt>
      <trkpt lat="48.82719" lon="2.40653">
        <ele>55</ele>
        <time>2016-09-19T19:41:29.000Z</time>
      </trkpt>
      <trkpt lat="48.82754" lon="2.40607">
        <ele>55.799999237061</ele>
        <time>2016-09-19T19:41:39.000Z</time>
      </trkpt>
      <trkpt lat="48.82791" lon="2.40556">
        <ele>56</ele>
        <time>2016-09-19T19:41:49.000Z</time>
      </trkpt>
      <trkpt lat="48.82823" lon="2.40506">
        <ele>54.400001525879</ele>
        <time>2016-09-19T19:41:58.000Z</time>
      </trkpt>
      <trkpt lat="48.82855" lon="2.40456">
        <ele>52.599998474121</ele>
        <time>2016-09-19T19:42:07.000Z</time>
      </trkpt>
      <trkpt lat="48.82884" lon="2.40404">
        <ele>53.799999237061</ele>
        <time>2016-09-19T19:42:16.000Z</time>
      </trkpt>
      <trkpt lat="48.829" lon="2.40377">
        <ele>54.200000762939</ele>
        <time>2016-09-19T19:42:21.000Z</time>
      </trkpt>
      <trkpt lat="48.82906" lon="2.40366">
        <ele>54</ele>
        <time>2016-09-19T19:42:23.000Z</time>
      </trkpt>
      <trkpt lat="48.82917" lon="2.40342">
        <ele>53.799999237061</ele>
        <time>2016-09-19T19:42:27.000Z</time>
      </trkpt>
      <trkpt lat="48.8292" lon="2.40329">
        <ele>53.599998474121</ele>
        <time>2016-09-19T19:42:29.000Z</time>
      </trkpt>
      <trkpt lat="48.82926" lon="2.40304">
        <ele>53.599998474121</ele>
        <time>2016-09-19T19:42:33.000Z</time>
      </trkpt>
      <trkpt lat="48.82948" lon="2.4024">
        <ele>53.400001525879</ele>
        <time>2016-09-19T19:42:43.000Z</time>
      </trkpt>
      <trkpt lat="48.82963" lon="2.40196">
        <ele>52.200000762939</ele>
        <time>2016-09-19T19:42:49.000Z</time>
      </trkpt>
      <trkpt lat="48.82973" lon="2.40129">
        <ele>48.400001525879</ele>
        <time>2016-09-19T19:43:00.000Z</time>
      </trkpt>
      <trkpt lat="48.82975" lon="2.40112">
        <ele>47.799999237061</ele>
        <time>2016-09-19T19:43:58.000Z</time>
      </trkpt>
      <trkpt lat="48.83002" lon="2.40062">
        <ele>47.200000762939</ele>
        <time>2016-09-19T19:44:10.000Z</time>
      </trkpt>
      <trkpt lat="48.83027" lon="2.40024">
        <ele>49</ele>
        <time>2016-09-19T19:44:17.000Z</time>
      </trkpt>
      <trkpt lat="48.83047" lon="2.3999">
        <ele>48.799999237061</ele>
        <time>2016-09-19T19:44:23.000Z</time>
      </trkpt>
      <trkpt lat="48.83082" lon="2.39943">
        <ele>46.599998474121</ele>
        <time>2016-09-19T19:44:33.000Z</time>
      </trkpt>
      <trkpt lat="48.83116" lon="2.39889">
        <ele>45.200000762939</ele>
        <time>2016-09-19T19:44:43.000Z</time>
      </trkpt>
      <trkpt lat="48.8312" lon="2.39884">
        <ele>45</ele>
        <time>2016-09-19T19:44:44.000Z</time>
      </trkpt>
      <trkpt lat="48.83143" lon="2.39852">
        <ele>45</ele>
        <time>2016-09-19T19:44:51.000Z</time>
      </trkpt>
      <trkpt lat="48.83151" lon="2.39847">
        <ele>45.400001525879</ele>
        <time>2016-09-19T19:44:53.000Z</time>
      </trkpt>
      <trkpt lat="48.8317" lon="2.39817">
        <ele>45.799999237061</ele>
        <time>2016-09-19T19:45:05.000Z</time>
      </trkpt>
      <trkpt lat="48.83177" lon="2.39822">
        <ele>46.599998474121</ele>
        <time>2016-09-19T19:46:14.000Z</time>
      </trkpt>
      <trkpt lat="48.83208" lon="2.39875">
        <ele>48.799999237061</ele>
        <time>2016-09-19T19:46:29.000Z</time>
      </trkpt>
      <trkpt lat="48.83225" lon="2.39912">
        <ele>49.400001525879</ele>
        <time>2016-09-19T19:46:35.000Z</time>
      </trkpt>
      <trkpt lat="48.8325" lon="2.39969">
        <ele>49</ele>
        <time>2016-09-19T19:46:43.000Z</time>
      </trkpt>
      <trkpt lat="48.83269" lon="2.40013">
        <ele>48.599998474121</ele>
        <time>2016-09-19T19:46:49.000Z</time>
      </trkpt>
      <trkpt lat="48.83294" lon="2.40079">
        <ele>48.200000762939</ele>
        <time>2016-09-19T19:46:57.000Z</time>
      </trkpt>
      <trkpt lat="48.8332" lon="2.40141">
        <ele>47.799999237061</ele>
        <time>2016-09-19T19:47:04.000Z</time>
      </trkpt>
      <trkpt lat="48.83338" lon="2.40194">
        <ele>46.799999237061</ele>
        <time>2016-09-19T19:47:11.000Z</time>
      </trkpt>
      <trkpt lat="48.83339" lon="2.40209">
        <ele>46.200000762939</ele>
        <time>2016-09-19T19:47:13.000Z</time>
      </trkpt>
      <trkpt lat="48.83312" lon="2.40267">
        <ele>44.599998474121</ele>
        <time>2016-09-19T19:47:25.000Z</time>
      </trkpt>
      <trkpt lat="48.83299" lon="2.40288">
        <ele>44.599998474121</ele>
        <time>2016-09-19T19:47:30.000Z</time>
      </trkpt>
      <trkpt lat="48.8329" lon="2.40298">
        <ele>45</ele>
        <time>2016-09-19T19:47:32.000Z</time>
      </trkpt>
      <trkpt lat="48.83257" lon="2.40345">
        <ele>46.799999237061</ele>
        <time>2016-09-19T19:47:42.000Z</time>
      </trkpt>
      <trkpt lat="48.83224" lon="2.40381">
        <ele>49.200000762939</ele>
        <time>2016-09-19T19:48:33.000Z</time>
      </trkpt>
      <trkpt lat="48.8323" lon="2.40389">
        <ele>49.400001525879</ele>
        <time>2016-09-19T19:48:44.000Z</time>
      </trkpt>
      <trkpt lat="48.83246" lon="2.40413">
        <ele>50.599998474121</ele>
        <time>2016-09-19T19:48:51.000Z</time>
      </trkpt>
      <trkpt lat="48.83261" lon="2.40422">
        <ele>50.400001525879</ele>
        <time>2016-09-19T19:48:55.000Z</time>
      </trkpt>
      <trkpt lat="48.83287" lon="2.40436">
        <ele>51.200000762939</ele>
        <time>2016-09-19T19:49:01.000Z</time>
      </trkpt>
      <trkpt lat="48.833" lon="2.40446">
        <ele>52</ele>
        <time>2016-09-19T19:49:04.000Z</time>
      </trkpt>
      <trkpt lat="48.83304" lon="2.4046">
        <ele>52.400001525879</ele>
        <time>2016-09-19T19:49:06.000Z</time>
      </trkpt>
      <trkpt lat="48.83318" lon="2.40509">
        <ele>53.400001525879</ele>
        <time>2016-09-19T19:49:12.000Z</time>
      </trkpt>
      <trkpt lat="48.83332" lon="2.4056">
        <ele>53.200000762939</ele>
        <time>2016-09-19T19:49:18.000Z</time>
      </trkpt>
      <trkpt lat="48.83358" lon="2.40615">
        <ele>54</ele>
        <time>2016-09-19T19:49:26.000Z</time>
      </trkpt>
      <trkpt lat="48.83366" lon="2.40628">
        <ele>54.200000762939</ele>
        <time>2016-09-19T19:49:28.000Z</time>
      </trkpt>
      <trkpt lat="48.83395" lon="2.40675">
        <ele>54.400001525879</ele>
        <time>2016-09-19T19:49:35.000Z</time>
      </trkpt>
      <trkpt lat="48.83427" lon="2.40732">
        <ele>54.799999237061</ele>
        <time>2016-09-19T19:49:43.000Z</time>
      </trkpt>
      <trkpt lat="48.83443" lon="2.40755">
        <ele>54.799999237061</ele>
        <time>2016-09-19T19:49:47.000Z</time>
      </trkpt>
      <trkpt lat="48.83483" lon="2.40794">
        <ele>54</ele>
        <time>2016-09-19T19:49:56.000Z</time>
      </trkpt>
      <trkpt lat="48.83503" lon="2.40822">
        <ele>53.400001525879</ele>
        <time>2016-09-19T19:50:05.000Z</time>
      </trkpt>
      <trkpt lat="48.83481" lon="2.40868">
        <ele>53</ele>
        <time>2016-09-19T19:50:18.000Z</time>
      </trkpt>
      <trkpt lat="48.83455" lon="2.40928">
        <ele>50.200000762939</ele>
        <time>2016-09-19T19:50:30.000Z</time>
      </trkpt>
      <trkpt lat="48.8343" lon="2.40989">
        <ele>49</ele>
        <time>2016-09-19T19:50:43.000Z</time>
      </trkpt>
      <trkpt lat="48.83409" lon="2.4105">
        <ele>47.599998474121</ele>
        <time>2016-09-19T19:50:57.000Z</time>
      </trkpt>
      <trkpt lat="48.83424" lon="2.41113">
        <ele>48.599998474121</ele>
        <time>2016-09-19T19:51:20.000Z</time>
      </trkpt>
      <trkpt lat="48.83438" lon="2.41151">
        <ele>49.599998474121</ele>
        <time>2016-09-19T19:51:28.000Z</time>
      </trkpt>
      <trkpt lat="48.83453" lon="2.41222">
        <ele>51.400001525879</ele>
        <time>2016-09-19T19:51:40.000Z</time>
      </trkpt>
      <trkpt lat="48.83474" lon="2.41289">
        <ele>52.200000762939</ele>
        <time>2016-09-19T19:51:50.000Z</time>
      </trkpt>
      <trkpt lat="48.83496" lon="2.41355">
        <ele>53</ele>
        <time>2016-09-19T19:52:01.000Z</time>
      </trkpt>
      <trkpt lat="48.83507" lon="2.41387">
        <ele>52.599998474121</ele>
        <time>2016-09-19T19:52:06.000Z</time>
      </trkpt>
      <trkpt lat="48.83529" lon="2.41449">
        <ele>53.400001525879</ele>
        <time>2016-09-19T19:52:15.000Z</time>
      </trkpt>
      <trkpt lat="48.83549" lon="2.41512">
        <ele>55.799999237061</ele>
        <time>2016-09-19T19:52:23.000Z</time>
      </trkpt>
      <trkpt lat="48.83568" lon="2.41575">
        <ele>56.400001525879</ele>
        <time>2016-09-19T19:52:30.000Z</time>
      </trkpt>
      <trkpt lat="48.83586" lon="2.41638">
        <ele>55</ele>
        <time>2016-09-19T19:52:37.000Z</time>
      </trkpt>
      <trkpt lat="48.83602" lon="2.41708">
        <ele>55.400001525879</ele>
        <time>2016-09-19T19:52:45.000Z</time>
      </trkpt>
      <trkpt lat="48.83621" lon="2.41776">
        <ele>56.599998474121</ele>
        <time>2016-09-19T19:52:53.000Z</time>
      </trkpt>
      <trkpt lat="48.83623" lon="2.41785">
        <ele>56.599998474121</ele>
        <time>2016-09-19T19:52:54.000Z</time>
      </trkpt>
      <trkpt lat="48.83644" lon="2.41848">
        <ele>57.400001525879</ele>
        <time>2016-09-19T19:53:03.000Z</time>
      </trkpt>
      <trkpt lat="48.8365" lon="2.41864">
        <ele>57.599998474121</ele>
        <time>2016-09-19T19:53:39.000Z</time>
      </trkpt>
      <trkpt lat="48.83652" lon="2.41866">
        <ele>57.599998474121</ele>
        <time>2016-09-19T19:53:41.000Z</time>
      </trkpt>
      <trkpt lat="48.83663" lon="2.41902">
        <ele>57.599998474121</ele>
        <time>2016-09-19T19:53:49.000Z</time>
      </trkpt>
      <trkpt lat="48.8368" lon="2.41964">
        <ele>57.400001525879</ele>
        <time>2016-09-19T19:54:00.000Z</time>
      </trkpt>
      <trkpt lat="48.83692" lon="2.42034">
        <ele>56.599998474121</ele>
        <time>2016-09-19T19:54:11.000Z</time>
      </trkpt>
      <trkpt lat="48.83708" lon="2.42102">
        <ele>56</ele>
        <time>2016-09-19T19:54:25.000Z</time>
      </trkpt>
      <trkpt lat="48.83748" lon="2.42135">
        <ele>56.200000762939</ele>
        <time>2016-09-19T19:54:41.000Z</time>
      </trkpt>
      <trkpt lat="48.83795" lon="2.42136">
        <ele>56.799999237061</ele>
        <time>2016-09-19T19:54:52.000Z</time>
      </trkpt>
      <trkpt lat="48.838" lon="2.42136">
        <ele>56.799999237061</ele>
        <time>2016-09-19T19:54:53.000Z</time>
      </trkpt>
      <trkpt lat="48.83846" lon="2.4212">
        <ele>57.599998474121</ele>
        <time>2016-09-19T19:55:02.000Z</time>
      </trkpt>
      <trkpt lat="48.83892" lon="2.42114">
        <ele>57.599998474121</ele>
        <time>2016-09-19T19:55:12.000Z</time>
      </trkpt>
      <trkpt lat="48.83937" lon="2.42094">
        <ele>56.599998474121</ele>
        <time>2016-09-19T19:55:22.000Z</time>
      </trkpt>
      <trkpt lat="48.83951" lon="2.4209">
        <ele>56.200000762939</ele>
        <time>2016-09-19T19:55:25.000Z</time>
      </trkpt>
      <trkpt lat="48.83971" lon="2.42081">
        <ele>55.799999237061</ele>
        <time>2016-09-19T19:55:29.000Z</time>
      </trkpt>
      <trkpt lat="48.84018" lon="2.4206">
        <ele>54.200000762939</ele>
        <time>2016-09-19T19:55:38.000Z</time>
      </trkpt>
      <trkpt lat="48.84063" lon="2.42028">
        <ele>54.200000762939</ele>
        <time>2016-09-19T19:55:46.000Z</time>
      </trkpt>
      <trkpt lat="48.84079" lon="2.42014">
        <ele>54.400001525879</ele>
        <time>2016-09-19T19:55:49.000Z</time>
      </trkpt>
      <trkpt lat="48.84102" lon="2.41985">
        <ele>54.799999237061</ele>
        <time>2016-09-19T19:55:54.000Z</time>
      </trkpt>
      <trkpt lat="48.84145" lon="2.41957">
        <ele>51.200000762939</ele>
        <time>2016-09-19T19:56:02.000Z</time>
      </trkpt>
      <trkpt lat="48.84194" lon="2.41943">
        <ele>51.200000762939</ele>
        <time>2016-09-19T19:56:11.000Z</time>
      </trkpt>
      <trkpt lat="48.8421" lon="2.4194">
        <ele>52.400001525879</ele>
        <time>2016-09-19T19:56:14.000Z</time>
      </trkpt>
      <trkpt lat="48.84224" lon="2.4194">
        <ele>53</ele>
        <time>2016-09-19T19:56:17.000Z</time>
      </trkpt>
      <trkpt lat="48.84243" lon="2.41934">
        <ele>53.799999237061</ele>
        <time>2016-09-19T19:56:21.000Z</time>
      </trkpt>
      <trkpt lat="48.84289" lon="2.41953">
        <ele>54.799999237061</ele>
        <time>2016-09-19T19:56:32.000Z</time>
      </trkpt>
      <trkpt lat="48.84331" lon="2.41963">
        <ele>55.200000762939</ele>
        <time>2016-09-19T19:57:26.000Z</time>
      </trkpt>
      <trkpt lat="48.84337" lon="2.41946">
        <ele>55.400001525879</ele>
        <time>2016-09-19T19:57:31.000Z</time>
      </trkpt>
      <trkpt lat="48.84354" lon="2.41878">
        <ele>54.599998474121</ele>
        <time>2016-09-19T19:57:45.000Z</time>
      </trkpt>
      <trkpt lat="48.84365" lon="2.41809">
        <ele>52.799999237061</ele>
        <time>2016-09-19T19:58:00.000Z</time>
      </trkpt>
      <trkpt lat="48.84394" lon="2.4176">
        <ele>52.599998474121</ele>
        <time>2016-09-19T19:58:17.000Z</time>
      </trkpt>
      <trkpt lat="48.8444" lon="2.41753">
        <ele>54.200000762939</ele>
        <time>2016-09-19T19:58:30.000Z</time>
      </trkpt>
      <trkpt lat="48.84485" lon="2.41753">
        <ele>56.200000762939</ele>
        <time>2016-09-19T19:58:40.000Z</time>
      </trkpt>
      <trkpt lat="48.84526" lon="2.41751">
        <ele>58</ele>
        <time>2016-09-19T19:58:50.000Z</time>
      </trkpt>
      <trkpt lat="48.84573" lon="2.41753">
        <ele>58</ele>
        <time>2016-09-19T19:59:00.000Z</time>
      </trkpt>
      <trkpt lat="48.8461" lon="2.41751">
        <ele>57.799999237061</ele>
        <time>2016-09-19T19:59:16.000Z</time>
      </trkpt>
      <trkpt lat="48.84624" lon="2.41743">
        <ele>57.400001525879</ele>
        <time>2016-09-19T19:59:28.000Z</time>
      </trkpt>
      <trkpt lat="48.8463" lon="2.41762">
        <ele>57.400001525879</ele>
        <time>2016-09-19T19:59:58.000Z</time>
      </trkpt>
      <trkpt lat="48.84647" lon="2.41766">
        <ele>56.799999237061</ele>
        <time>2016-09-19T20:00:05.000Z</time>
      </trkpt>
      <trkpt lat="48.84654" lon="2.4174">
        <ele>56.200000762939</ele>
        <time>2016-09-19T20:00:10.000Z</time>
      </trkpt>
      <trkpt lat="48.84655" lon="2.41727">
        <ele>57</ele>
        <time>2016-09-19T20:00:12.000Z</time>
      </trkpt>
      <trkpt lat="48.84659" lon="2.41707">
        <ele>56.799999237061</ele>
        <time>2016-09-19T20:00:15.000Z</time>
      </trkpt>
      <trkpt lat="48.84668" lon="2.41637">
        <ele>53.599998474121</ele>
        <time>2016-09-19T20:00:24.000Z</time>
      </trkpt>
      <trkpt lat="48.84677" lon="2.41569">
        <ele>53.200000762939</ele>
        <time>2016-09-19T20:00:33.000Z</time>
      </trkpt>
      <trkpt lat="48.84698" lon="2.41509">
        <ele>50.400001525879</ele>
        <time>2016-09-19T20:00:46.000Z</time>
      </trkpt>
      <trkpt lat="48.84701" lon="2.41505">
        <ele>50.200000762939</ele>
        <time>2016-09-19T20:00:47.000Z</time>
      </trkpt>
      <trkpt lat="48.84707" lon="2.41438">
        <ele>47.799999237061</ele>
        <time>2016-09-19T20:01:01.000Z</time>
      </trkpt>
      <trkpt lat="48.84681" lon="2.41393">
        <ele>48.200000762939</ele>
        <time>2016-09-19T20:01:19.000Z</time>
      </trkpt>
      <trkpt lat="48.84634" lon="2.41392">
        <ele>49.200000762939</ele>
        <time>2016-09-19T20:01:55.000Z</time>
      </trkpt>
      <trkpt lat="48.84622" lon="2.41396">
        <ele>49.599998474121</ele>
        <time>2016-09-19T20:02:28.000Z</time>
      </trkpt>
      <trkpt lat="48.84594" lon="2.41397">
        <ele>50.400001525879</ele>
        <time>2016-09-19T20:02:37.000Z</time>
      </trkpt>
      <trkpt lat="48.84541" lon="2.41393">
        <ele>51</ele>
        <time>2016-09-19T20:02:44.000Z</time>
      </trkpt>
      <trkpt lat="48.84487" lon="2.41386">
        <ele>50.799999237061</ele>
        <time>2016-09-19T20:02:49.000Z</time>
      </trkpt>
      <trkpt lat="48.84446" lon="2.41387">
        <ele>49.200000762939</ele>
        <time>2016-09-19T20:02:53.000Z</time>
      </trkpt>
      <trkpt lat="48.84426" lon="2.41387">
        <ele>48.799999237061</ele>
        <time>2016-09-19T20:02:55.000Z</time>
      </trkpt>
      <trkpt lat="48.84373" lon="2.41377">
        <ele>48.400001525879</ele>
        <time>2016-09-19T20:03:01.000Z</time>
      </trkpt>
      <trkpt lat="48.84327" lon="2.41369">
        <ele>48.799999237061</ele>
        <time>2016-09-19T20:03:06.000Z</time>
      </trkpt>
      <trkpt lat="48.84295" lon="2.41367">
        <ele>49.400001525879</ele>
        <time>2016-09-19T20:03:10.000Z</time>
      </trkpt>
      <trkpt lat="48.84279" lon="2.41365">
        <ele>49.799999237061</ele>
        <time>2016-09-19T20:03:12.000Z</time>
      </trkpt>
      <trkpt lat="48.84231" lon="2.41364">
        <ele>47</ele>
        <time>2016-09-19T20:03:18.000Z</time>
      </trkpt>
      <trkpt lat="48.84182" lon="2.41358">
        <ele>45.200000762939</ele>
        <time>2016-09-19T20:03:26.000Z</time>
      </trkpt>
      <trkpt lat="48.84132" lon="2.41351">
        <ele>45</ele>
        <time>2016-09-19T20:03:33.000Z</time>
      </trkpt>
      <trkpt lat="48.8409" lon="2.41348">
        <ele>44.599998474121</ele>
        <time>2016-09-19T20:03:38.000Z</time>
      </trkpt>
      <trkpt lat="48.84065" lon="2.41343">
        <ele>44.799999237061</ele>
        <time>2016-09-19T20:03:41.000Z</time>
      </trkpt>
      <trkpt lat="48.84016" lon="2.41334">
        <ele>45.200000762939</ele>
        <time>2016-09-19T20:03:48.000Z</time>
      </trkpt>
      <trkpt lat="48.83995" lon="2.41329">
        <ele>45.599998474121</ele>
        <time>2016-09-19T20:03:51.000Z</time>
      </trkpt>
      <trkpt lat="48.83948" lon="2.41318">
        <ele>46.599998474121</ele>
        <time>2016-09-19T20:03:58.000Z</time>
      </trkpt>
      <trkpt lat="48.83898" lon="2.41306">
        <ele>47.799999237061</ele>
        <time>2016-09-19T20:04:05.000Z</time>
      </trkpt>
      <trkpt lat="48.83849" lon="2.41294">
        <ele>49.400001525879</ele>
        <time>2016-09-19T20:04:12.000Z</time>
      </trkpt>
      <trkpt lat="48.83803" lon="2.41281">
        <ele>50.599998474121</ele>
        <time>2016-09-19T20:04:19.000Z</time>
      </trkpt>
      <trkpt lat="48.83758" lon="2.41267">
        <ele>50.799999237061</ele>
        <time>2016-09-19T20:04:26.000Z</time>
      </trkpt>
      <trkpt lat="48.83711" lon="2.41251">
        <ele>50.200000762939</ele>
        <time>2016-09-19T20:04:33.000Z</time>
      </trkpt>
      <trkpt lat="48.83665" lon="2.41236">
        <ele>49.799999237061</ele>
        <time>2016-09-19T20:04:40.000Z</time>
      </trkpt>
      <trkpt lat="48.83613" lon="2.41215">
        <ele>49.599998474121</ele>
        <time>2016-09-19T20:04:47.000Z</time>
      </trkpt>
      <trkpt lat="48.83567" lon="2.41177">
        <ele>48.799999237061</ele>
        <time>2016-09-19T20:04:53.000Z</time>
      </trkpt>
      <trkpt lat="48.83527" lon="2.41132">
        <ele>47.799999237061</ele>
        <time>2016-09-19T20:04:58.000Z</time>
      </trkpt>
      <trkpt lat="48.83493" lon="2.41083">
        <ele>46.799999237061</ele>
        <time>2016-09-19T20:05:03.000Z</time>
      </trkpt>
      <trkpt lat="48.83465" lon="2.41029">
        <ele>48</ele>
        <time>2016-09-19T20:05:12.000Z</time>
      </trkpt>
      <trkpt lat="48.83453" lon="2.41018">
        <ele>48.400001525879</ele>
        <time>2016-09-19T20:05:20.000Z</time>
      </trkpt>
      <trkpt lat="48.83448" lon="2.40991">
        <ele>49.400001525879</ele>
        <time>2016-09-19T20:07:28.000Z</time>
      </trkpt>
      <trkpt lat="48.83466" lon="2.40924">
        <ele>50.599998474121</ele>
        <time>2016-09-19T20:07:45.000Z</time>
      </trkpt>
      <trkpt lat="48.83489" lon="2.40863">
        <ele>53</ele>
        <time>2016-09-19T20:07:58.000Z</time>
      </trkpt>
      <trkpt lat="48.83501" lon="2.4084">
        <ele>53.200000762939</ele>
        <time>2016-09-19T20:08:03.000Z</time>
      </trkpt>
      <trkpt lat="48.83532" lon="2.40782">
        <ele>52.200000762939</ele>
        <time>2016-09-19T20:08:15.000Z</time>
      </trkpt>
      <trkpt lat="48.83552" lon="2.4072">
        <ele>51.400001525879</ele>
        <time>2016-09-19T20:08:27.000Z</time>
      </trkpt>
      <trkpt lat="48.83559" lon="2.40696">
        <ele>51</ele>
        <time>2016-09-19T20:09:00.000Z</time>
      </trkpt>
      <trkpt lat="48.83568" lon="2.40641">
        <ele>47.799999237061</ele>
        <time>2016-09-19T20:09:12.000Z</time>
      </trkpt>
      <trkpt lat="48.83575" lon="2.40617">
        <ele>46.799999237061</ele>
        <time>2016-09-19T20:09:16.000Z</time>
      </trkpt>
      <trkpt lat="48.83598" lon="2.40551">
        <ele>44.200000762939</ele>
        <time>2016-09-19T20:09:27.000Z</time>
      </trkpt>
      <trkpt lat="48.83624" lon="2.40492">
        <ele>43.400001525879</ele>
        <time>2016-09-19T20:09:35.000Z</time>
      </trkpt>
      <trkpt lat="48.83629" lon="2.40477">
        <ele>43.200000762939</ele>
        <time>2016-09-19T20:09:37.000Z</time>
      </trkpt>
      <trkpt lat="48.83654" lon="2.40413">
        <ele>42.200000762939</ele>
        <time>2016-09-19T20:09:46.000Z</time>
      </trkpt>
      <trkpt lat="48.83676" lon="2.4036">
        <ele>43</ele>
        <time>2016-09-19T20:09:58.000Z</time>
      </trkpt>
      <trkpt lat="48.83696" lon="2.40298">
        <ele>45</ele>
        <time>2016-09-19T20:10:11.000Z</time>
      </trkpt>
      <trkpt lat="48.8372" lon="2.40241">
        <ele>45.599998474121</ele>
        <time>2016-09-19T20:10:22.000Z</time>
      </trkpt>
      <trkpt lat="48.83734" lon="2.40202">
        <ele>45.200000762939</ele>
        <time>2016-09-19T20:10:28.000Z</time>
      </trkpt>
      <trkpt lat="48.83759" lon="2.40138">
        <ele>47.200000762939</ele>
        <time>2016-09-19T20:10:36.000Z</time>
      </trkpt>
      <trkpt lat="48.83772" lon="2.40107">
        <ele>47.599998474121</ele>
        <time>2016-09-19T20:10:40.000Z</time>
      </trkpt>
      <trkpt lat="48.83783" lon="2.40085">
        <ele>48.400001525879</ele>
        <time>2016-09-19T20:10:43.000Z</time>
      </trkpt>
      <trkpt lat="48.83789" lon="2.40072">
        <ele>49.200000762939</ele>
        <time>2016-09-19T20:10:45.000Z</time>
      </trkpt>
      <trkpt lat="48.83801" lon="2.40042">
        <ele>50.799999237061</ele>
        <time>2016-09-19T20:10:49.000Z</time>
      </trkpt>
      <trkpt lat="48.83803" lon="2.40034">
        <ele>51.200000762939</ele>
        <time>2016-09-19T20:10:50.000Z</time>
      </trkpt>
      <trkpt lat="48.83826" lon="2.39965">
        <ele>56</ele>
        <time>2016-09-19T20:10:59.000Z</time>
      </trkpt>
      <trkpt lat="48.83845" lon="2.39902">
        <ele>58</ele>
        <time>2016-09-19T20:11:08.000Z</time>
      </trkpt>
      <trkpt lat="48.83866" lon="2.39837">
        <ele>60.799999237061</ele>
        <time>2016-09-19T20:11:18.000Z</time>
      </trkpt>
      <trkpt lat="48.83881" lon="2.39777">
        <ele>59.400001525879</ele>
        <time>2016-09-19T20:11:27.000Z</time>
      </trkpt>
      <trkpt lat="48.83906" lon="2.39712">
        <ele>57.400001525879</ele>
        <time>2016-09-19T20:11:36.000Z</time>
      </trkpt>
      <trkpt lat="48.83929" lon="2.39652">
        <ele>58.400001525879</ele>
        <time>2016-09-19T20:11:46.000Z</time>
      </trkpt>
      <trkpt lat="48.8394" lon="2.39625">
        <ele>58</ele>
        <time>2016-09-19T20:11:55.000Z</time>
      </trkpt>
      <trkpt lat="48.83953" lon="2.3962">
        <ele>58.400001525879</ele>
        <time>2016-09-19T20:13:24.000Z</time>
      </trkpt>
      <trkpt lat="48.8398" lon="2.3957">
        <ele>58.400001525879</ele>
        <time>2016-09-19T20:13:41.000Z</time>
      </trkpt>
      <trkpt lat="48.83981" lon="2.39497">
        <ele>57</ele>
        <time>2016-09-19T20:13:54.000Z</time>
      </trkpt>
      <trkpt lat="48.83996" lon="2.39429">
        <ele>56.200000762939</ele>
        <time>2016-09-19T20:14:04.000Z</time>
      </trkpt>
      <trkpt lat="48.84008" lon="2.39363">
        <ele>54</ele>
        <time>2016-09-19T20:14:12.000Z</time>
      </trkpt>
      <trkpt lat="48.84023" lon="2.39289">
        <ele>51.599998474121</ele>
        <time>2016-09-19T20:14:20.000Z</time>
      </trkpt>
      <trkpt lat="48.84042" lon="2.39218">
        <ele>50.599998474121</ele>
        <time>2016-09-19T20:14:28.000Z</time>
      </trkpt>
      <trkpt lat="48.84056" lon="2.39151">
        <ele>50.599998474121</ele>
        <time>2016-09-19T20:14:35.000Z</time>
      </trkpt>
      <trkpt lat="48.84072" lon="2.3908">
        <ele>50.400001525879</ele>
        <time>2016-09-19T20:14:42.000Z</time>
      </trkpt>
      <trkpt lat="48.84085" lon="2.39009">
        <ele>51.200000762939</ele>
        <time>2016-09-19T20:14:48.000Z</time>
      </trkpt>
      <trkpt lat="48.84104" lon="2.38942">
        <ele>49.599998474121</ele>
        <time>2016-09-19T20:14:54.000Z</time>
      </trkpt>
      <trkpt lat="48.84123" lon="2.38869">
        <ele>47.799999237061</ele>
        <time>2016-09-19T20:15:01.000Z</time>
      </trkpt>
      <trkpt lat="48.84138" lon="2.38799">
        <ele>44.599998474121</ele>
        <time>2016-09-19T20:15:07.000Z</time>
      </trkpt>
      <trkpt lat="48.84141" lon="2.38788">
        <ele>44.400001525879</ele>
        <time>2016-09-19T20:15:08.000Z</time>
      </trkpt>
      <trkpt lat="48.84163" lon="2.38716">
        <ele>44.400001525879</ele>
        <time>2016-09-19T20:15:14.000Z</time>
      </trkpt>
      <trkpt lat="48.84187" lon="2.38649">
        <ele>44.799999237061</ele>
        <time>2016-09-19T20:15:20.000Z</time>
      </trkpt>
      <trkpt lat="48.84215" lon="2.38588">
        <ele>43.400001525879</ele>
        <time>2016-09-19T20:15:26.000Z</time>
      </trkpt>
      <trkpt lat="48.84243" lon="2.38523">
        <ele>40.400001525879</ele>
        <time>2016-09-19T20:15:32.000Z</time>
      </trkpt>
      <trkpt lat="48.84271" lon="2.38466">
        <ele>40</ele>
        <time>2016-09-19T20:15:38.000Z</time>
      </trkpt>
      <trkpt lat="48.84296" lon="2.38403">
        <ele>39.200000762939</ele>
        <time>2016-09-19T20:15:45.000Z</time>
      </trkpt>
      <trkpt lat="48.84325" lon="2.38342">
        <ele>39</ele>
        <time>2016-09-19T20:15:52.000Z</time>
      </trkpt>
      <trkpt lat="48.84352" lon="2.38283">
        <ele>42.200000762939</ele>
        <time>2016-09-19T20:15:59.000Z</time>
      </trkpt>
      <trkpt lat="48.84381" lon="2.38224">
        <ele>42.799999237061</ele>
        <time>2016-09-19T20:16:06.000Z</time>
      </trkpt>
      <trkpt lat="48.84408" lon="2.38172">
        <ele>40.400001525879</ele>
        <time>2016-09-19T20:16:13.000Z</time>
      </trkpt>
      <trkpt lat="48.84414" lon="2.38156">
        <ele>39.799999237061</ele>
        <time>2016-09-19T20:16:16.000Z</time>
      </trkpt>
      <trkpt lat="48.84424" lon="2.38141">
        <ele>39</ele>
        <time>2016-09-19T20:16:19.000Z</time>
      </trkpt>
      <trkpt lat="48.84452" lon="2.38086">
        <ele>37.799999237061</ele>
        <time>2016-09-19T20:16:28.000Z</time>
      </trkpt>
      <trkpt lat="48.84469" lon="2.38049">
        <ele>38.400001525879</ele>
        <time>2016-09-19T20:16:33.000Z</time>
      </trkpt>
      <trkpt lat="48.84497" lon="2.37991">
        <ele>38.400001525879</ele>
        <time>2016-09-19T20:16:42.000Z</time>
      </trkpt>
      <trkpt lat="48.84527" lon="2.37934">
        <ele>38.200000762939</ele>
        <time>2016-09-19T20:16:51.000Z</time>
      </trkpt>
      <trkpt lat="48.84557" lon="2.37874">
        <ele>37.200000762939</ele>
        <time>2016-09-19T20:17:00.000Z</time>
      </trkpt>
      <trkpt lat="48.84586" lon="2.37814">
        <ele>39</ele>
        <time>2016-09-19T20:17:09.000Z</time>
      </trkpt>
      <trkpt lat="48.84613" lon="2.37755">
        <ele>41.200000762939</ele>
        <time>2016-09-19T20:17:17.000Z</time>
      </trkpt>
      <trkpt lat="48.84641" lon="2.37697">
        <ele>41.799999237061</ele>
        <time>2016-09-19T20:17:25.000Z</time>
      </trkpt>
      <trkpt lat="48.84651" lon="2.37677">
        <ele>41.599998474121</ele>
        <time>2016-09-19T20:17:28.000Z</time>
      </trkpt>
      <trkpt lat="48.84679" lon="2.37623">
        <ele>41.599998474121</ele>
        <time>2016-09-19T20:17:36.000Z</time>
      </trkpt>
      <trkpt lat="48.84708" lon="2.37565">
        <ele>41</ele>
        <time>2016-09-19T20:17:44.000Z</time>
      </trkpt>
      <trkpt lat="48.84734" lon="2.37507">
        <ele>40.799999237061</ele>
        <time>2016-09-19T20:17:51.000Z</time>
      </trkpt>
      <trkpt lat="48.84764" lon="2.37449">
        <ele>40.200000762939</ele>
        <time>2016-09-19T20:17:59.000Z</time>
      </trkpt>
      <trkpt lat="48.84793" lon="2.37391">
        <ele>41</ele>
        <time>2016-09-19T20:18:08.000Z</time>
      </trkpt>
      <trkpt lat="48.84821" lon="2.3733">
        <ele>40.799999237061</ele>
        <time>2016-09-19T20:18:19.000Z</time>
      </trkpt>
      <trkpt lat="48.84848" lon="2.37273">
        <ele>39.400001525879</ele>
        <time>2016-09-19T20:18:27.000Z</time>
      </trkpt>
      <trkpt lat="48.84876" lon="2.37218">
        <ele>39.799999237061</ele>
        <time>2016-09-19T20:18:36.000Z</time>
      </trkpt>
      <trkpt lat="48.84902" lon="2.3716">
        <ele>39.799999237061</ele>
        <time>2016-09-19T20:18:44.000Z</time>
      </trkpt>
      <trkpt lat="48.84932" lon="2.37103">
        <ele>41</ele>
        <time>2016-09-19T20:18:51.000Z</time>
      </trkpt>
      <trkpt lat="48.84971" lon="2.3706">
        <ele>42.400001525879</ele>
        <time>2016-09-19T20:18:59.000Z</time>
      </trkpt>
      <trkpt lat="48.85014" lon="2.3703">
        <ele>44</ele>
        <time>2016-09-19T20:19:08.000Z</time>
      </trkpt>
      <trkpt lat="48.85061" lon="2.37002">
        <ele>47.200000762939</ele>
        <time>2016-09-19T20:19:18.000Z</time>
      </trkpt>
      <trkpt lat="48.85108" lon="2.36991">
        <ele>48.799999237061</ele>
        <time>2016-09-19T20:19:26.000Z</time>
      </trkpt>
      <trkpt lat="48.85155" lon="2.36977">
        <ele>47.599998474121</ele>
        <time>2016-09-19T20:19:35.000Z</time>
      </trkpt>
      <trkpt lat="48.85194" lon="2.36953">
        <ele>43.799999237061</ele>
        <time>2016-09-19T20:23:03.000Z</time>
      </trkpt>
      <trkpt lat="48.85198" lon="2.36952">
        <ele>43.799999237061</ele>
        <time>2016-09-19T20:23:06.000Z</time>
      </trkpt>
      <trkpt lat="48.85203" lon="2.36944">
        <ele>43.200000762939</ele>
        <time>2016-09-19T20:23:10.000Z</time>
      </trkpt>
      <trkpt lat="48.85223" lon="2.36894">
        <ele>39.400001525879</ele>
        <time>2016-09-19T20:23:31.000Z</time>
      </trkpt>
      <trkpt lat="48.8526" lon="2.36867">
        <ele>40</ele>
        <time>2016-09-19T20:23:51.000Z</time>
      </trkpt>
      <trkpt lat="48.85274" lon="2.36805">
        <ele>40.400001525879</ele>
        <time>2016-09-19T20:24:30.000Z</time>
      </trkpt>
      <trkpt lat="48.85272" lon="2.368">
        <ele>40.400001525879</ele>
        <time>2016-09-19T20:24:35.000Z</time>
      </trkpt>
      <trkpt lat="48.85273" lon="2.36793">
        <ele>40.799999237061</ele>
        <time>2016-09-19T20:24:38.000Z</time>
      </trkpt>
      <trkpt lat="48.85259" lon="2.36724">
        <ele>43.599998474121</ele>
        <time>2016-09-19T20:24:55.000Z</time>
      </trkpt>
      <trkpt lat="48.85257" lon="2.367">
        <ele>44.200000762939</ele>
        <time>2016-09-19T20:25:03.000Z</time>
      </trkpt>
      <trkpt lat="48.85302" lon="2.36722">
        <ele>45</ele>
        <time>2016-09-19T20:25:19.000Z</time>
      </trkpt>
      <trkpt lat="48.85332" lon="2.36715">
        <ele>46</ele>
        <time>2016-09-19T20:25:27.000Z</time>
      </trkpt>
      <trkpt lat="48.85344" lon="2.3668">
        <ele>43.400001525879</ele>
        <time>2016-09-19T20:25:34.000Z</time>
      </trkpt>
      <trkpt lat="48.85356" lon="2.36636">
        <ele>42.599998474121</ele>
        <time>2016-09-19T20:25:41.000Z</time>
      </trkpt>
      <trkpt lat="48.85366" lon="2.36593">
        <ele>44</ele>
        <time>2016-09-19T20:25:47.000Z</time>
      </trkpt>
      <trkpt lat="48.85371" lon="2.3657">
        <ele>43.599998474121</ele>
        <time>2016-09-19T20:25:50.000Z</time>
      </trkpt>
      <trkpt lat="48.8539" lon="2.36507">
        <ele>43.799999237061</ele>
        <time>2016-09-19T20:25:58.000Z</time>
      </trkpt>
      <trkpt lat="48.85408" lon="2.3644">
        <ele>45.799999237061</ele>
        <time>2016-09-19T20:26:06.000Z</time>
      </trkpt>
      <trkpt lat="48.85429" lon="2.36377">
        <ele>45.400001525879</ele>
        <time>2016-09-19T20:26:14.000Z</time>
      </trkpt>
      <trkpt lat="48.85453" lon="2.36314">
        <ele>44</ele>
        <time>2016-09-19T20:26:23.000Z</time>
      </trkpt>
      <trkpt lat="48.85479" lon="2.36258">
        <ele>42.400001525879</ele>
        <time>2016-09-19T20:26:32.000Z</time>
      </trkpt>
      <trkpt lat="48.85501" lon="2.36199">
        <ele>43.200000762939</ele>
        <time>2016-09-19T20:26:41.000Z</time>
      </trkpt>
      <trkpt lat="48.85514" lon="2.36155">
        <ele>44.599998474121</ele>
        <time>2016-09-19T20:26:47.000Z</time>
      </trkpt>
      <trkpt lat="48.85532" lon="2.36086">
        <ele>44</ele>
        <time>2016-09-19T20:26:56.000Z</time>
      </trkpt>
      <trkpt lat="48.85545" lon="2.36024">
        <ele>45</ele>
        <time>2016-09-19T20:27:03.000Z</time>
      </trkpt>
      <trkpt lat="48.8555" lon="2.36">
        <ele>45.400001525879</ele>
        <time>2016-09-19T20:27:06.000Z</time>
      </trkpt>
      <trkpt lat="48.85554" lon="2.35985">
        <ele>45.200000762939</ele>
        <time>2016-09-19T20:27:08.000Z</time>
      </trkpt>
      <trkpt lat="48.85557" lon="2.35963">
        <ele>45</ele>
        <time>2016-09-19T20:27:11.000Z</time>
      </trkpt>
      <trkpt lat="48.8557" lon="2.35893">
        <ele>44.400001525879</ele>
        <time>2016-09-19T20:27:20.000Z</time>
      </trkpt>
      <trkpt lat="48.85587" lon="2.35826">
        <ele>44.799999237061</ele>
        <time>2016-09-19T20:27:30.000Z</time>
      </trkpt>
      <trkpt lat="48.85608" lon="2.35761">
        <ele>45.200000762939</ele>
        <time>2016-09-19T20:27:40.000Z</time>
      </trkpt>
      <trkpt lat="48.85609" lon="2.35754">
        <ele>45.200000762939</ele>
        <time>2016-09-19T20:27:41.000Z</time>
      </trkpt>
      <trkpt lat="48.85618" lon="2.35705">
        <ele>45</ele>
        <time>2016-09-19T20:27:48.000Z</time>
      </trkpt>
      <trkpt lat="48.85625" lon="2.3568">
        <ele>44.799999237061</ele>
        <time>2016-09-19T20:27:51.000Z</time>
      </trkpt>
      <trkpt lat="48.85642" lon="2.35616">
        <ele>44.400001525879</ele>
        <time>2016-09-19T20:27:59.000Z</time>
      </trkpt>
      <trkpt lat="48.85657" lon="2.35544">
        <ele>43.400001525879</ele>
        <time>2016-09-19T20:28:07.000Z</time>
      </trkpt>
      <trkpt lat="48.85676" lon="2.35476">
        <ele>46</ele>
        <time>2016-09-19T20:28:14.000Z</time>
      </trkpt>
      <trkpt lat="48.85694" lon="2.35409">
        <ele>45.599998474121</ele>
        <time>2016-09-19T20:28:21.000Z</time>
      </trkpt>
      <trkpt lat="48.85709" lon="2.35337">
        <ele>48.799999237061</ele>
        <time>2016-09-19T20:28:28.000Z</time>
      </trkpt>
      <trkpt lat="48.85727" lon="2.35265">
        <ele>47.799999237061</ele>
        <time>2016-09-19T20:28:35.000Z</time>
      </trkpt>
      <trkpt lat="48.85739" lon="2.35193">
        <ele>42</ele>
        <time>2016-09-19T20:28:42.000Z</time>
      </trkpt>
      <trkpt lat="48.85742" lon="2.35174">
        <ele>40.799999237061</ele>
        <time>2016-09-19T20:28:44.000Z</time>
      </trkpt>
      <trkpt lat="48.85763" lon="2.35104">
        <ele>43</ele>
        <time>2016-09-19T20:28:52.000Z</time>
      </trkpt>
      <trkpt lat="48.85781" lon="2.3504">
        <ele>46.799999237061</ele>
        <time>2016-09-19T20:28:59.000Z</time>
      </trkpt>
      <trkpt lat="48.858" lon="2.34975">
        <ele>45.799999237061</ele>
        <time>2016-09-19T20:29:07.000Z</time>
      </trkpt>
      <trkpt lat="48.85819" lon="2.34908">
        <ele>44.599998474121</ele>
        <time>2016-09-19T20:29:16.000Z</time>
      </trkpt>
      <trkpt lat="48.85837" lon="2.34844">
        <ele>45.799999237061</ele>
        <time>2016-09-19T20:29:26.000Z</time>
      </trkpt>
      <trkpt lat="48.85861" lon="2.34784">
        <ele>47.400001525879</ele>
        <time>2016-09-19T20:29:43.000Z</time>
      </trkpt>
      <trkpt lat="48.85885" lon="2.34739">
        <ele>46.200000762939</ele>
        <time>2016-09-19T20:29:54.000Z</time>
      </trkpt>
      <trkpt lat="48.85927" lon="2.34711">
        <ele>45.599998474121</ele>
        <time>2016-09-19T20:30:08.000Z</time>
      </trkpt>
      <trkpt lat="48.85941" lon="2.34702">
        <ele>45.599998474121</ele>
        <time>2016-09-19T20:30:13.000Z</time>
      </trkpt>
      <trkpt lat="48.8595" lon="2.34717">
        <ele>45.200000762939</ele>
        <time>2016-09-19T20:30:25.000Z</time>
      </trkpt>
    </trkseg>
  </trk>
  <trk>
    <name><![CDATA[Rando Roller du lundi 26 septembre 2016]]></name>
    <trkseg>
      <trkpt lat="48.85753" lon="2.34717">
        <ele>39.799999237061</ele>
        <time>2016-09-26T18:20:32.000Z</time>
      </trkpt>
      <trkpt lat="48.85744" lon="2.34725">
        <ele>40.400001525879</ele>
        <time>2016-09-26T18:20:53.000Z</time>
      </trkpt>
      <trkpt lat="48.85744" lon="2.34726">
        <ele>40.400001525879</ele>
        <time>2016-09-26T18:21:00.000Z</time>
      </trkpt>
      <trkpt lat="48.85744" lon="2.34716">
        <ele>40.200000762939</ele>
        <time>2016-09-26T18:21:05.000Z</time>
      </trkpt>
      <trkpt lat="48.8574" lon="2.34705">
        <ele>40</ele>
        <time>2016-09-26T18:21:10.000Z</time>
      </trkpt>
      <trkpt lat="48.85698" lon="2.34678">
        <ele>40.799999237061</ele>
        <time>2016-09-26T18:21:27.000Z</time>
      </trkpt>
      <trkpt lat="48.85656" lon="2.34654">
        <ele>43.799999237061</ele>
        <time>2016-09-26T18:21:46.000Z</time>
      </trkpt>
      <trkpt lat="48.85613" lon="2.34634">
        <ele>47.400001525879</ele>
        <time>2016-09-26T18:22:03.000Z</time>
      </trkpt>
      <trkpt lat="48.85566" lon="2.34619">
        <ele>47.599998474121</ele>
        <time>2016-09-26T18:22:14.000Z</time>
      </trkpt>
      <trkpt lat="48.85549" lon="2.34602">
        <ele>47.400001525879</ele>
        <time>2016-09-26T18:22:18.000Z</time>
      </trkpt>
      <trkpt lat="48.85513" lon="2.34556">
        <ele>45.799999237061</ele>
        <time>2016-09-26T18:22:29.000Z</time>
      </trkpt>
      <trkpt lat="48.85477" lon="2.34508">
        <ele>42.799999237061</ele>
        <time>2016-09-26T18:22:39.000Z</time>
      </trkpt>
      <trkpt lat="48.85433" lon="2.34478">
        <ele>40.799999237061</ele>
        <time>2016-09-26T18:22:50.000Z</time>
      </trkpt>
      <trkpt lat="48.85395" lon="2.34439">
        <ele>42</ele>
        <time>2016-09-26T18:23:11.000Z</time>
      </trkpt>
      <trkpt lat="48.85387" lon="2.34436">
        <ele>42.599998474121</ele>
        <time>2016-09-26T18:23:28.000Z</time>
      </trkpt>
      <trkpt lat="48.85346" lon="2.34412">
        <ele>44.799999237061</ele>
        <time>2016-09-26T18:23:42.000Z</time>
      </trkpt>
      <trkpt lat="48.85342" lon="2.34411">
        <ele>45.200000762939</ele>
        <time>2016-09-26T18:23:43.000Z</time>
      </trkpt>
      <trkpt lat="48.85298" lon="2.34391">
        <ele>48.200000762939</ele>
        <time>2016-09-26T18:23:53.000Z</time>
      </trkpt>
      <trkpt lat="48.85253" lon="2.34372">
        <ele>50</ele>
        <time>2016-09-26T18:24:04.000Z</time>
      </trkpt>
      <trkpt lat="48.85211" lon="2.34349">
        <ele>49.400001525879</ele>
        <time>2016-09-26T18:24:15.000Z</time>
      </trkpt>
      <trkpt lat="48.85167" lon="2.34329">
        <ele>48.400001525879</ele>
        <time>2016-09-26T18:24:28.000Z</time>
      </trkpt>
      <trkpt lat="48.85121" lon="2.34315">
        <ele>47.799999237061</ele>
        <time>2016-09-26T18:24:41.000Z</time>
      </trkpt>
      <trkpt lat="48.85077" lon="2.34292">
        <ele>49.400001525879</ele>
        <time>2016-09-26T18:24:56.000Z</time>
      </trkpt>
      <trkpt lat="48.85051" lon="2.34277">
        <ele>51</ele>
        <time>2016-09-26T18:25:07.000Z</time>
      </trkpt>
      <trkpt lat="48.85015" lon="2.34317">
        <ele>54.200000762939</ele>
        <time>2016-09-26T18:25:25.000Z</time>
      </trkpt>
      <trkpt lat="48.84995" lon="2.3438">
        <ele>55.599998474121</ele>
        <time>2016-09-26T18:25:40.000Z</time>
      </trkpt>
      <trkpt lat="48.84986" lon="2.34418">
        <ele>56.200000762939</ele>
        <time>2016-09-26T18:25:47.000Z</time>
      </trkpt>
      <trkpt lat="48.84966" lon="2.34478">
        <ele>56</ele>
        <time>2016-09-26T18:26:21.000Z</time>
      </trkpt>
      <trkpt lat="48.84966" lon="2.3448">
        <ele>55.799999237061</ele>
        <time>2016-09-26T18:26:22.000Z</time>
      </trkpt>
      <trkpt lat="48.84956" lon="2.34551">
        <ele>52.799999237061</ele>
        <time>2016-09-26T18:26:38.000Z</time>
      </trkpt>
      <trkpt lat="48.84935" lon="2.34618">
        <ele>52.599998474121</ele>
        <time>2016-09-26T18:26:50.000Z</time>
      </trkpt>
      <trkpt lat="48.84926" lon="2.34645">
        <ele>54</ele>
        <time>2016-09-26T18:26:55.000Z</time>
      </trkpt>
      <trkpt lat="48.84918" lon="2.34674">
        <ele>54.599998474121</ele>
        <time>2016-09-26T18:27:00.000Z</time>
      </trkpt>
      <trkpt lat="48.84901" lon="2.34741">
        <ele>55.200000762939</ele>
        <time>2016-09-26T18:27:12.000Z</time>
      </trkpt>
      <trkpt lat="48.84887" lon="2.34812">
        <ele>55.799999237061</ele>
        <time>2016-09-26T18:27:23.000Z</time>
      </trkpt>
      <trkpt lat="48.84868" lon="2.3488">
        <ele>56.599998474121</ele>
        <time>2016-09-26T18:27:33.000Z</time>
      </trkpt>
      <trkpt lat="48.84854" lon="2.3493">
        <ele>54</ele>
        <time>2016-09-26T18:27:40.000Z</time>
      </trkpt>
      <trkpt lat="48.84833" lon="2.34993">
        <ele>51</ele>
        <time>2016-09-26T18:27:50.000Z</time>
      </trkpt>
      <trkpt lat="48.84825" lon="2.35022">
        <ele>50</ele>
        <time>2016-09-26T18:27:55.000Z</time>
      </trkpt>
      <trkpt lat="48.84822" lon="2.35034">
        <ele>49.400001525879</ele>
        <time>2016-09-26T18:27:57.000Z</time>
      </trkpt>
      <trkpt lat="48.84813" lon="2.35056">
        <ele>48.799999237061</ele>
        <time>2016-09-26T18:28:01.000Z</time>
      </trkpt>
      <trkpt lat="48.84797" lon="2.35125">
        <ele>45.200000762939</ele>
        <time>2016-09-26T18:28:13.000Z</time>
      </trkpt>
      <trkpt lat="48.8478" lon="2.35191">
        <ele>42.200000762939</ele>
        <time>2016-09-26T18:28:23.000Z</time>
      </trkpt>
      <trkpt lat="48.84761" lon="2.35257">
        <ele>41.599998474121</ele>
        <time>2016-09-26T18:28:34.000Z</time>
      </trkpt>
      <trkpt lat="48.84742" lon="2.35321">
        <ele>40.200000762939</ele>
        <time>2016-09-26T18:28:47.000Z</time>
      </trkpt>
      <trkpt lat="48.84711" lon="2.35372">
        <ele>41.200000762939</ele>
        <time>2016-09-26T18:29:01.000Z</time>
      </trkpt>
      <trkpt lat="48.84675" lon="2.35418">
        <ele>43.200000762939</ele>
        <time>2016-09-26T18:29:13.000Z</time>
      </trkpt>
      <trkpt lat="48.8466" lon="2.35426">
        <ele>44.599998474121</ele>
        <time>2016-09-26T18:29:16.000Z</time>
      </trkpt>
      <trkpt lat="48.84615" lon="2.35441">
        <ele>48.200000762939</ele>
        <time>2016-09-26T18:29:26.000Z</time>
      </trkpt>
      <trkpt lat="48.84568" lon="2.35458">
        <ele>49.400001525879</ele>
        <time>2016-09-26T18:29:37.000Z</time>
      </trkpt>
      <trkpt lat="48.84559" lon="2.35461">
        <ele>49.400001525879</ele>
        <time>2016-09-26T18:29:39.000Z</time>
      </trkpt>
      <trkpt lat="48.84547" lon="2.35466">
        <ele>49.400001525879</ele>
        <time>2016-09-26T18:29:42.000Z</time>
      </trkpt>
      <trkpt lat="48.84524" lon="2.35472">
        <ele>49.599998474121</ele>
        <time>2016-09-26T18:29:48.000Z</time>
      </trkpt>
      <trkpt lat="48.84483" lon="2.35477">
        <ele>50</ele>
        <time>2016-09-26T18:29:59.000Z</time>
      </trkpt>
      <trkpt lat="48.84438" lon="2.35486">
        <ele>48.799999237061</ele>
        <time>2016-09-26T18:30:11.000Z</time>
      </trkpt>
      <trkpt lat="48.84392" lon="2.35491">
        <ele>50.400001525879</ele>
        <time>2016-09-26T18:30:24.000Z</time>
      </trkpt>
      <trkpt lat="48.84376" lon="2.35499">
        <ele>51</ele>
        <time>2016-09-26T18:30:34.000Z</time>
      </trkpt>
      <trkpt lat="48.84364" lon="2.35437">
        <ele>53</ele>
        <time>2016-09-26T18:30:55.000Z</time>
      </trkpt>
      <trkpt lat="48.84318" lon="2.35438">
        <ele>50.200000762939</ele>
        <time>2016-09-26T18:31:10.000Z</time>
      </trkpt>
      <trkpt lat="48.84273" lon="2.3545">
        <ele>47.400001525879</ele>
        <time>2016-09-26T18:31:19.000Z</time>
      </trkpt>
      <trkpt lat="48.84225" lon="2.3546">
        <ele>45.599998474121</ele>
        <time>2016-09-26T18:31:32.000Z</time>
      </trkpt>
      <trkpt lat="48.84202" lon="2.35465">
        <ele>44.200000762939</ele>
        <time>2016-09-26T18:31:38.000Z</time>
      </trkpt>
      <trkpt lat="48.84189" lon="2.35466">
        <ele>43.400001525879</ele>
        <time>2016-09-26T18:31:41.000Z</time>
      </trkpt>
      <trkpt lat="48.84144" lon="2.35474">
        <ele>42.400001525879</ele>
        <time>2016-09-26T18:31:52.000Z</time>
      </trkpt>
      <trkpt lat="48.84097" lon="2.35484">
        <ele>43</ele>
        <time>2016-09-26T18:32:06.000Z</time>
      </trkpt>
      <trkpt lat="48.84087" lon="2.35472">
        <ele>42</ele>
        <time>2016-09-26T18:32:09.000Z</time>
      </trkpt>
      <trkpt lat="48.84082" lon="2.35458">
        <ele>41.200000762939</ele>
        <time>2016-09-26T18:32:11.000Z</time>
      </trkpt>
      <trkpt lat="48.84064" lon="2.35412">
        <ele>38.599998474121</ele>
        <time>2016-09-26T18:32:20.000Z</time>
      </trkpt>
      <trkpt lat="48.84053" lon="2.35411">
        <ele>38.200000762939</ele>
        <time>2016-09-26T18:32:23.000Z</time>
      </trkpt>
      <trkpt lat="48.84008" lon="2.35441">
        <ele>38.400001525879</ele>
        <time>2016-09-26T18:32:33.000Z</time>
      </trkpt>
      <trkpt lat="48.83999" lon="2.35448">
        <ele>38.799999237061</ele>
        <time>2016-09-26T18:32:35.000Z</time>
      </trkpt>
      <trkpt lat="48.83954" lon="2.35475">
        <ele>39.200000762939</ele>
        <time>2016-09-26T18:32:46.000Z</time>
      </trkpt>
      <trkpt lat="48.8393" lon="2.35474">
        <ele>39.400001525879</ele>
        <time>2016-09-26T18:32:54.000Z</time>
      </trkpt>
      <trkpt lat="48.83927" lon="2.35463">
        <ele>39.400001525879</ele>
        <time>2016-09-26T18:32:56.000Z</time>
      </trkpt>
      <trkpt lat="48.83911" lon="2.35397">
        <ele>39.799999237061</ele>
        <time>2016-09-26T18:33:07.000Z</time>
      </trkpt>
      <trkpt lat="48.83897" lon="2.35343">
        <ele>39.599998474121</ele>
        <time>2016-09-26T18:33:19.000Z</time>
      </trkpt>
      <trkpt lat="48.83851" lon="2.35358">
        <ele>41.799999237061</ele>
        <time>2016-09-26T18:33:37.000Z</time>
      </trkpt>
      <trkpt lat="48.83848" lon="2.35357">
        <ele>42.200000762939</ele>
        <time>2016-09-26T18:33:39.000Z</time>
      </trkpt>
      <trkpt lat="48.83822" lon="2.35315">
        <ele>44.200000762939</ele>
        <time>2016-09-26T18:33:51.000Z</time>
      </trkpt>
      <trkpt lat="48.83794" lon="2.35259">
        <ele>46.200000762939</ele>
        <time>2016-09-26T18:34:00.000Z</time>
      </trkpt>
      <trkpt lat="48.83778" lon="2.35227">
        <ele>47.400001525879</ele>
        <time>2016-09-26T18:34:08.000Z</time>
      </trkpt>
      <trkpt lat="48.83735" lon="2.35253">
        <ele>49.400001525879</ele>
        <time>2016-09-26T18:34:26.000Z</time>
      </trkpt>
      <trkpt lat="48.83731" lon="2.35254">
        <ele>49.599998474121</ele>
        <time>2016-09-26T18:34:28.000Z</time>
      </trkpt>
      <trkpt lat="48.83725" lon="2.35258">
        <ele>50</ele>
        <time>2016-09-26T18:34:31.000Z</time>
      </trkpt>
      <trkpt lat="48.83706" lon="2.35275">
        <ele>51</ele>
        <time>2016-09-26T18:35:10.000Z</time>
      </trkpt>
      <trkpt lat="48.83692" lon="2.35319">
        <ele>51.799999237061</ele>
        <time>2016-09-26T18:35:33.000Z</time>
      </trkpt>
      <trkpt lat="48.83661" lon="2.35348">
        <ele>53.200000762939</ele>
        <time>2016-09-26T18:35:52.000Z</time>
      </trkpt>
      <trkpt lat="48.83661" lon="2.35371">
        <ele>53.400001525879</ele>
        <time>2016-09-26T18:36:09.000Z</time>
      </trkpt>
      <trkpt lat="48.83694" lon="2.3542">
        <ele>52.799999237061</ele>
        <time>2016-09-26T18:36:23.000Z</time>
      </trkpt>
      <trkpt lat="48.83698" lon="2.35424">
        <ele>52.799999237061</ele>
        <time>2016-09-26T18:36:24.000Z</time>
      </trkpt>
      <trkpt lat="48.83709" lon="2.35446">
        <ele>52.599998474121</ele>
        <time>2016-09-26T18:36:29.000Z</time>
      </trkpt>
      <trkpt lat="48.83722" lon="2.35503">
        <ele>53.200000762939</ele>
        <time>2016-09-26T18:36:44.000Z</time>
      </trkpt>
      <trkpt lat="48.83676" lon="2.35499">
        <ele>55.400001525879</ele>
        <time>2016-09-26T18:36:55.000Z</time>
      </trkpt>
      <trkpt lat="48.83643" lon="2.35491">
        <ele>56</ele>
        <time>2016-09-26T18:37:02.000Z</time>
      </trkpt>
      <trkpt lat="48.83629" lon="2.35488">
        <ele>56.400001525879</ele>
        <time>2016-09-26T18:37:05.000Z</time>
      </trkpt>
      <trkpt lat="48.8359" lon="2.35464">
        <ele>56.599998474121</ele>
        <time>2016-09-26T18:37:14.000Z</time>
      </trkpt>
      <trkpt lat="48.83581" lon="2.35451">
        <ele>56.400001525879</ele>
        <time>2016-09-26T18:37:17.000Z</time>
      </trkpt>
      <trkpt lat="48.83544" lon="2.35403">
        <ele>55.799999237061</ele>
        <time>2016-09-26T18:37:28.000Z</time>
      </trkpt>
      <trkpt lat="48.83511" lon="2.35355">
        <ele>55.400001525879</ele>
        <time>2016-09-26T18:37:43.000Z</time>
      </trkpt>
      <trkpt lat="48.8347" lon="2.35344">
        <ele>55.799999237061</ele>
        <time>2016-09-26T18:38:23.000Z</time>
      </trkpt>
      <trkpt lat="48.83469" lon="2.3534">
        <ele>55.799999237061</ele>
        <time>2016-09-26T18:38:25.000Z</time>
      </trkpt>
      <trkpt lat="48.83463" lon="2.35329">
        <ele>55.599998474121</ele>
        <time>2016-09-26T18:38:30.000Z</time>
      </trkpt>
      <trkpt lat="48.83443" lon="2.35264">
        <ele>48.799999237061</ele>
        <time>2016-09-26T18:38:49.000Z</time>
      </trkpt>
      <trkpt lat="48.83399" lon="2.35235">
        <ele>46.200000762939</ele>
        <time>2016-09-26T18:39:04.000Z</time>
      </trkpt>
      <trkpt lat="48.83356" lon="2.35199">
        <ele>43.400001525879</ele>
        <time>2016-09-26T18:39:17.000Z</time>
      </trkpt>
      <trkpt lat="48.83314" lon="2.35177">
        <ele>46</ele>
        <time>2016-09-26T18:39:29.000Z</time>
      </trkpt>
      <trkpt lat="48.83281" lon="2.35128">
        <ele>44.599998474121</ele>
        <time>2016-09-26T18:39:38.000Z</time>
      </trkpt>
      <trkpt lat="48.83244" lon="2.35083">
        <ele>44</ele>
        <time>2016-09-26T18:39:51.000Z</time>
      </trkpt>
      <trkpt lat="48.83241" lon="2.35079">
        <ele>43.799999237061</ele>
        <time>2016-09-26T18:39:52.000Z</time>
      </trkpt>
      <trkpt lat="48.83214" lon="2.3503">
        <ele>43</ele>
        <time>2016-09-26T18:40:09.000Z</time>
      </trkpt>
      <trkpt lat="48.83184" lon="2.35075">
        <ele>49</ele>
        <time>2016-09-26T18:40:33.000Z</time>
      </trkpt>
      <trkpt lat="48.83214" lon="2.35127">
        <ele>50.599998474121</ele>
        <time>2016-09-26T18:40:51.000Z</time>
      </trkpt>
      <trkpt lat="48.83219" lon="2.3516">
        <ele>52.599998474121</ele>
        <time>2016-09-26T18:41:00.000Z</time>
      </trkpt>
      <trkpt lat="48.83222" lon="2.35166">
        <ele>52.599998474121</ele>
        <time>2016-09-26T18:41:03.000Z</time>
      </trkpt>
      <trkpt lat="48.8322" lon="2.35177">
        <ele>53.200000762939</ele>
        <time>2016-09-26T18:41:07.000Z</time>
      </trkpt>
      <trkpt lat="48.83191" lon="2.3523">
        <ele>58.799999237061</ele>
        <time>2016-09-26T18:41:22.000Z</time>
      </trkpt>
      <trkpt lat="48.83174" lon="2.35268">
        <ele>60.400001525879</ele>
        <time>2016-09-26T18:42:53.000Z</time>
      </trkpt>
      <trkpt lat="48.83166" lon="2.35273">
        <ele>60.599998474121</ele>
        <time>2016-09-26T18:43:26.000Z</time>
      </trkpt>
      <trkpt lat="48.8312" lon="2.35277">
        <ele>60.799999237061</ele>
        <time>2016-09-26T18:43:44.000Z</time>
      </trkpt>
      <trkpt lat="48.83072" lon="2.35277">
        <ele>62.599998474121</ele>
        <time>2016-09-26T18:44:02.000Z</time>
      </trkpt>
      <trkpt lat="48.83026" lon="2.35284">
        <ele>65.199996948242</ele>
        <time>2016-09-26T18:44:19.000Z</time>
      </trkpt>
      <trkpt lat="48.82979" lon="2.35289">
        <ele>66</ele>
        <time>2016-09-26T18:44:33.000Z</time>
      </trkpt>
      <trkpt lat="48.82932" lon="2.3529">
        <ele>67.199996948242</ele>
        <time>2016-09-26T18:44:46.000Z</time>
      </trkpt>
      <trkpt lat="48.82885" lon="2.35278">
        <ele>68.400001525879</ele>
        <time>2016-09-26T18:44:58.000Z</time>
      </trkpt>
      <trkpt lat="48.82838" lon="2.35279">
        <ele>68.400001525879</ele>
        <time>2016-09-26T18:45:12.000Z</time>
      </trkpt>
      <trkpt lat="48.82806" lon="2.35265">
        <ele>65.800003051758</ele>
        <time>2016-09-26T18:45:32.000Z</time>
      </trkpt>
      <trkpt lat="48.82768" lon="2.35226">
        <ele>63</ele>
        <time>2016-09-26T18:45:46.000Z</time>
      </trkpt>
      <trkpt lat="48.8273" lon="2.35189">
        <ele>61.200000762939</ele>
        <time>2016-09-26T18:45:56.000Z</time>
      </trkpt>
      <trkpt lat="48.82722" lon="2.3518">
        <ele>60.799999237061</ele>
        <time>2016-09-26T18:45:58.000Z</time>
      </trkpt>
      <trkpt lat="48.82685" lon="2.35141">
        <ele>60.200000762939</ele>
        <time>2016-09-26T18:46:06.000Z</time>
      </trkpt>
      <trkpt lat="48.82677" lon="2.3513">
        <ele>60.799999237061</ele>
        <time>2016-09-26T18:46:08.000Z</time>
      </trkpt>
      <trkpt lat="48.82635" lon="2.35096">
        <ele>61.799999237061</ele>
        <time>2016-09-26T18:46:17.000Z</time>
      </trkpt>
      <trkpt lat="48.82596" lon="2.35056">
        <ele>61.200000762939</ele>
        <time>2016-09-26T18:46:29.000Z</time>
      </trkpt>
      <trkpt lat="48.8259" lon="2.35042">
        <ele>60.799999237061</ele>
        <time>2016-09-26T18:46:56.000Z</time>
      </trkpt>
      <trkpt lat="48.82587" lon="2.35036">
        <ele>60.599998474121</ele>
        <time>2016-09-26T18:46:57.000Z</time>
      </trkpt>
      <trkpt lat="48.82581" lon="2.34973">
        <ele>59</ele>
        <time>2016-09-26T18:47:09.000Z</time>
      </trkpt>
      <trkpt lat="48.82579" lon="2.34953">
        <ele>58</ele>
        <time>2016-09-26T18:47:12.000Z</time>
      </trkpt>
      <trkpt lat="48.82571" lon="2.34905">
        <ele>55.599998474121</ele>
        <time>2016-09-26T18:47:19.000Z</time>
      </trkpt>
      <trkpt lat="48.82576" lon="2.34833">
        <ele>53.200000762939</ele>
        <time>2016-09-26T18:47:28.000Z</time>
      </trkpt>
      <trkpt lat="48.82573" lon="2.34806">
        <ele>53.599998474121</ele>
        <time>2016-09-26T18:47:32.000Z</time>
      </trkpt>
      <trkpt lat="48.82573" lon="2.34732">
        <ele>55.200000762939</ele>
        <time>2016-09-26T18:47:42.000Z</time>
      </trkpt>
      <trkpt lat="48.82575" lon="2.34718">
        <ele>55</ele>
        <time>2016-09-26T18:47:44.000Z</time>
      </trkpt>
      <trkpt lat="48.82581" lon="2.34683">
        <ele>55.599998474121</ele>
        <time>2016-09-26T18:47:49.000Z</time>
      </trkpt>
      <trkpt lat="48.82595" lon="2.34612">
        <ele>56.200000762939</ele>
        <time>2016-09-26T18:47:59.000Z</time>
      </trkpt>
      <trkpt lat="48.82607" lon="2.34545">
        <ele>55.599998474121</ele>
        <time>2016-09-26T18:48:10.000Z</time>
      </trkpt>
      <trkpt lat="48.82608" lon="2.34529">
        <ele>55</ele>
        <time>2016-09-26T18:48:12.000Z</time>
      </trkpt>
      <trkpt lat="48.82616" lon="2.34498">
        <ele>53.799999237061</ele>
        <time>2016-09-26T18:48:17.000Z</time>
      </trkpt>
      <trkpt lat="48.82621" lon="2.34452">
        <ele>52.599998474121</ele>
        <time>2016-09-26T18:48:23.000Z</time>
      </trkpt>
      <trkpt lat="48.8263" lon="2.3438">
        <ele>50.799999237061</ele>
        <time>2016-09-26T18:48:31.000Z</time>
      </trkpt>
      <trkpt lat="48.82637" lon="2.34306">
        <ele>50.200000762939</ele>
        <time>2016-09-26T18:48:40.000Z</time>
      </trkpt>
      <trkpt lat="48.82639" lon="2.343">
        <ele>50</ele>
        <time>2016-09-26T18:48:41.000Z</time>
      </trkpt>
      <trkpt lat="48.82652" lon="2.34233">
        <ele>49.200000762939</ele>
        <time>2016-09-26T18:48:55.000Z</time>
      </trkpt>
      <trkpt lat="48.82661" lon="2.34164">
        <ele>50.400001525879</ele>
        <time>2016-09-26T18:49:07.000Z</time>
      </trkpt>
      <trkpt lat="48.82668" lon="2.34093">
        <ele>51.599998474121</ele>
        <time>2016-09-26T18:49:20.000Z</time>
      </trkpt>
      <trkpt lat="48.82673" lon="2.34022">
        <ele>50.599998474121</ele>
        <time>2016-09-26T18:49:33.000Z</time>
      </trkpt>
      <trkpt lat="48.82673" lon="2.33996">
        <ele>50.200000762939</ele>
        <time>2016-09-26T18:49:37.000Z</time>
      </trkpt>
      <trkpt lat="48.82676" lon="2.33962">
        <ele>50.799999237061</ele>
        <time>2016-09-26T18:49:41.000Z</time>
      </trkpt>
      <trkpt lat="48.82676" lon="2.33945">
        <ele>51.599998474121</ele>
        <time>2016-09-26T18:49:43.000Z</time>
      </trkpt>
      <trkpt lat="48.82682" lon="2.33906">
        <ele>53.400001525879</ele>
        <time>2016-09-26T18:49:48.000Z</time>
      </trkpt>
      <trkpt lat="48.82696" lon="2.33833">
        <ele>58.400001525879</ele>
        <time>2016-09-26T18:49:57.000Z</time>
      </trkpt>
      <trkpt lat="48.82698" lon="2.33805">
        <ele>58.599998474121</ele>
        <time>2016-09-26T18:50:00.000Z</time>
      </trkpt>
      <trkpt lat="48.82703" lon="2.33731">
        <ele>59.400001525879</ele>
        <time>2016-09-26T18:50:08.000Z</time>
      </trkpt>
      <trkpt lat="48.82708" lon="2.33705">
        <ele>59</ele>
        <time>2016-09-26T18:50:11.000Z</time>
      </trkpt>
      <trkpt lat="48.82717" lon="2.33634">
        <ele>60.799999237061</ele>
        <time>2016-09-26T18:50:19.000Z</time>
      </trkpt>
      <trkpt lat="48.82719" lon="2.33619">
        <ele>61</ele>
        <time>2016-09-26T18:50:21.000Z</time>
      </trkpt>
      <trkpt lat="48.82732" lon="2.33591">
        <ele>62.200000762939</ele>
        <time>2016-09-26T18:50:25.000Z</time>
      </trkpt>
      <trkpt lat="48.82742" lon="2.3355">
        <ele>65.800003051758</ele>
        <time>2016-09-26T18:50:30.000Z</time>
      </trkpt>
      <trkpt lat="48.82751" lon="2.33482">
        <ele>67</ele>
        <time>2016-09-26T18:50:42.000Z</time>
      </trkpt>
      <trkpt lat="48.8275" lon="2.33471">
        <ele>67.400001525879</ele>
        <time>2016-09-26T18:51:20.000Z</time>
      </trkpt>
      <trkpt lat="48.82716" lon="2.33481">
        <ele>68.599998474121</ele>
        <time>2016-09-26T18:52:22.000Z</time>
      </trkpt>
      <trkpt lat="48.82669" lon="2.33471">
        <ele>71</ele>
        <time>2016-09-26T18:52:45.000Z</time>
      </trkpt>
      <trkpt lat="48.82661" lon="2.33464">
        <ele>71.599998474121</ele>
        <time>2016-09-26T18:52:52.000Z</time>
      </trkpt>
      <trkpt lat="48.82614" lon="2.33456">
        <ele>73.599998474121</ele>
        <time>2016-09-26T18:53:14.000Z</time>
      </trkpt>
      <trkpt lat="48.82572" lon="2.3344">
        <ele>74</ele>
        <time>2016-09-26T18:53:56.000Z</time>
      </trkpt>
      <trkpt lat="48.82579" lon="2.33369">
        <ele>77</ele>
        <time>2016-09-26T18:54:16.000Z</time>
      </trkpt>
      <trkpt lat="48.82586" lon="2.33322">
        <ele>76.400001525879</ele>
        <time>2016-09-26T18:54:27.000Z</time>
      </trkpt>
      <trkpt lat="48.82595" lon="2.33254">
        <ele>78.400001525879</ele>
        <time>2016-09-26T18:54:40.000Z</time>
      </trkpt>
      <trkpt lat="48.82604" lon="2.33186">
        <ele>76.599998474121</ele>
        <time>2016-09-26T18:54:59.000Z</time>
      </trkpt>
      <trkpt lat="48.82605" lon="2.33174">
        <ele>76.199996948242</ele>
        <time>2016-09-26T18:55:09.000Z</time>
      </trkpt>
      <trkpt lat="48.82619" lon="2.33108">
        <ele>74.800003051758</ele>
        <time>2016-09-26T18:55:25.000Z</time>
      </trkpt>
      <trkpt lat="48.82593" lon="2.3305">
        <ele>75.599998474121</ele>
        <time>2016-09-26T18:55:37.000Z</time>
      </trkpt>
      <trkpt lat="48.8256" lon="2.33002">
        <ele>78.199996948242</ele>
        <time>2016-09-26T18:55:49.000Z</time>
      </trkpt>
      <trkpt lat="48.82525" lon="2.32956">
        <ele>77.599998474121</ele>
        <time>2016-09-26T18:56:00.000Z</time>
      </trkpt>
      <trkpt lat="48.82516" lon="2.3294">
        <ele>77</ele>
        <time>2016-09-26T18:56:03.000Z</time>
      </trkpt>
      <trkpt lat="48.82502" lon="2.32922">
        <ele>76.599998474121</ele>
        <time>2016-09-26T18:56:07.000Z</time>
      </trkpt>
      <trkpt lat="48.82466" lon="2.32882">
        <ele>75.599998474121</ele>
        <time>2016-09-26T18:56:18.000Z</time>
      </trkpt>
      <trkpt lat="48.82435" lon="2.32826">
        <ele>74</ele>
        <time>2016-09-26T18:56:33.000Z</time>
      </trkpt>
      <trkpt lat="48.82403" lon="2.32777">
        <ele>73.400001525879</ele>
        <time>2016-09-26T18:56:50.000Z</time>
      </trkpt>
      <trkpt lat="48.82399" lon="2.32769">
        <ele>73.199996948242</ele>
        <time>2016-09-26T18:56:52.000Z</time>
      </trkpt>
      <trkpt lat="48.82364" lon="2.32723">
        <ele>73.199996948242</ele>
        <time>2016-09-26T18:57:06.000Z</time>
      </trkpt>
      <trkpt lat="48.82322" lon="2.32695">
        <ele>75.199996948242</ele>
        <time>2016-09-26T18:57:18.000Z</time>
      </trkpt>
      <trkpt lat="48.8231" lon="2.3266">
        <ele>76</ele>
        <time>2016-09-26T18:58:44.000Z</time>
      </trkpt>
      <trkpt lat="48.82317" lon="2.3263">
        <ele>74.199996948242</ele>
        <time>2016-09-26T19:01:44.000Z</time>
      </trkpt>
      <trkpt lat="48.82318" lon="2.32626">
        <ele>74</ele>
        <time>2016-09-26T19:01:46.000Z</time>
      </trkpt>
      <trkpt lat="48.82319" lon="2.32622">
        <ele>74.199996948242</ele>
        <time>2016-09-26T19:01:48.000Z</time>
      </trkpt>
      <trkpt lat="48.82339" lon="2.32563">
        <ele>76</ele>
        <time>2016-09-26T19:02:07.000Z</time>
      </trkpt>
      <trkpt lat="48.82388" lon="2.32566">
        <ele>76.199996948242</ele>
        <time>2016-09-26T19:02:19.000Z</time>
      </trkpt>
      <trkpt lat="48.82415" lon="2.32517">
        <ele>75.599998474121</ele>
        <time>2016-09-26T19:02:35.000Z</time>
      </trkpt>
      <trkpt lat="48.82434" lon="2.32451">
        <ele>75.800003051758</ele>
        <time>2016-09-26T19:02:50.000Z</time>
      </trkpt>
      <trkpt lat="48.82459" lon="2.32398">
        <ele>75.199996948242</ele>
        <time>2016-09-26T19:03:04.000Z</time>
      </trkpt>
      <trkpt lat="48.82459" lon="2.32394">
        <ele>75</ele>
        <time>2016-09-26T19:03:06.000Z</time>
      </trkpt>
      <trkpt lat="48.82497" lon="2.32373">
        <ele>74.599998474121</ele>
        <time>2016-09-26T19:03:19.000Z</time>
      </trkpt>
      <trkpt lat="48.82516" lon="2.32308">
        <ele>76.199996948242</ele>
        <time>2016-09-26T19:03:28.000Z</time>
      </trkpt>
      <trkpt lat="48.82518" lon="2.32302">
        <ele>76</ele>
        <time>2016-09-26T19:03:29.000Z</time>
      </trkpt>
      <trkpt lat="48.82533" lon="2.32232">
        <ele>74</ele>
        <time>2016-09-26T19:03:39.000Z</time>
      </trkpt>
      <trkpt lat="48.82546" lon="2.32165">
        <ele>72.400001525879</ele>
        <time>2016-09-26T19:03:50.000Z</time>
      </trkpt>
      <trkpt lat="48.82555" lon="2.32138">
        <ele>73.400001525879</ele>
        <time>2016-09-26T19:03:58.000Z</time>
      </trkpt>
      <trkpt lat="48.82569" lon="2.32153">
        <ele>72.400001525879</ele>
        <time>2016-09-26T19:04:06.000Z</time>
      </trkpt>
      <trkpt lat="48.82596" lon="2.32099">
        <ele>68.400001525879</ele>
        <time>2016-09-26T19:04:19.000Z</time>
      </trkpt>
      <trkpt lat="48.82605" lon="2.32058">
        <ele>66.400001525879</ele>
        <time>2016-09-26T19:04:25.000Z</time>
      </trkpt>
      <trkpt lat="48.8261" lon="2.32036">
        <ele>66.599998474121</ele>
        <time>2016-09-26T19:04:28.000Z</time>
      </trkpt>
      <trkpt lat="48.82615" lon="2.32012">
        <ele>67.199996948242</ele>
        <time>2016-09-26T19:04:31.000Z</time>
      </trkpt>
      <trkpt lat="48.82627" lon="2.31939">
        <ele>69.199996948242</ele>
        <time>2016-09-26T19:04:40.000Z</time>
      </trkpt>
      <trkpt lat="48.82629" lon="2.3193">
        <ele>69.199996948242</ele>
        <time>2016-09-26T19:04:41.000Z</time>
      </trkpt>
      <trkpt lat="48.8264" lon="2.31863">
        <ele>67.800003051758</ele>
        <time>2016-09-26T19:04:48.000Z</time>
      </trkpt>
      <trkpt lat="48.82654" lon="2.31797">
        <ele>68.199996948242</ele>
        <time>2016-09-26T19:04:55.000Z</time>
      </trkpt>
      <trkpt lat="48.82658" lon="2.31778">
        <ele>68.199996948242</ele>
        <time>2016-09-26T19:04:57.000Z</time>
      </trkpt>
      <trkpt lat="48.82671" lon="2.31712">
        <ele>68</ele>
        <time>2016-09-26T19:05:05.000Z</time>
      </trkpt>
      <trkpt lat="48.82677" lon="2.31692">
        <ele>67.199996948242</ele>
        <time>2016-09-26T19:05:08.000Z</time>
      </trkpt>
      <trkpt lat="48.82708" lon="2.31636">
        <ele>66.199996948242</ele>
        <time>2016-09-26T19:05:17.000Z</time>
      </trkpt>
      <trkpt lat="48.82743" lon="2.31589">
        <ele>67.400001525879</ele>
        <time>2016-09-26T19:05:26.000Z</time>
      </trkpt>
      <trkpt lat="48.82779" lon="2.31543">
        <ele>69.599998474121</ele>
        <time>2016-09-26T19:05:36.000Z</time>
      </trkpt>
      <trkpt lat="48.82787" lon="2.3153">
        <ele>69.800003051758</ele>
        <time>2016-09-26T19:06:14.000Z</time>
      </trkpt>
      <trkpt lat="48.8283" lon="2.31534">
        <ele>70</ele>
        <time>2016-09-26T19:06:33.000Z</time>
      </trkpt>
      <trkpt lat="48.82864" lon="2.31479">
        <ele>68.800003051758</ele>
        <time>2016-09-26T19:06:44.000Z</time>
      </trkpt>
      <trkpt lat="48.8287" lon="2.31468">
        <ele>68</ele>
        <time>2016-09-26T19:06:45.000Z</time>
      </trkpt>
      <trkpt lat="48.82906" lon="2.31421">
        <ele>66</ele>
        <time>2016-09-26T19:06:55.000Z</time>
      </trkpt>
      <trkpt lat="48.82935" lon="2.31364">
        <ele>64.400001525879</ele>
        <time>2016-09-26T19:07:06.000Z</time>
      </trkpt>
      <trkpt lat="48.82956" lon="2.31331">
        <ele>63.799999237061</ele>
        <time>2016-09-26T19:07:13.000Z</time>
      </trkpt>
      <trkpt lat="48.82992" lon="2.31281">
        <ele>65</ele>
        <time>2016-09-26T19:07:22.000Z</time>
      </trkpt>
      <trkpt lat="48.83024" lon="2.3123">
        <ele>65.800003051758</ele>
        <time>2016-09-26T19:07:31.000Z</time>
      </trkpt>
      <trkpt lat="48.83057" lon="2.31182">
        <ele>66.199996948242</ele>
        <time>2016-09-26T19:07:41.000Z</time>
      </trkpt>
      <trkpt lat="48.83068" lon="2.31174">
        <ele>66.400001525879</ele>
        <time>2016-09-26T19:07:46.000Z</time>
      </trkpt>
      <trkpt lat="48.83071" lon="2.31176">
        <ele>66.400001525879</ele>
        <time>2016-09-26T19:07:49.000Z</time>
      </trkpt>
      <trkpt lat="48.83112" lon="2.312">
        <ele>67.599998474121</ele>
        <time>2016-09-26T19:08:11.000Z</time>
      </trkpt>
      <trkpt lat="48.83149" lon="2.31149">
        <ele>68.800003051758</ele>
        <time>2016-09-26T19:08:21.000Z</time>
      </trkpt>
      <trkpt lat="48.83183" lon="2.31098">
        <ele>67</ele>
        <time>2016-09-26T19:08:30.000Z</time>
      </trkpt>
      <trkpt lat="48.83208" lon="2.31051">
        <ele>62.400001525879</ele>
        <time>2016-09-26T19:08:43.000Z</time>
      </trkpt>
      <trkpt lat="48.83209" lon="2.31045">
        <ele>62</ele>
        <time>2016-09-26T19:08:45.000Z</time>
      </trkpt>
      <trkpt lat="48.83184" lon="2.30993">
        <ele>61</ele>
        <time>2016-09-26T19:08:58.000Z</time>
      </trkpt>
      <trkpt lat="48.83153" lon="2.30943">
        <ele>60.799999237061</ele>
        <time>2016-09-26T19:09:06.000Z</time>
      </trkpt>
      <trkpt lat="48.83139" lon="2.30918">
        <ele>60.799999237061</ele>
        <time>2016-09-26T19:09:09.000Z</time>
      </trkpt>
      <trkpt lat="48.8313" lon="2.30904">
        <ele>60.599998474121</ele>
        <time>2016-09-26T19:09:11.000Z</time>
      </trkpt>
      <trkpt lat="48.83098" lon="2.30866">
        <ele>60.599998474121</ele>
        <time>2016-09-26T19:09:17.000Z</time>
      </trkpt>
      <trkpt lat="48.8306" lon="2.3082">
        <ele>62.200000762939</ele>
        <time>2016-09-26T19:09:24.000Z</time>
      </trkpt>
      <trkpt lat="48.83019" lon="2.30772">
        <ele>65.599998474121</ele>
        <time>2016-09-26T19:09:31.000Z</time>
      </trkpt>
      <trkpt lat="48.8298" lon="2.30723">
        <ele>67.400001525879</ele>
        <time>2016-09-26T19:09:38.000Z</time>
      </trkpt>
      <trkpt lat="48.82943" lon="2.30678">
        <ele>66.599998474121</ele>
        <time>2016-09-26T19:09:45.000Z</time>
      </trkpt>
      <trkpt lat="48.8291" lon="2.30641">
        <ele>65.800003051758</ele>
        <time>2016-09-26T19:09:53.000Z</time>
      </trkpt>
      <trkpt lat="48.8287" lon="2.30606">
        <ele>65.599998474121</ele>
        <time>2016-09-26T19:10:08.000Z</time>
      </trkpt>
      <trkpt lat="48.82867" lon="2.30603">
        <ele>65.599998474121</ele>
        <time>2016-09-26T19:10:11.000Z</time>
      </trkpt>
      <trkpt lat="48.82865" lon="2.30594">
        <ele>65.199996948242</ele>
        <time>2016-09-26T19:11:08.000Z</time>
      </trkpt>
      <trkpt lat="48.82824" lon="2.30558">
        <ele>66.199996948242</ele>
        <time>2016-09-26T19:11:23.000Z</time>
      </trkpt>
      <trkpt lat="48.82794" lon="2.30529">
        <ele>67.400001525879</ele>
        <time>2016-09-26T19:11:33.000Z</time>
      </trkpt>
      <trkpt lat="48.82788" lon="2.30518">
        <ele>67.400001525879</ele>
        <time>2016-09-26T19:11:35.000Z</time>
      </trkpt>
      <trkpt lat="48.82789" lon="2.30504">
        <ele>67.400001525879</ele>
        <time>2016-09-26T19:11:37.000Z</time>
      </trkpt>
      <trkpt lat="48.82805" lon="2.30435">
        <ele>67</ele>
        <time>2016-09-26T19:11:45.000Z</time>
      </trkpt>
      <trkpt lat="48.82812" lon="2.30412">
        <ele>67.599998474121</ele>
        <time>2016-09-26T19:11:47.000Z</time>
      </trkpt>
      <trkpt lat="48.82821" lon="2.30356">
        <ele>68.400001525879</ele>
        <time>2016-09-26T19:11:51.000Z</time>
      </trkpt>
      <trkpt lat="48.82841" lon="2.30306">
        <ele>68.599998474121</ele>
        <time>2016-09-26T19:12:14.000Z</time>
      </trkpt>
      <trkpt lat="48.82848" lon="2.30321">
        <ele>68.800003051758</ele>
        <time>2016-09-26T19:12:26.000Z</time>
      </trkpt>
      <trkpt lat="48.82877" lon="2.30378">
        <ele>67.599998474121</ele>
        <time>2016-09-26T19:12:44.000Z</time>
      </trkpt>
      <trkpt lat="48.82912" lon="2.30426">
        <ele>66.400001525879</ele>
        <time>2016-09-26T19:12:59.000Z</time>
      </trkpt>
      <trkpt lat="48.82937" lon="2.30472">
        <ele>66.800003051758</ele>
        <time>2016-09-26T19:13:12.000Z</time>
      </trkpt>
      <trkpt lat="48.82973" lon="2.30519">
        <ele>65.400001525879</ele>
        <time>2016-09-26T19:13:20.000Z</time>
      </trkpt>
      <trkpt lat="48.83009" lon="2.30561">
        <ele>63.599998474121</ele>
        <time>2016-09-26T19:13:27.000Z</time>
      </trkpt>
      <trkpt lat="48.83036" lon="2.30598">
        <ele>63.200000762939</ele>
        <time>2016-09-26T19:13:33.000Z</time>
      </trkpt>
      <trkpt lat="48.83052" lon="2.30612">
        <ele>63.400001525879</ele>
        <time>2016-09-26T19:13:36.000Z</time>
      </trkpt>
      <trkpt lat="48.83068" lon="2.30624">
        <ele>63.599998474121</ele>
        <time>2016-09-26T19:13:39.000Z</time>
      </trkpt>
      <trkpt lat="48.83109" lon="2.30659">
        <ele>64</ele>
        <time>2016-09-26T19:13:48.000Z</time>
      </trkpt>
      <trkpt lat="48.83152" lon="2.30694">
        <ele>62.799999237061</ele>
        <time>2016-09-26T19:13:57.000Z</time>
      </trkpt>
      <trkpt lat="48.83169" lon="2.30708">
        <ele>62</ele>
        <time>2016-09-26T19:14:08.000Z</time>
      </trkpt>
      <trkpt lat="48.8314" lon="2.30689">
        <ele>62.799999237061</ele>
        <time>2016-09-26T19:14:21.000Z</time>
      </trkpt>
      <trkpt lat="48.83164" lon="2.30626">
        <ele>64</ele>
        <time>2016-09-26T19:14:34.000Z</time>
      </trkpt>
      <trkpt lat="48.83181" lon="2.30561">
        <ele>63.799999237061</ele>
        <time>2016-09-26T19:14:46.000Z</time>
      </trkpt>
      <trkpt lat="48.83199" lon="2.30494">
        <ele>61.599998474121</ele>
        <time>2016-09-26T19:15:03.000Z</time>
      </trkpt>
      <trkpt lat="48.83202" lon="2.30426">
        <ele>62.400001525879</ele>
        <time>2016-09-26T19:15:22.000Z</time>
      </trkpt>
      <trkpt lat="48.8321" lon="2.30357">
        <ele>63.200000762939</ele>
        <time>2016-09-26T19:15:41.000Z</time>
      </trkpt>
      <trkpt lat="48.83228" lon="2.30295">
        <ele>63.200000762939</ele>
        <time>2016-09-26T19:16:03.000Z</time>
      </trkpt>
      <trkpt lat="48.83251" lon="2.30234">
        <ele>61</ele>
        <time>2016-09-26T19:16:19.000Z</time>
      </trkpt>
      <trkpt lat="48.83261" lon="2.30203">
        <ele>59</ele>
        <time>2016-09-26T19:16:24.000Z</time>
      </trkpt>
      <trkpt lat="48.83277" lon="2.30133">
        <ele>56</ele>
        <time>2016-09-26T19:16:36.000Z</time>
      </trkpt>
      <trkpt lat="48.83275" lon="2.30074">
        <ele>56.400001525879</ele>
        <time>2016-09-26T19:17:19.000Z</time>
      </trkpt>
      <trkpt lat="48.83277" lon="2.3007">
        <ele>56.599998474121</ele>
        <time>2016-09-26T19:17:23.000Z</time>
      </trkpt>
      <trkpt lat="48.83278" lon="2.30053">
        <ele>57.200000762939</ele>
        <time>2016-09-26T19:19:21.000Z</time>
      </trkpt>
      <trkpt lat="48.83309" lon="2.29999">
        <ele>60.799999237061</ele>
        <time>2016-09-26T19:19:38.000Z</time>
      </trkpt>
      <trkpt lat="48.8334" lon="2.29947">
        <ele>61.400001525879</ele>
        <time>2016-09-26T19:19:52.000Z</time>
      </trkpt>
      <trkpt lat="48.8336" lon="2.29901">
        <ele>62</ele>
        <time>2016-09-26T19:20:04.000Z</time>
      </trkpt>
      <trkpt lat="48.83354" lon="2.29886">
        <ele>61.799999237061</ele>
        <time>2016-09-26T19:20:07.000Z</time>
      </trkpt>
      <trkpt lat="48.83318" lon="2.29841">
        <ele>59.799999237061</ele>
        <time>2016-09-26T19:20:20.000Z</time>
      </trkpt>
      <trkpt lat="48.83306" lon="2.29827">
        <ele>59.200000762939</ele>
        <time>2016-09-26T19:20:23.000Z</time>
      </trkpt>
      <trkpt lat="48.83284" lon="2.29803">
        <ele>59.400001525879</ele>
        <time>2016-09-26T19:20:29.000Z</time>
      </trkpt>
      <trkpt lat="48.83276" lon="2.29794">
        <ele>59.400001525879</ele>
        <time>2016-09-26T19:20:31.000Z</time>
      </trkpt>
      <trkpt lat="48.8327" lon="2.29784">
        <ele>59.599998474121</ele>
        <time>2016-09-26T19:20:33.000Z</time>
      </trkpt>
      <trkpt lat="48.83265" lon="2.29779">
        <ele>59.799999237061</ele>
        <time>2016-09-26T19:20:34.000Z</time>
      </trkpt>
      <trkpt lat="48.83256" lon="2.29772">
        <ele>60</ele>
        <time>2016-09-26T19:20:36.000Z</time>
      </trkpt>
      <trkpt lat="48.83245" lon="2.29763">
        <ele>60.400001525879</ele>
        <time>2016-09-26T19:20:38.000Z</time>
      </trkpt>
      <trkpt lat="48.83202" lon="2.29734">
        <ele>60.799999237061</ele>
        <time>2016-09-26T19:20:46.000Z</time>
      </trkpt>
      <trkpt lat="48.83166" lon="2.2971">
        <ele>61.799999237061</ele>
        <time>2016-09-26T19:20:53.000Z</time>
      </trkpt>
      <trkpt lat="48.83156" lon="2.29692">
        <ele>62.799999237061</ele>
        <time>2016-09-26T19:20:58.000Z</time>
      </trkpt>
      <trkpt lat="48.83157" lon="2.29685">
        <ele>63</ele>
        <time>2016-09-26T19:21:02.000Z</time>
      </trkpt>
      <trkpt lat="48.83176" lon="2.29619">
        <ele>64</ele>
        <time>2016-09-26T19:21:17.000Z</time>
      </trkpt>
      <trkpt lat="48.83185" lon="2.29592">
        <ele>63.400001525879</ele>
        <time>2016-09-26T19:21:55.000Z</time>
      </trkpt>
      <trkpt lat="48.83214" lon="2.29541">
        <ele>61</ele>
        <time>2016-09-26T19:22:09.000Z</time>
      </trkpt>
      <trkpt lat="48.83235" lon="2.29513">
        <ele>60.200000762939</ele>
        <time>2016-09-26T19:22:16.000Z</time>
      </trkpt>
      <trkpt lat="48.83272" lon="2.29467">
        <ele>61</ele>
        <time>2016-09-26T19:22:31.000Z</time>
      </trkpt>
      <trkpt lat="48.83307" lon="2.29417">
        <ele>60.799999237061</ele>
        <time>2016-09-26T19:22:50.000Z</time>
      </trkpt>
      <trkpt lat="48.83304" lon="2.29409">
        <ele>61.200000762939</ele>
        <time>2016-09-26T19:22:52.000Z</time>
      </trkpt>
      <trkpt lat="48.83281" lon="2.29384">
        <ele>62.799999237061</ele>
        <time>2016-09-26T19:22:59.000Z</time>
      </trkpt>
      <trkpt lat="48.8324" lon="2.29356">
        <ele>62.599998474121</ele>
        <time>2016-09-26T19:23:07.000Z</time>
      </trkpt>
      <trkpt lat="48.83219" lon="2.29324">
        <ele>62.200000762939</ele>
        <time>2016-09-26T19:23:15.000Z</time>
      </trkpt>
      <trkpt lat="48.83241" lon="2.29297">
        <ele>63.200000762939</ele>
        <time>2016-09-26T19:23:24.000Z</time>
      </trkpt>
      <trkpt lat="48.83275" lon="2.29249">
        <ele>60</ele>
        <time>2016-09-26T19:23:35.000Z</time>
      </trkpt>
      <trkpt lat="48.83286" lon="2.29225">
        <ele>59.400001525879</ele>
        <time>2016-09-26T19:23:42.000Z</time>
      </trkpt>
      <trkpt lat="48.83292" lon="2.29214">
        <ele>59</ele>
        <time>2016-09-26T19:24:28.000Z</time>
      </trkpt>
      <trkpt lat="48.83321" lon="2.2916">
        <ele>57</ele>
        <time>2016-09-26T19:24:51.000Z</time>
      </trkpt>
      <trkpt lat="48.83357" lon="2.29109">
        <ele>54.200000762939</ele>
        <time>2016-09-26T19:25:10.000Z</time>
      </trkpt>
      <trkpt lat="48.83388" lon="2.29087">
        <ele>52.400001525879</ele>
        <time>2016-09-26T19:25:18.000Z</time>
      </trkpt>
      <trkpt lat="48.83399" lon="2.29056">
        <ele>49.799999237061</ele>
        <time>2016-09-26T19:25:24.000Z</time>
      </trkpt>
      <trkpt lat="48.83403" lon="2.29051">
        <ele>49.200000762939</ele>
        <time>2016-09-26T19:25:27.000Z</time>
      </trkpt>
      <trkpt lat="48.83426" lon="2.29039">
        <ele>48.599998474121</ele>
        <time>2016-09-26T19:26:22.000Z</time>
      </trkpt>
      <trkpt lat="48.83461" lon="2.29085">
        <ele>49.599998474121</ele>
        <time>2016-09-26T19:26:38.000Z</time>
      </trkpt>
      <trkpt lat="48.83486" lon="2.29129">
        <ele>49.400001525879</ele>
        <time>2016-09-26T19:26:46.000Z</time>
      </trkpt>
      <trkpt lat="48.83501" lon="2.29147">
        <ele>49.200000762939</ele>
        <time>2016-09-26T19:26:49.000Z</time>
      </trkpt>
      <trkpt lat="48.83539" lon="2.29193">
        <ele>48.799999237061</ele>
        <time>2016-09-26T19:26:56.000Z</time>
      </trkpt>
      <trkpt lat="48.83573" lon="2.29246">
        <ele>48.200000762939</ele>
        <time>2016-09-26T19:27:04.000Z</time>
      </trkpt>
      <trkpt lat="48.83606" lon="2.29293">
        <ele>47</ele>
        <time>2016-09-26T19:27:14.000Z</time>
      </trkpt>
      <trkpt lat="48.8361" lon="2.2939">
        <ele>49.200000762939</ele>
        <time>2016-09-26T19:27:28.000Z</time>
      </trkpt>
      <trkpt lat="48.83638" lon="2.29447">
        <ele>50</ele>
        <time>2016-09-26T19:27:42.000Z</time>
      </trkpt>
      <trkpt lat="48.83666" lon="2.29494">
        <ele>50.200000762939</ele>
        <time>2016-09-26T19:27:50.000Z</time>
      </trkpt>
      <trkpt lat="48.83686" lon="2.29537">
        <ele>48.200000762939</ele>
        <time>2016-09-26T19:27:55.000Z</time>
      </trkpt>
      <trkpt lat="48.83706" lon="2.29572">
        <ele>45.599998474121</ele>
        <time>2016-09-26T19:28:00.000Z</time>
      </trkpt>
      <trkpt lat="48.83734" lon="2.29628">
        <ele>44.799999237061</ele>
        <time>2016-09-26T19:28:08.000Z</time>
      </trkpt>
      <trkpt lat="48.83752" lon="2.29668">
        <ele>44.400001525879</ele>
        <time>2016-09-26T19:28:13.000Z</time>
      </trkpt>
      <trkpt lat="48.83781" lon="2.29719">
        <ele>45.799999237061</ele>
        <time>2016-09-26T19:28:20.000Z</time>
      </trkpt>
      <trkpt lat="48.83811" lon="2.29771">
        <ele>47.799999237061</ele>
        <time>2016-09-26T19:28:27.000Z</time>
      </trkpt>
      <trkpt lat="48.83837" lon="2.29833">
        <ele>51</ele>
        <time>2016-09-26T19:28:35.000Z</time>
      </trkpt>
      <trkpt lat="48.8384" lon="2.29841">
        <ele>51.200000762939</ele>
        <time>2016-09-26T19:28:36.000Z</time>
      </trkpt>
      <trkpt lat="48.83846" lon="2.29855">
        <ele>51.200000762939</ele>
        <time>2016-09-26T19:28:38.000Z</time>
      </trkpt>
      <trkpt lat="48.83878" lon="2.29907">
        <ele>51.400001525879</ele>
        <time>2016-09-26T19:28:46.000Z</time>
      </trkpt>
      <trkpt lat="48.83885" lon="2.29923">
        <ele>51.799999237061</ele>
        <time>2016-09-26T19:28:48.000Z</time>
      </trkpt>
      <trkpt lat="48.83913" lon="2.29978">
        <ele>53.400001525879</ele>
        <time>2016-09-26T19:28:55.000Z</time>
      </trkpt>
      <trkpt lat="48.83937" lon="2.30038">
        <ele>54.400001525879</ele>
        <time>2016-09-26T19:29:01.000Z</time>
      </trkpt>
      <trkpt lat="48.8394" lon="2.30047">
        <ele>54.599998474121</ele>
        <time>2016-09-26T19:29:02.000Z</time>
      </trkpt>
      <trkpt lat="48.83961" lon="2.3011">
        <ele>54.200000762939</ele>
        <time>2016-09-26T19:29:09.000Z</time>
      </trkpt>
      <trkpt lat="48.83964" lon="2.30133">
        <ele>53.799999237061</ele>
        <time>2016-09-26T19:29:12.000Z</time>
      </trkpt>
      <trkpt lat="48.83989" lon="2.30194">
        <ele>52.599998474121</ele>
        <time>2016-09-26T19:29:24.000Z</time>
      </trkpt>
      <trkpt lat="48.83979" lon="2.30241">
        <ele>52.599998474121</ele>
        <time>2016-09-26T19:30:43.000Z</time>
      </trkpt>
      <trkpt lat="48.83984" lon="2.30237">
        <ele>52.400001525879</ele>
        <time>2016-09-26T19:30:50.000Z</time>
      </trkpt>
      <trkpt lat="48.8403" lon="2.30256">
        <ele>51.799999237061</ele>
        <time>2016-09-26T19:31:02.000Z</time>
      </trkpt>
      <trkpt lat="48.84035" lon="2.30257">
        <ele>51.599998474121</ele>
        <time>2016-09-26T19:31:03.000Z</time>
      </trkpt>
      <trkpt lat="48.84084" lon="2.30274">
        <ele>50.200000762939</ele>
        <time>2016-09-26T19:31:11.000Z</time>
      </trkpt>
      <trkpt lat="48.84133" lon="2.30285">
        <ele>48.200000762939</ele>
        <time>2016-09-26T19:31:19.000Z</time>
      </trkpt>
      <trkpt lat="48.84175" lon="2.30304">
        <ele>46.200000762939</ele>
        <time>2016-09-26T19:31:32.000Z</time>
      </trkpt>
      <trkpt lat="48.84192" lon="2.30318">
        <ele>45.400001525879</ele>
        <time>2016-09-26T19:31:47.000Z</time>
      </trkpt>
      <trkpt lat="48.84236" lon="2.30292">
        <ele>45.799999237061</ele>
        <time>2016-09-26T19:32:01.000Z</time>
      </trkpt>
      <trkpt lat="48.84281" lon="2.30262">
        <ele>45.599998474121</ele>
        <time>2016-09-26T19:32:16.000Z</time>
      </trkpt>
      <trkpt lat="48.84324" lon="2.30241">
        <ele>44.400001525879</ele>
        <time>2016-09-26T19:32:27.000Z</time>
      </trkpt>
      <trkpt lat="48.84371" lon="2.30222">
        <ele>43</ele>
        <time>2016-09-26T19:32:38.000Z</time>
      </trkpt>
      <trkpt lat="48.84419" lon="2.3021">
        <ele>44</ele>
        <time>2016-09-26T19:32:46.000Z</time>
      </trkpt>
      <trkpt lat="48.84467" lon="2.30193">
        <ele>42.599998474121</ele>
        <time>2016-09-26T19:32:54.000Z</time>
      </trkpt>
      <trkpt lat="48.84516" lon="2.3018">
        <ele>40.400001525879</ele>
        <time>2016-09-26T19:33:02.000Z</time>
      </trkpt>
      <trkpt lat="48.84559" lon="2.30161">
        <ele>40</ele>
        <time>2016-09-26T19:33:09.000Z</time>
      </trkpt>
      <trkpt lat="48.84605" lon="2.30138">
        <ele>41</ele>
        <time>2016-09-26T19:33:16.000Z</time>
      </trkpt>
      <trkpt lat="48.84653" lon="2.30123">
        <ele>43.799999237061</ele>
        <time>2016-09-26T19:33:24.000Z</time>
      </trkpt>
      <trkpt lat="48.84691" lon="2.30117">
        <ele>46.200000762939</ele>
        <time>2016-09-26T19:33:32.000Z</time>
      </trkpt>
      <trkpt lat="48.84736" lon="2.30132">
        <ele>43.200000762939</ele>
        <time>2016-09-26T19:34:22.000Z</time>
      </trkpt>
      <trkpt lat="48.84745" lon="2.30136">
        <ele>42.599998474121</ele>
        <time>2016-09-26T19:34:30.000Z</time>
      </trkpt>
      <trkpt lat="48.84759" lon="2.30147">
        <ele>41.400001525879</ele>
        <time>2016-09-26T19:34:44.000Z</time>
      </trkpt>
      <trkpt lat="48.848" lon="2.30151">
        <ele>41</ele>
        <time>2016-09-26T19:35:03.000Z</time>
      </trkpt>
      <trkpt lat="48.84823" lon="2.30087">
        <ele>43</ele>
        <time>2016-09-26T19:35:20.000Z</time>
      </trkpt>
      <trkpt lat="48.84849" lon="2.30023">
        <ele>42.599998474121</ele>
        <time>2016-09-26T19:35:31.000Z</time>
      </trkpt>
      <trkpt lat="48.84851" lon="2.30018">
        <ele>42.400001525879</ele>
        <time>2016-09-26T19:35:32.000Z</time>
      </trkpt>
      <trkpt lat="48.8488" lon="2.29956">
        <ele>43.400001525879</ele>
        <time>2016-09-26T19:35:42.000Z</time>
      </trkpt>
      <trkpt lat="48.84894" lon="2.29887">
        <ele>43.799999237061</ele>
        <time>2016-09-26T19:35:50.000Z</time>
      </trkpt>
      <trkpt lat="48.849" lon="2.29863">
        <ele>43.799999237061</ele>
        <time>2016-09-26T19:35:53.000Z</time>
      </trkpt>
      <trkpt lat="48.84921" lon="2.29799">
        <ele>43.400001525879</ele>
        <time>2016-09-26T19:36:01.000Z</time>
      </trkpt>
      <trkpt lat="48.84944" lon="2.29729">
        <ele>44.799999237061</ele>
        <time>2016-09-26T19:36:09.000Z</time>
      </trkpt>
      <trkpt lat="48.84964" lon="2.29665">
        <ele>44</ele>
        <time>2016-09-26T19:36:16.000Z</time>
      </trkpt>
      <trkpt lat="48.84983" lon="2.29602">
        <ele>41.799999237061</ele>
        <time>2016-09-26T19:36:23.000Z</time>
      </trkpt>
      <trkpt lat="48.85003" lon="2.2954">
        <ele>41</ele>
        <time>2016-09-26T19:36:31.000Z</time>
      </trkpt>
      <trkpt lat="48.85022" lon="2.29471">
        <ele>41</ele>
        <time>2016-09-26T19:36:40.000Z</time>
      </trkpt>
      <trkpt lat="48.85037" lon="2.29426">
        <ele>41</ele>
        <time>2016-09-26T19:36:45.000Z</time>
      </trkpt>
      <trkpt lat="48.85058" lon="2.29364">
        <ele>41.200000762939</ele>
        <time>2016-09-26T19:36:52.000Z</time>
      </trkpt>
      <trkpt lat="48.85081" lon="2.29298">
        <ele>40.799999237061</ele>
        <time>2016-09-26T19:37:04.000Z</time>
      </trkpt>
      <trkpt lat="48.85107" lon="2.29242">
        <ele>39</ele>
        <time>2016-09-26T19:37:21.000Z</time>
      </trkpt>
      <trkpt lat="48.8512" lon="2.29227">
        <ele>39.599998474121</ele>
        <time>2016-09-26T19:37:29.000Z</time>
      </trkpt>
      <trkpt lat="48.85136" lon="2.29208">
        <ele>40.400001525879</ele>
        <time>2016-09-26T19:37:35.000Z</time>
      </trkpt>
      <trkpt lat="48.85148" lon="2.29196">
        <ele>40.799999237061</ele>
        <time>2016-09-26T19:37:38.000Z</time>
      </trkpt>
      <trkpt lat="48.85183" lon="2.29148">
        <ele>40.599998474121</ele>
        <time>2016-09-26T19:37:46.000Z</time>
      </trkpt>
      <trkpt lat="48.85218" lon="2.29094">
        <ele>39.799999237061</ele>
        <time>2016-09-26T19:37:54.000Z</time>
      </trkpt>
      <trkpt lat="48.85256" lon="2.29055">
        <ele>40.599998474121</ele>
        <time>2016-09-26T19:38:03.000Z</time>
      </trkpt>
      <trkpt lat="48.85295" lon="2.2902">
        <ele>40.400001525879</ele>
        <time>2016-09-26T19:38:12.000Z</time>
      </trkpt>
      <trkpt lat="48.85337" lon="2.28983">
        <ele>40.799999237061</ele>
        <time>2016-09-26T19:38:20.000Z</time>
      </trkpt>
      <trkpt lat="48.85367" lon="2.28956">
        <ele>42</ele>
        <time>2016-09-26T19:38:29.000Z</time>
      </trkpt>
      <trkpt lat="48.85408" lon="2.28915">
        <ele>43.599998474121</ele>
        <time>2016-09-26T19:38:40.000Z</time>
      </trkpt>
      <trkpt lat="48.85451" lon="2.28895">
        <ele>42.599998474121</ele>
        <time>2016-09-26T19:38:52.000Z</time>
      </trkpt>
      <trkpt lat="48.85463" lon="2.28893">
        <ele>41.799999237061</ele>
        <time>2016-09-26T19:40:33.000Z</time>
      </trkpt>
      <trkpt lat="48.85496" lon="2.28844">
        <ele>38.200000762939</ele>
        <time>2016-09-26T19:40:48.000Z</time>
      </trkpt>
      <trkpt lat="48.85523" lon="2.28815">
        <ele>35.400001525879</ele>
        <time>2016-09-26T19:40:56.000Z</time>
      </trkpt>
      <trkpt lat="48.85536" lon="2.28798">
        <ele>34.400001525879</ele>
        <time>2016-09-26T19:40:59.000Z</time>
      </trkpt>
      <trkpt lat="48.8558" lon="2.28755">
        <ele>33</ele>
        <time>2016-09-26T19:41:06.000Z</time>
      </trkpt>
      <trkpt lat="48.8562" lon="2.28718">
        <ele>32.400001525879</ele>
        <time>2016-09-26T19:41:12.000Z</time>
      </trkpt>
      <trkpt lat="48.85659" lon="2.28681">
        <ele>36</ele>
        <time>2016-09-26T19:41:21.000Z</time>
      </trkpt>
      <trkpt lat="48.85679" lon="2.28648">
        <ele>42</ele>
        <time>2016-09-26T19:42:16.000Z</time>
      </trkpt>
      <trkpt lat="48.85701" lon="2.28647">
        <ele>45</ele>
        <time>2016-09-26T19:43:11.000Z</time>
      </trkpt>
      <trkpt lat="48.85739" lon="2.28686">
        <ele>47.400001525879</ele>
        <time>2016-09-26T19:43:28.000Z</time>
      </trkpt>
      <trkpt lat="48.85749" lon="2.28695">
        <ele>47.799999237061</ele>
        <time>2016-09-26T19:43:35.000Z</time>
      </trkpt>
      <trkpt lat="48.85779" lon="2.28747">
        <ele>46.200000762939</ele>
        <time>2016-09-26T19:43:49.000Z</time>
      </trkpt>
      <trkpt lat="48.85786" lon="2.28756">
        <ele>45.799999237061</ele>
        <time>2016-09-26T19:43:51.000Z</time>
      </trkpt>
      <trkpt lat="48.85811" lon="2.28786">
        <ele>44.400001525879</ele>
        <time>2016-09-26T19:44:11.000Z</time>
      </trkpt>
      <trkpt lat="48.85846" lon="2.28734">
        <ele>50.799999237061</ele>
        <time>2016-09-26T19:44:40.000Z</time>
      </trkpt>
      <trkpt lat="48.85847" lon="2.28733">
        <ele>51</ele>
        <time>2016-09-26T19:44:41.000Z</time>
      </trkpt>
      <trkpt lat="48.85864" lon="2.2871">
        <ele>55</ele>
        <time>2016-09-26T19:45:06.000Z</time>
      </trkpt>
      <trkpt lat="48.85873" lon="2.28697">
        <ele>57.200000762939</ele>
        <time>2016-09-26T19:45:19.000Z</time>
      </trkpt>
      <trkpt lat="48.85877" lon="2.28692">
        <ele>58</ele>
        <time>2016-09-26T19:45:25.000Z</time>
      </trkpt>
      <trkpt lat="48.85878" lon="2.28686">
        <ele>58.799999237061</ele>
        <time>2016-09-26T19:45:32.000Z</time>
      </trkpt>
      <trkpt lat="48.85909" lon="2.28685">
        <ele>60.799999237061</ele>
        <time>2016-09-26T19:47:19.000Z</time>
      </trkpt>
      <trkpt lat="48.85914" lon="2.28689">
        <ele>60.599998474121</ele>
        <time>2016-09-26T19:47:32.000Z</time>
      </trkpt>
      <trkpt lat="48.85951" lon="2.28734">
        <ele>57.799999237061</ele>
        <time>2016-09-26T19:47:54.000Z</time>
      </trkpt>
      <trkpt lat="48.85983" lon="2.28768">
        <ele>56</ele>
        <time>2016-09-26T19:48:32.000Z</time>
      </trkpt>
      <trkpt lat="48.85987" lon="2.28775">
        <ele>55.599998474121</ele>
        <time>2016-09-26T19:48:44.000Z</time>
      </trkpt>
      <trkpt lat="48.85994" lon="2.28779">
        <ele>55.599998474121</ele>
        <time>2016-09-26T19:49:05.000Z</time>
      </trkpt>
      <trkpt lat="48.85999" lon="2.28769">
        <ele>56.599998474121</ele>
        <time>2016-09-26T19:49:18.000Z</time>
      </trkpt>
      <trkpt lat="48.86003" lon="2.28752">
        <ele>57.799999237061</ele>
        <time>2016-09-26T19:49:41.000Z</time>
      </trkpt>
      <trkpt lat="48.86023" lon="2.28691">
        <ele>65.800003051758</ele>
        <time>2016-09-26T19:50:14.000Z</time>
      </trkpt>
      <trkpt lat="48.86041" lon="2.28626">
        <ele>71.199996948242</ele>
        <time>2016-09-26T19:50:37.000Z</time>
      </trkpt>
      <trkpt lat="48.86049" lon="2.28599">
        <ele>72.800003051758</ele>
        <time>2016-09-26T19:52:35.000Z</time>
      </trkpt>
      <trkpt lat="48.86047" lon="2.28597">
        <ele>73</ele>
        <time>2016-09-26T19:52:40.000Z</time>
      </trkpt>
      <trkpt lat="48.86078" lon="2.28601">
        <ele>74.199996948242</ele>
        <time>2016-09-26T19:52:54.000Z</time>
      </trkpt>
      <trkpt lat="48.861" lon="2.28616">
        <ele>74</ele>
        <time>2016-09-26T19:53:07.000Z</time>
      </trkpt>
      <trkpt lat="48.86141" lon="2.28636">
        <ele>73</ele>
        <time>2016-09-26T19:53:25.000Z</time>
      </trkpt>
      <trkpt lat="48.86144" lon="2.28632">
        <ele>73.199996948242</ele>
        <time>2016-09-26T19:53:28.000Z</time>
      </trkpt>
      <trkpt lat="48.86145" lon="2.28629">
        <ele>73.400001525879</ele>
        <time>2016-09-26T19:53:30.000Z</time>
      </trkpt>
      <trkpt lat="48.86113" lon="2.28579">
        <ele>76.599998474121</ele>
        <time>2016-09-26T19:53:51.000Z</time>
      </trkpt>
      <trkpt lat="48.86078" lon="2.28528">
        <ele>75.599998474121</ele>
        <time>2016-09-26T19:54:03.000Z</time>
      </trkpt>
      <trkpt lat="48.86047" lon="2.28478">
        <ele>73.800003051758</ele>
        <time>2016-09-26T19:54:14.000Z</time>
      </trkpt>
      <trkpt lat="48.86026" lon="2.28454">
        <ele>72.199996948242</ele>
        <time>2016-09-26T19:54:20.000Z</time>
      </trkpt>
      <trkpt lat="48.86006" lon="2.28448">
        <ele>71.599998474121</ele>
        <time>2016-09-26T19:54:24.000Z</time>
      </trkpt>
      <trkpt lat="48.85959" lon="2.28456">
        <ele>71</ele>
        <time>2016-09-26T19:54:33.000Z</time>
      </trkpt>
      <trkpt lat="48.85914" lon="2.28465">
        <ele>69.599998474121</ele>
        <time>2016-09-26T19:54:43.000Z</time>
      </trkpt>
      <trkpt lat="48.85869" lon="2.28444">
        <ele>67</ele>
        <time>2016-09-26T19:54:55.000Z</time>
      </trkpt>
      <trkpt lat="48.85868" lon="2.28439">
        <ele>67</ele>
        <time>2016-09-26T19:54:56.000Z</time>
      </trkpt>
      <trkpt lat="48.85895" lon="2.2838">
        <ele>70</ele>
        <time>2016-09-26T19:55:12.000Z</time>
      </trkpt>
      <trkpt lat="48.85924" lon="2.28321">
        <ele>69.199996948242</ele>
        <time>2016-09-26T19:55:24.000Z</time>
      </trkpt>
      <trkpt lat="48.85926" lon="2.2831">
        <ele>69.199996948242</ele>
        <time>2016-09-26T19:55:26.000Z</time>
      </trkpt>
      <trkpt lat="48.8596" lon="2.28258">
        <ele>71.800003051758</ele>
        <time>2016-09-26T19:55:38.000Z</time>
      </trkpt>
      <trkpt lat="48.8599" lon="2.28204">
        <ele>71.800003051758</ele>
        <time>2016-09-26T19:55:50.000Z</time>
      </trkpt>
      <trkpt lat="48.86016" lon="2.28147">
        <ele>73.800003051758</ele>
        <time>2016-09-26T19:56:07.000Z</time>
      </trkpt>
      <trkpt lat="48.86022" lon="2.28114">
        <ele>74</ele>
        <time>2016-09-26T19:57:00.000Z</time>
      </trkpt>
      <trkpt lat="48.86038" lon="2.28085">
        <ele>74</ele>
        <time>2016-09-26T19:57:12.000Z</time>
      </trkpt>
      <trkpt lat="48.86069" lon="2.28029">
        <ele>73.800003051758</ele>
        <time>2016-09-26T19:57:25.000Z</time>
      </trkpt>
      <trkpt lat="48.86105" lon="2.27982">
        <ele>72.800003051758</ele>
        <time>2016-09-26T19:57:37.000Z</time>
      </trkpt>
      <trkpt lat="48.86138" lon="2.27934">
        <ele>71.400001525879</ele>
        <time>2016-09-26T19:57:49.000Z</time>
      </trkpt>
      <trkpt lat="48.86168" lon="2.2788">
        <ele>70.199996948242</ele>
        <time>2016-09-26T19:58:00.000Z</time>
      </trkpt>
      <trkpt lat="48.86175" lon="2.27871">
        <ele>69.599998474121</ele>
        <time>2016-09-26T19:58:01.000Z</time>
      </trkpt>
      <trkpt lat="48.86204" lon="2.27826">
        <ele>67.400001525879</ele>
        <time>2016-09-26T19:58:12.000Z</time>
      </trkpt>
      <trkpt lat="48.86214" lon="2.27813">
        <ele>66.400001525879</ele>
        <time>2016-09-26T19:58:15.000Z</time>
      </trkpt>
      <trkpt lat="48.86222" lon="2.2779">
        <ele>65</ele>
        <time>2016-09-26T19:58:19.000Z</time>
      </trkpt>
      <trkpt lat="48.86229" lon="2.27774">
        <ele>64.400001525879</ele>
        <time>2016-09-26T19:58:22.000Z</time>
      </trkpt>
      <trkpt lat="48.86256" lon="2.27712">
        <ele>64.599998474121</ele>
        <time>2016-09-26T19:58:32.000Z</time>
      </trkpt>
      <trkpt lat="48.86289" lon="2.27657">
        <ele>64.599998474121</ele>
        <time>2016-09-26T19:58:45.000Z</time>
      </trkpt>
      <trkpt lat="48.86302" lon="2.27588">
        <ele>65</ele>
        <time>2016-09-26T19:58:56.000Z</time>
      </trkpt>
      <trkpt lat="48.86316" lon="2.27547">
        <ele>66.800003051758</ele>
        <time>2016-09-26T19:59:03.000Z</time>
      </trkpt>
      <trkpt lat="48.86324" lon="2.27521">
        <ele>68.199996948242</ele>
        <time>2016-09-26T19:59:07.000Z</time>
      </trkpt>
      <trkpt lat="48.86342" lon="2.27456">
        <ele>70.599998474121</ele>
        <time>2016-09-26T19:59:18.000Z</time>
      </trkpt>
      <trkpt lat="48.86361" lon="2.27385">
        <ele>67.800003051758</ele>
        <time>2016-09-26T19:59:29.000Z</time>
      </trkpt>
      <trkpt lat="48.86362" lon="2.27378">
        <ele>67.199996948242</ele>
        <time>2016-09-26T19:59:30.000Z</time>
      </trkpt>
      <trkpt lat="48.86375" lon="2.27319">
        <ele>63.599998474121</ele>
        <time>2016-09-26T19:59:39.000Z</time>
      </trkpt>
      <trkpt lat="48.86387" lon="2.27246">
        <ele>61.200000762939</ele>
        <time>2016-09-26T19:59:49.000Z</time>
      </trkpt>
      <trkpt lat="48.86404" lon="2.27224">
        <ele>62.200000762939</ele>
        <time>2016-09-26T19:59:58.000Z</time>
      </trkpt>
      <trkpt lat="48.86449" lon="2.27235">
        <ele>60.799999237061</ele>
        <time>2016-09-26T20:00:16.000Z</time>
      </trkpt>
      <trkpt lat="48.86496" lon="2.27229">
        <ele>63.400001525879</ele>
        <time>2016-09-26T20:00:28.000Z</time>
      </trkpt>
      <trkpt lat="48.86504" lon="2.27227">
        <ele>63.799999237061</ele>
        <time>2016-09-26T20:00:30.000Z</time>
      </trkpt>
      <trkpt lat="48.86553" lon="2.27223">
        <ele>63.400001525879</ele>
        <time>2016-09-26T20:00:40.000Z</time>
      </trkpt>
      <trkpt lat="48.86582" lon="2.27226">
        <ele>63.599998474121</ele>
        <time>2016-09-26T20:00:45.000Z</time>
      </trkpt>
      <trkpt lat="48.86614" lon="2.2723">
        <ele>64.599998474121</ele>
        <time>2016-09-26T20:00:51.000Z</time>
      </trkpt>
      <trkpt lat="48.8666" lon="2.27254">
        <ele>64</ele>
        <time>2016-09-26T20:01:03.000Z</time>
      </trkpt>
      <trkpt lat="48.86665" lon="2.27256">
        <ele>63.799999237061</ele>
        <time>2016-09-26T20:01:04.000Z</time>
      </trkpt>
      <trkpt lat="48.86712" lon="2.27281">
        <ele>63</ele>
        <time>2016-09-26T20:01:12.000Z</time>
      </trkpt>
      <trkpt lat="48.86763" lon="2.2731">
        <ele>61</ele>
        <time>2016-09-26T20:01:18.000Z</time>
      </trkpt>
      <trkpt lat="48.8681" lon="2.27347">
        <ele>58.799999237061</ele>
        <time>2016-09-26T20:01:24.000Z</time>
      </trkpt>
      <trkpt lat="48.86848" lon="2.27385">
        <ele>56.400001525879</ele>
        <time>2016-09-26T20:01:33.000Z</time>
      </trkpt>
      <trkpt lat="48.86889" lon="2.27416">
        <ele>54.599998474121</ele>
        <time>2016-09-26T20:01:52.000Z</time>
      </trkpt>
      <trkpt lat="48.86929" lon="2.27447">
        <ele>54.599998474121</ele>
        <time>2016-09-26T20:02:03.000Z</time>
      </trkpt>
      <trkpt lat="48.8697" lon="2.27478">
        <ele>56.200000762939</ele>
        <time>2016-09-26T20:02:12.000Z</time>
      </trkpt>
      <trkpt lat="48.87012" lon="2.2751">
        <ele>58.599998474121</ele>
        <time>2016-09-26T20:02:21.000Z</time>
      </trkpt>
      <trkpt lat="48.87052" lon="2.27551">
        <ele>59.200000762939</ele>
        <time>2016-09-26T20:02:31.000Z</time>
      </trkpt>
      <trkpt lat="48.87095" lon="2.27588">
        <ele>58.799999237061</ele>
        <time>2016-09-26T20:02:42.000Z</time>
      </trkpt>
      <trkpt lat="48.87136" lon="2.27619">
        <ele>53.400001525879</ele>
        <time>2016-09-26T20:02:58.000Z</time>
      </trkpt>
      <trkpt lat="48.87135" lon="2.27627">
        <ele>53.799999237061</ele>
        <time>2016-09-26T20:03:46.000Z</time>
      </trkpt>
      <trkpt lat="48.87138" lon="2.27697">
        <ele>55.200000762939</ele>
        <time>2016-09-26T20:04:10.000Z</time>
      </trkpt>
      <trkpt lat="48.87145" lon="2.27766">
        <ele>54.400001525879</ele>
        <time>2016-09-26T20:04:30.000Z</time>
      </trkpt>
      <trkpt lat="48.87152" lon="2.27834">
        <ele>54.200000762939</ele>
        <time>2016-09-26T20:04:42.000Z</time>
      </trkpt>
      <trkpt lat="48.87159" lon="2.27907">
        <ele>52.799999237061</ele>
        <time>2016-09-26T20:04:51.000Z</time>
      </trkpt>
      <trkpt lat="48.87171" lon="2.27979">
        <ele>55.200000762939</ele>
        <time>2016-09-26T20:04:59.000Z</time>
      </trkpt>
      <trkpt lat="48.87183" lon="2.28048">
        <ele>56</ele>
        <time>2016-09-26T20:05:07.000Z</time>
      </trkpt>
      <trkpt lat="48.87187" lon="2.28083">
        <ele>56.200000762939</ele>
        <time>2016-09-26T20:05:11.000Z</time>
      </trkpt>
      <trkpt lat="48.87197" lon="2.28158">
        <ele>58.400001525879</ele>
        <time>2016-09-26T20:05:20.000Z</time>
      </trkpt>
      <trkpt lat="48.87199" lon="2.28183">
        <ele>59</ele>
        <time>2016-09-26T20:05:23.000Z</time>
      </trkpt>
      <trkpt lat="48.87205" lon="2.28252">
        <ele>59.599998474121</ele>
        <time>2016-09-26T20:05:31.000Z</time>
      </trkpt>
      <trkpt lat="48.87211" lon="2.28303">
        <ele>59.400001525879</ele>
        <time>2016-09-26T20:05:37.000Z</time>
      </trkpt>
      <trkpt lat="48.87216" lon="2.28335">
        <ele>59.400001525879</ele>
        <time>2016-09-26T20:05:41.000Z</time>
      </trkpt>
      <trkpt lat="48.87221" lon="2.28408">
        <ele>59.200000762939</ele>
        <time>2016-09-26T20:05:51.000Z</time>
      </trkpt>
      <trkpt lat="48.87227" lon="2.28458">
        <ele>59.599998474121</ele>
        <time>2016-09-26T20:06:35.000Z</time>
      </trkpt>
      <trkpt lat="48.87231" lon="2.28488">
        <ele>58.200000762939</ele>
        <time>2016-09-26T20:07:44.000Z</time>
      </trkpt>
      <trkpt lat="48.87249" lon="2.28508">
        <ele>56.200000762939</ele>
        <time>2016-09-26T20:07:52.000Z</time>
      </trkpt>
      <trkpt lat="48.87289" lon="2.2854">
        <ele>55.799999237061</ele>
        <time>2016-09-26T20:08:03.000Z</time>
      </trkpt>
      <trkpt lat="48.873" lon="2.28893">
        <ele>64.800003051758</ele>
        <time>2016-09-26T20:11:44.000Z</time>
      </trkpt>
      <trkpt lat="48.87285" lon="2.28911">
        <ele>66.199996948242</ele>
        <time>2016-09-26T20:12:31.000Z</time>
      </trkpt>
      <trkpt lat="48.87272" lon="2.28916">
        <ele>67</ele>
        <time>2016-09-26T20:12:53.000Z</time>
      </trkpt>
      <trkpt lat="48.87271" lon="2.28922">
        <ele>66.800003051758</ele>
        <time>2016-09-26T20:12:56.000Z</time>
      </trkpt>
      <trkpt lat="48.87277" lon="2.2899">
        <ele>65</ele>
        <time>2016-09-26T20:13:12.000Z</time>
      </trkpt>
      <trkpt lat="48.87286" lon="2.29061">
        <ele>68.800003051758</ele>
        <time>2016-09-26T20:13:30.000Z</time>
      </trkpt>
      <trkpt lat="48.87298" lon="2.29129">
        <ele>70.800003051758</ele>
        <time>2016-09-26T20:13:47.000Z</time>
      </trkpt>
      <trkpt lat="48.87322" lon="2.29186">
        <ele>70.599998474121</ele>
        <time>2016-09-26T20:14:04.000Z</time>
      </trkpt>
      <trkpt lat="48.87341" lon="2.29247">
        <ele>68.199996948242</ele>
        <time>2016-09-26T20:14:22.000Z</time>
      </trkpt>
      <trkpt lat="48.87341" lon="2.29249">
        <ele>68.199996948242</ele>
        <time>2016-09-26T20:14:23.000Z</time>
      </trkpt>
      <trkpt lat="48.87343" lon="2.2927">
        <ele>67.599998474121</ele>
        <time>2016-09-26T20:14:46.000Z</time>
      </trkpt>
      <trkpt lat="48.87306" lon="2.29292">
        <ele>69.400001525879</ele>
        <time>2016-09-26T20:15:07.000Z</time>
      </trkpt>
      <trkpt lat="48.87299" lon="2.29301">
        <ele>68.800003051758</ele>
        <time>2016-09-26T20:15:11.000Z</time>
      </trkpt>
      <trkpt lat="48.87272" lon="2.29359">
        <ele>66.400001525879</ele>
        <time>2016-09-26T20:15:27.000Z</time>
      </trkpt>
      <trkpt lat="48.87249" lon="2.29419">
        <ele>65.199996948242</ele>
        <time>2016-09-26T20:15:40.000Z</time>
      </trkpt>
      <trkpt lat="48.87234" lon="2.29485">
        <ele>64.400001525879</ele>
        <time>2016-09-26T20:15:50.000Z</time>
      </trkpt>
      <trkpt lat="48.87234" lon="2.29492">
        <ele>64.400001525879</ele>
        <time>2016-09-26T20:15:51.000Z</time>
      </trkpt>
      <trkpt lat="48.87237" lon="2.29537">
        <ele>63.400001525879</ele>
        <time>2016-09-26T20:15:58.000Z</time>
      </trkpt>
      <trkpt lat="48.87249" lon="2.29602">
        <ele>63.599998474121</ele>
        <time>2016-09-26T20:16:13.000Z</time>
      </trkpt>
      <trkpt lat="48.87249" lon="2.29608">
        <ele>63.799999237061</ele>
        <time>2016-09-26T20:16:47.000Z</time>
      </trkpt>
      <trkpt lat="48.87276" lon="2.29662">
        <ele>64.800003051758</ele>
        <time>2016-09-26T20:17:04.000Z</time>
      </trkpt>
      <trkpt lat="48.87292" lon="2.29708">
        <ele>66</ele>
        <time>2016-09-26T20:17:43.000Z</time>
      </trkpt>
      <trkpt lat="48.87277" lon="2.29777">
        <ele>69</ele>
        <time>2016-09-26T20:18:06.000Z</time>
      </trkpt>
      <trkpt lat="48.87261" lon="2.29841">
        <ele>67</ele>
        <time>2016-09-26T20:18:23.000Z</time>
      </trkpt>
      <trkpt lat="48.87264" lon="2.29887">
        <ele>64.599998474121</ele>
        <time>2016-09-26T20:18:30.000Z</time>
      </trkpt>
      <trkpt lat="48.87246" lon="2.29951">
        <ele>63.200000762939</ele>
        <time>2016-09-26T20:18:41.000Z</time>
      </trkpt>
      <trkpt lat="48.87217" lon="2.3001">
        <ele>61.799999237061</ele>
        <time>2016-09-26T20:18:50.000Z</time>
      </trkpt>
      <trkpt lat="48.87146" lon="2.30234">
        <ele>53.799999237061</ele>
        <time>2016-09-26T20:19:12.000Z</time>
      </trkpt>
      <trkpt lat="48.87123" lon="2.30243">
        <ele>53.400001525879</ele>
        <time>2016-09-26T20:19:42.000Z</time>
      </trkpt>
      <trkpt lat="48.87109" lon="2.3031">
        <ele>54.599998474121</ele>
        <time>2016-09-26T20:20:01.000Z</time>
      </trkpt>
      <trkpt lat="48.87099" lon="2.30377">
        <ele>55</ele>
        <time>2016-09-26T20:20:17.000Z</time>
      </trkpt>
      <trkpt lat="48.87088" lon="2.30445">
        <ele>54</ele>
        <time>2016-09-26T20:20:27.000Z</time>
      </trkpt>
      <trkpt lat="48.8708" lon="2.30473">
        <ele>53.200000762939</ele>
        <time>2016-09-26T20:20:31.000Z</time>
      </trkpt>
      <trkpt lat="48.87074" lon="2.30493">
        <ele>51.799999237061</ele>
        <time>2016-09-26T20:20:34.000Z</time>
      </trkpt>
      <trkpt lat="48.87043" lon="2.30549">
        <ele>49.400001525879</ele>
        <time>2016-09-26T20:20:49.000Z</time>
      </trkpt>
      <trkpt lat="48.8702" lon="2.30609">
        <ele>48.599998474121</ele>
        <time>2016-09-26T20:21:01.000Z</time>
      </trkpt>
      <trkpt lat="48.86994" lon="2.30667">
        <ele>50.599998474121</ele>
        <time>2016-09-26T20:21:17.000Z</time>
      </trkpt>
      <trkpt lat="48.86985" lon="2.30706">
        <ele>50</ele>
        <time>2016-09-26T20:21:25.000Z</time>
      </trkpt>
      <trkpt lat="48.86977" lon="2.3074">
        <ele>46.599998474121</ele>
        <time>2016-09-26T20:21:30.000Z</time>
      </trkpt>
      <trkpt lat="48.86968" lon="2.30802">
        <ele>43.400001525879</ele>
        <time>2016-09-26T20:21:39.000Z</time>
      </trkpt>
      <trkpt lat="48.86961" lon="2.30822">
        <ele>43.200000762939</ele>
        <time>2016-09-26T20:21:42.000Z</time>
      </trkpt>
      <trkpt lat="48.86939" lon="2.3087">
        <ele>43</ele>
        <time>2016-09-26T20:21:57.000Z</time>
      </trkpt>
      <trkpt lat="48.86914" lon="2.30869">
        <ele>43.400001525879</ele>
        <time>2016-09-26T20:24:31.000Z</time>
      </trkpt>
      <trkpt lat="48.86882" lon="2.30918">
        <ele>41.599998474121</ele>
        <time>2016-09-26T20:24:54.000Z</time>
      </trkpt>
      <trkpt lat="48.86844" lon="2.30957">
        <ele>40.200000762939</ele>
        <time>2016-09-26T20:25:13.000Z</time>
      </trkpt>
      <trkpt lat="48.86831" lon="2.30998">
        <ele>38.200000762939</ele>
        <time>2016-09-26T20:25:27.000Z</time>
      </trkpt>
      <trkpt lat="48.86783" lon="2.3101">
        <ele>38.400001525879</ele>
        <time>2016-09-26T20:25:42.000Z</time>
      </trkpt>
      <trkpt lat="48.86738" lon="2.31009">
        <ele>40</ele>
        <time>2016-09-26T20:25:53.000Z</time>
      </trkpt>
      <trkpt lat="48.86733" lon="2.31009">
        <ele>40.200000762939</ele>
        <time>2016-09-26T20:25:54.000Z</time>
      </trkpt>
      <trkpt lat="48.86714" lon="2.31013">
        <ele>40.799999237061</ele>
        <time>2016-09-26T20:25:58.000Z</time>
      </trkpt>
      <trkpt lat="48.86669" lon="2.31018">
        <ele>42.799999237061</ele>
        <time>2016-09-26T20:26:07.000Z</time>
      </trkpt>
      <trkpt lat="48.86623" lon="2.31026">
        <ele>43.400001525879</ele>
        <time>2016-09-26T20:26:14.000Z</time>
      </trkpt>
      <trkpt lat="48.86584" lon="2.31031">
        <ele>42.400001525879</ele>
        <time>2016-09-26T20:26:20.000Z</time>
      </trkpt>
      <trkpt lat="48.86536" lon="2.31024">
        <ele>40.400001525879</ele>
        <time>2016-09-26T20:26:27.000Z</time>
      </trkpt>
      <trkpt lat="48.86519" lon="2.31025">
        <ele>38.799999237061</ele>
        <time>2016-09-26T20:26:30.000Z</time>
      </trkpt>
      <trkpt lat="48.86478" lon="2.3105">
        <ele>32.200000762939</ele>
        <time>2016-09-26T20:26:44.000Z</time>
      </trkpt>
      <trkpt lat="48.86468" lon="2.31049">
        <ele>31.200000762939</ele>
        <time>2016-09-26T20:27:18.000Z</time>
      </trkpt>
      <trkpt lat="48.86453" lon="2.31106">
        <ele>28.60000038147</ele>
        <time>2016-09-26T20:27:36.000Z</time>
      </trkpt>
      <trkpt lat="48.86453" lon="2.31135">
        <ele>28.60000038147</ele>
        <time>2016-09-26T20:27:41.000Z</time>
      </trkpt>
      <trkpt lat="48.86455" lon="2.31148">
        <ele>29</ele>
        <time>2016-09-26T20:27:43.000Z</time>
      </trkpt>
      <trkpt lat="48.86458" lon="2.31218">
        <ele>33.799999237061</ele>
        <time>2016-09-26T20:27:52.000Z</time>
      </trkpt>
      <trkpt lat="48.86458" lon="2.31255">
        <ele>36.599998474121</ele>
        <time>2016-09-26T20:27:56.000Z</time>
      </trkpt>
      <trkpt lat="48.86461" lon="2.31303">
        <ele>35.799999237061</ele>
        <time>2016-09-26T20:28:01.000Z</time>
      </trkpt>
      <trkpt lat="48.8646" lon="2.31328">
        <ele>34.799999237061</ele>
        <time>2016-09-26T20:28:05.000Z</time>
      </trkpt>
      <trkpt lat="48.86461" lon="2.31353">
        <ele>33.200000762939</ele>
        <time>2016-09-26T20:28:11.000Z</time>
      </trkpt>
      <trkpt lat="48.86459" lon="2.31362">
        <ele>33</ele>
        <time>2016-09-26T20:28:37.000Z</time>
      </trkpt>
      <trkpt lat="48.86466" lon="2.31403">
        <ele>32.400001525879</ele>
        <time>2016-09-26T20:28:47.000Z</time>
      </trkpt>
      <trkpt lat="48.86468" lon="2.31429">
        <ele>33.599998474121</ele>
        <time>2016-09-26T20:28:51.000Z</time>
      </trkpt>
      <trkpt lat="48.86467" lon="2.31436">
        <ele>34.200000762939</ele>
        <time>2016-09-26T20:28:52.000Z</time>
      </trkpt>
      <trkpt lat="48.86465" lon="2.31513">
        <ele>31.799999237061</ele>
        <time>2016-09-26T20:29:00.000Z</time>
      </trkpt>
      <trkpt lat="48.86467" lon="2.31584">
        <ele>28.799999237061</ele>
        <time>2016-09-26T20:29:06.000Z</time>
      </trkpt>
      <trkpt lat="48.86471" lon="2.31661">
        <ele>27.200000762939</ele>
        <time>2016-09-26T20:29:13.000Z</time>
      </trkpt>
      <trkpt lat="48.86475" lon="2.31735">
        <ele>36</ele>
        <time>2016-09-26T20:29:21.000Z</time>
      </trkpt>
      <trkpt lat="48.86477" lon="2.3175">
        <ele>37.799999237061</ele>
        <time>2016-09-26T20:29:23.000Z</time>
      </trkpt>
      <trkpt lat="48.86478" lon="2.31775">
        <ele>37.799999237061</ele>
        <time>2016-09-26T20:29:26.000Z</time>
      </trkpt>
      <trkpt lat="48.86476" lon="2.31802">
        <ele>36.200000762939</ele>
        <time>2016-09-26T20:29:29.000Z</time>
      </trkpt>
      <trkpt lat="48.8647" lon="2.31826">
        <ele>33.799999237061</ele>
        <time>2016-09-26T20:29:32.000Z</time>
      </trkpt>
      <trkpt lat="48.86464" lon="2.31841">
        <ele>33</ele>
        <time>2016-09-26T20:29:34.000Z</time>
      </trkpt>
      <trkpt lat="48.86443" lon="2.31903">
        <ele>28</ele>
        <time>2016-09-26T20:29:46.000Z</time>
      </trkpt>
      <trkpt lat="48.86423" lon="2.31967">
        <ele>28.799999237061</ele>
        <time>2016-09-26T20:29:57.000Z</time>
      </trkpt>
      <trkpt lat="48.86416" lon="2.31979">
        <ele>29</ele>
        <time>2016-09-26T20:30:01.000Z</time>
      </trkpt>
      <trkpt lat="48.86407" lon="2.31984">
        <ele>28.799999237061</ele>
        <time>2016-09-26T20:31:20.000Z</time>
      </trkpt>
      <trkpt lat="48.86396" lon="2.32051">
        <ele>30.39999961853</ele>
        <time>2016-09-26T20:31:38.000Z</time>
      </trkpt>
      <trkpt lat="48.86392" lon="2.32063">
        <ele>30.200000762939</ele>
        <time>2016-09-26T20:31:40.000Z</time>
      </trkpt>
      <trkpt lat="48.86371" lon="2.32124">
        <ele>29.799999237061</ele>
        <time>2016-09-26T20:31:50.000Z</time>
      </trkpt>
      <trkpt lat="48.8636" lon="2.32167">
        <ele>29.39999961853</ele>
        <time>2016-09-26T20:31:55.000Z</time>
      </trkpt>
      <trkpt lat="48.86342" lon="2.32231">
        <ele>31.799999237061</ele>
        <time>2016-09-26T20:32:01.000Z</time>
      </trkpt>
      <trkpt lat="48.86321" lon="2.32296">
        <ele>30.799999237061</ele>
        <time>2016-09-26T20:32:07.000Z</time>
      </trkpt>
      <trkpt lat="48.86301" lon="2.32362">
        <ele>30</ele>
        <time>2016-09-26T20:32:13.000Z</time>
      </trkpt>
      <trkpt lat="48.86298" lon="2.32374">
        <ele>29.39999961853</ele>
        <time>2016-09-26T20:32:14.000Z</time>
      </trkpt>
      <trkpt lat="48.86276" lon="2.32433">
        <ele>27.60000038147</ele>
        <time>2016-09-26T20:32:19.000Z</time>
      </trkpt>
      <trkpt lat="48.86263" lon="2.3247">
        <ele>28.39999961853</ele>
        <time>2016-09-26T20:32:22.000Z</time>
      </trkpt>
      <trkpt lat="48.8624" lon="2.32539">
        <ele>30</ele>
        <time>2016-09-26T20:32:28.000Z</time>
      </trkpt>
      <trkpt lat="48.86217" lon="2.32605">
        <ele>31</ele>
        <time>2016-09-26T20:32:34.000Z</time>
      </trkpt>
      <trkpt lat="48.86197" lon="2.32671">
        <ele>29.200000762939</ele>
        <time>2016-09-26T20:32:40.000Z</time>
      </trkpt>
      <trkpt lat="48.86193" lon="2.32681">
        <ele>29.60000038147</ele>
        <time>2016-09-26T20:32:41.000Z</time>
      </trkpt>
      <trkpt lat="48.86172" lon="2.32745">
        <ele>31</ele>
        <time>2016-09-26T20:32:47.000Z</time>
      </trkpt>
      <trkpt lat="48.86152" lon="2.32808">
        <ele>31.799999237061</ele>
        <time>2016-09-26T20:32:53.000Z</time>
      </trkpt>
      <trkpt lat="48.8613" lon="2.32878">
        <ele>31.200000762939</ele>
        <time>2016-09-26T20:33:00.000Z</time>
      </trkpt>
      <trkpt lat="48.8611" lon="2.32943">
        <ele>36.400001525879</ele>
        <time>2016-09-26T20:33:09.000Z</time>
      </trkpt>
      <trkpt lat="48.86086" lon="2.32999">
        <ele>43</ele>
        <time>2016-09-26T20:33:23.000Z</time>
      </trkpt>
      <trkpt lat="48.86082" lon="2.33006">
        <ele>42.400001525879</ele>
        <time>2016-09-26T20:34:27.000Z</time>
      </trkpt>
      <trkpt lat="48.86084" lon="2.33002">
        <ele>42.599998474121</ele>
        <time>2016-09-26T20:34:30.000Z</time>
      </trkpt>
      <trkpt lat="48.86089" lon="2.32992">
        <ele>43.200000762939</ele>
        <time>2016-09-26T20:35:17.000Z</time>
      </trkpt>
      <trkpt lat="48.86131" lon="2.3303">
        <ele>41.200000762939</ele>
        <time>2016-09-26T20:35:36.000Z</time>
      </trkpt>
      <trkpt lat="48.86144" lon="2.33044">
        <ele>39.799999237061</ele>
        <time>2016-09-26T20:35:38.000Z</time>
      </trkpt>
      <trkpt lat="48.86193" lon="2.3308">
        <ele>36</ele>
        <time>2016-09-26T20:35:44.000Z</time>
      </trkpt>
      <trkpt lat="48.86243" lon="2.33112">
        <ele>35.799999237061</ele>
        <time>2016-09-26T20:35:49.000Z</time>
      </trkpt>
      <trkpt lat="48.86291" lon="2.33141">
        <ele>36.599998474121</ele>
        <time>2016-09-26T20:35:54.000Z</time>
      </trkpt>
      <trkpt lat="48.8631" lon="2.33173">
        <ele>38.400001525879</ele>
        <time>2016-09-26T20:35:57.000Z</time>
      </trkpt>
      <trkpt lat="48.86331" lon="2.33185">
        <ele>39.599998474121</ele>
        <time>2016-09-26T20:36:02.000Z</time>
      </trkpt>
      <trkpt lat="48.86374" lon="2.33211">
        <ele>42.400001525879</ele>
        <time>2016-09-26T20:36:23.000Z</time>
      </trkpt>
      <trkpt lat="48.86376" lon="2.33222">
        <ele>43.200000762939</ele>
        <time>2016-09-26T20:36:54.000Z</time>
      </trkpt>
      <trkpt lat="48.86357" lon="2.33284">
        <ele>45.799999237061</ele>
        <time>2016-09-26T20:37:19.000Z</time>
      </trkpt>
      <trkpt lat="48.86359" lon="2.33303">
        <ele>46.599998474121</ele>
        <time>2016-09-26T20:37:25.000Z</time>
      </trkpt>
      <trkpt lat="48.86343" lon="2.33373">
        <ele>49</ele>
        <time>2016-09-26T20:37:36.000Z</time>
      </trkpt>
      <trkpt lat="48.86329" lon="2.33404">
        <ele>48.599998474121</ele>
        <time>2016-09-26T20:37:48.000Z</time>
      </trkpt>
      <trkpt lat="48.86312" lon="2.33471">
        <ele>45.599998474121</ele>
        <time>2016-09-26T20:38:05.000Z</time>
      </trkpt>
      <trkpt lat="48.8629" lon="2.33531">
        <ele>45.400001525879</ele>
        <time>2016-09-26T20:38:15.000Z</time>
      </trkpt>
      <trkpt lat="48.86278" lon="2.33602">
        <ele>47.599998474121</ele>
        <time>2016-09-26T20:38:28.000Z</time>
      </trkpt>
      <trkpt lat="48.86267" lon="2.33657">
        <ele>47.200000762939</ele>
        <time>2016-09-26T20:38:37.000Z</time>
      </trkpt>
      <trkpt lat="48.8627" lon="2.33725">
        <ele>46.400001525879</ele>
        <time>2016-09-26T20:38:50.000Z</time>
      </trkpt>
      <trkpt lat="48.86261" lon="2.33772">
        <ele>45.799999237061</ele>
        <time>2016-09-26T20:38:59.000Z</time>
      </trkpt>
      <trkpt lat="48.86242" lon="2.33835">
        <ele>44.400001525879</ele>
        <time>2016-09-26T20:39:11.000Z</time>
      </trkpt>
      <trkpt lat="48.86225" lon="2.33901">
        <ele>46</ele>
        <time>2016-09-26T20:39:24.000Z</time>
      </trkpt>
      <trkpt lat="48.86208" lon="2.33966">
        <ele>47.799999237061</ele>
        <time>2016-09-26T20:39:35.000Z</time>
      </trkpt>
      <trkpt lat="48.86191" lon="2.34031">
        <ele>49</ele>
        <time>2016-09-26T20:39:46.000Z</time>
      </trkpt>
      <trkpt lat="48.86189" lon="2.34043">
        <ele>49</ele>
        <time>2016-09-26T20:39:48.000Z</time>
      </trkpt>
      <trkpt lat="48.86172" lon="2.34108">
        <ele>48.799999237061</ele>
        <time>2016-09-26T20:39:59.000Z</time>
      </trkpt>
      <trkpt lat="48.86157" lon="2.34176">
        <ele>49.200000762939</ele>
        <time>2016-09-26T20:40:12.000Z</time>
      </trkpt>
      <trkpt lat="48.86144" lon="2.34247">
        <ele>49.400001525879</ele>
        <time>2016-09-26T20:40:24.000Z</time>
      </trkpt>
      <trkpt lat="48.86131" lon="2.34314">
        <ele>50</ele>
        <time>2016-09-26T20:40:35.000Z</time>
      </trkpt>
      <trkpt lat="48.8612" lon="2.34371">
        <ele>49.599998474121</ele>
        <time>2016-09-26T20:40:44.000Z</time>
      </trkpt>
      <trkpt lat="48.86116" lon="2.34393">
        <ele>49.599998474121</ele>
        <time>2016-09-26T20:40:47.000Z</time>
      </trkpt>
      <trkpt lat="48.8611" lon="2.34415">
        <ele>49.599998474121</ele>
        <time>2016-09-26T20:40:50.000Z</time>
      </trkpt>
      <trkpt lat="48.86107" lon="2.3449">
        <ele>50.799999237061</ele>
        <time>2016-09-26T20:41:00.000Z</time>
      </trkpt>
      <trkpt lat="48.86099" lon="2.34516">
        <ele>51</ele>
        <time>2016-09-26T20:41:04.000Z</time>
      </trkpt>
      <trkpt lat="48.86069" lon="2.34576">
        <ele>49.799999237061</ele>
        <time>2016-09-26T20:41:14.000Z</time>
      </trkpt>
      <trkpt lat="48.8606" lon="2.34588">
        <ele>48.799999237061</ele>
        <time>2016-09-26T20:41:16.000Z</time>
      </trkpt>
      <trkpt lat="48.86022" lon="2.34619">
        <ele>47.599998474121</ele>
        <time>2016-09-26T20:41:24.000Z</time>
      </trkpt>
      <trkpt lat="48.86008" lon="2.34642">
        <ele>47.200000762939</ele>
        <time>2016-09-26T20:41:28.000Z</time>
      </trkpt>
      <trkpt lat="48.86" lon="2.34649">
        <ele>47</ele>
        <time>2016-09-26T20:41:30.000Z</time>
      </trkpt>
      <trkpt lat="48.85968" lon="2.34691">
        <ele>46.400001525879</ele>
        <time>2016-09-26T20:41:41.000Z</time>
      </trkpt>
      <trkpt lat="48.85971" lon="2.34716">
        <ele>45.599998474121</ele>
        <time>2016-09-26T20:41:49.000Z</time>
      </trkpt>
      <trkpt lat="48.85968" lon="2.3473">
        <ele>45</ele>
        <time>2016-09-26T20:41:54.000Z</time>
      </trkpt>
    </trkseg>
  </trk>
</gpx>